GFSMA_sfc_wetblb_069.txt.gz
Wetbulb
62.60 60.80 60.38 60.08 59.56 59.08 57.31 55.64 55.88 56.68 54.96 55.69 57.50 58.53 57.96 57.55 57.61 58.06 57.18 60.74 61.38 61.94 61.58 61.39 60.80 60.28 59.16 58.57 58.40 57.50 57.02 56.65 56.13 55.45 55.22 54.82 54.48 54.05 53.53 52.96 52.74 52.68 52.85
61.88 59.21 58.85 57.96 58.36 58.23 56.47 55.31 55.59 54.47 55.05 55.99 57.16 59.01 57.99 57.66 57.39 57.11 57.32 58.94 60.50 61.48 61.56 61.04 60.85 60.28 59.65 58.58 57.99 57.84 57.04 56.67 55.82 55.32 54.72 54.30 53.98 53.33 52.72 52.39 51.94 51.86 51.70
61.34 58.95 58.28 57.83 58.30 57.58 56.11 55.62 56.02 56.32 55.88 57.30 56.83 58.20 58.59 57.68 57.21 57.28 57.33 57.51 58.97 59.60 60.82 61.28 60.92 60.28 59.88 59.22 58.15 57.78 57.89 56.88 56.28 55.38 54.63 53.93 53.69 53.04 52.47 51.70 51.23 51.09 50.94
62.54 60.87 58.49 58.48 58.98 58.15 57.36 56.96 57.24 56.44 55.56 55.49 54.91 56.53 58.50 57.61 57.23 57.06 57.49 57.50 57.54 58.32 59.42 60.72 61.28 61.30 60.35 59.93 59.35 58.68 58.06 57.57 57.36 56.28 55.19 54.13 53.61 53.09 52.33 51.74 50.91 50.56 50.52
62.69 61.76 59.99 59.60 59.75 58.66 58.37 57.93 58.01 56.29 55.32 54.79 55.18 54.83 55.35 57.59 57.05 57.66 56.98 57.11 57.23 57.81 57.79 59.87 60.36 60.42 61.12 61.12 60.51 60.28 59.63 58.58 57.82 57.92 56.85 55.47 54.46 53.79 53.14 52.28 51.68 50.93 50.62
61.20 61.35 61.09 60.43 60.74 59.22 58.43 58.52 57.86 55.60 55.39 55.91 57.27 55.41 54.39 55.50 57.09 56.61 56.88 57.72 57.45 57.85 57.96 57.95 58.61 58.58 59.79 61.26 61.55 61.12 61.00 60.49 59.50 58.60 58.20 57.58 56.29 55.04 54.05 53.33 52.67 51.91 51.45
60.07 60.39 59.95 59.99 58.90 59.74 57.90 57.84 56.88 55.68 54.09 54.91 52.51 51.77 52.59 54.15 54.25 54.86 56.65 56.82 56.88 57.39 57.87 58.20 58.25 58.22 58.54 60.21 61.50 61.84 62.44 61.98 60.88 59.71 58.99 58.13 57.78 56.81 55.58 54.68 54.04 53.28 52.57
59.12 59.00 59.64 59.22 57.38 59.15 57.90 56.53 54.93 53.11 54.20 54.15 51.44 50.76 48.14 49.80 52.18 52.71 52.57 54.33 55.30 56.48 57.62 57.85 57.99 58.45 58.30 58.39 58.92 61.52 62.37 62.53 62.15 61.23 60.10 59.90 59.06 58.83 57.39 56.31 55.43 54.91 54.48
58.76 58.42 59.17 58.93 58.14 58.34 57.34 55.85 54.52 53.28 52.44 52.77 53.57 50.96 47.33 46.31 48.01 49.36 50.39 50.77 51.89 51.70 53.47 55.71 58.00 58.24 58.26 58.03 58.52 58.86 58.85 59.24 62.07 62.80 62.22 60.98 60.20 59.51 59.11 57.98 56.99 56.38 55.92
57.45 57.21 58.22 57.95 57.77 58.20 56.31 55.58 56.60 54.61 54.56 51.63 52.36 54.31 53.93 53.33 48.57 47.00 49.01 49.97 50.24 51.65 51.09 51.70 53.98 57.28 57.68 57.07 57.59 57.16 55.60 55.78 57.93 61.11 62.03 62.22 61.60 60.85 59.86 59.39 59.11 57.90 57.09
56.79 57.06 57.22 57.38 56.72 57.02 56.81 57.18 56.82 56.44 56.32 54.48 52.25 52.99 52.41 53.07 53.02 49.94 46.66 48.65 49.34 51.08 51.84 52.74 53.26 53.57 54.58 54.37 54.94 56.81 54.24 54.14 55.19 58.31 60.39 61.26 61.81 61.43 60.92 60.20 59.64 59.26 58.66
56.55 57.54 56.51 58.31 58.24 57.05 57.47 57.24 57.41 57.18 56.94 56.78 55.20 54.32 53.37 52.01 51.47 50.90 48.71 48.04 48.13 49.52 51.04 51.72 51.73 51.86 52.18 52.32 54.12 53.43 52.34 52.29 53.01 55.78 57.94 59.24 60.29 61.11 60.94 60.68 60.44 59.24 58.94
55.88 56.10 57.62 57.01 57.16 57.57 57.62 57.48 57.43 56.68 56.78 56.63 56.66 56.44 56.31 56.33 55.20 53.54 52.50 50.23 49.97 49.94 50.35 51.24 51.88 51.61 51.97 50.52 51.65 52.18 52.56 49.77 50.97 53.36 55.17 56.72 57.74 58.79 59.58 59.69 59.41 59.06 58.52
56.18 56.52 57.00 58.35 58.04 56.79 57.07 57.68 57.48 56.95 57.19 57.23 56.64 56.78 57.13 56.78 57.07 56.00 53.38 52.15 48.22 49.67 51.09 51.88 53.85 53.20 53.22 52.81 52.87 51.47 52.65 49.81 48.99 50.21 52.36 53.91 55.12 55.90 56.63 57.01 57.21 57.10 56.91
56.63 56.00 56.16 57.86 58.18 57.71 56.64 56.84 56.53 56.65 57.03 57.00 56.86 56.91 56.49 56.95 57.17 57.09 56.09 55.42 52.96 48.20 49.57 51.49 52.66 54.64 55.44 55.18 53.73 53.84 53.31 52.15 48.46 47.93 49.22 50.95 52.77 54.09 53.97 53.48 53.11 53.08 53.07
56.79 56.39 55.85 57.19 57.79 58.13 57.94 57.35 56.77 56.59 56.00 56.13 56.57 56.23 55.73 56.30 56.55 56.71 56.60 56.01 55.22 53.24 49.79 52.45 52.28 54.12 54.54 55.18 54.19 53.50 53.76 51.80 48.55 46.84 46.57 48.00 49.46 50.17 49.98 49.86 49.85 49.91 49.85
56.17 56.44 56.19 56.93 57.72 57.45 58.02 57.79 57.36 56.73 55.87 55.37 55.49 55.18 55.56 56.58 55.88 56.24 56.86 56.33 55.35 55.04 51.65 52.97 53.91 53.63 52.86 53.36 54.34 54.11 54.58 53.55 52.46 46.46 45.97 46.14 47.15 46.09 46.11 46.27 46.36 46.83 47.34
57.19 56.40 56.19 56.00 56.75 57.19 56.94 56.77 56.53 57.16 55.87 54.78 54.55 54.14 54.68 55.66 55.14 55.58 55.77 55.49 55.30 55.07 53.72 51.69 53.88 54.10 51.48 53.63 54.24 53.30 51.09 51.73 51.84 46.88 45.23 44.54 44.99 43.75 43.46 43.43 43.52 43.39 43.38
56.94 56.96 56.47 55.54 55.66 56.86 56.95 57.00 56.90 56.45 56.15 55.66 55.44 54.74 54.56 54.45 53.98 55.02 55.27 55.02 55.18 55.44 55.58 54.18 53.73 55.22 54.50 46.45 48.42 45.91 50.45 49.92 49.35 48.22 43.78 43.78 43.61 43.15 42.65 42.13 41.70 41.28 40.22
57.34 56.22 56.22 56.26 56.44 56.54 56.99 57.28 57.15 56.88 56.65 56.43 56.05 55.73 55.46 54.89 54.38 54.75 55.15 55.25 55.33 55.12 55.12 55.15 54.97 54.83 52.35 47.66 49.74 49.36 45.97 46.73 47.43 48.77 46.05 44.24 43.55 42.98 42.27 41.24 40.62 39.19 37.65
57.76 57.50 56.69 56.11 56.37 56.63 56.99 57.07 57.13 56.65 56.33 56.02 56.20 55.82 55.72 54.61 50.85 53.00 55.68 55.68 55.53 54.91 54.79 54.71 54.26 53.74 50.68 40.06 44.19 48.32 46.74 48.25 44.58 44.90 42.89 42.57 41.55 41.33 40.86 39.45 38.05 37.90 37.84
58.03 58.19 57.68 57.33 56.63 56.78 50.58 46.49 52.51 56.12 55.94 55.29 54.52 54.86 55.20 49.55 49.40 45.30 45.23 46.76 52.97 54.86 54.48 54.40 53.83 52.22 51.87 48.84 49.01 47.14 42.75 36.57 36.04 40.17 37.85 37.13 38.65 37.06 38.15 37.76 37.20 38.10 38.66
58.28 57.72 57.70 58.18 57.65 57.36 47.72 45.48 44.40 55.73 55.91 55.23 55.15 54.90 55.22 55.55 49.98 54.82 47.31 42.09 37.85 37.89 39.51 48.78 52.47 52.48 49.56 44.47 40.38 35.66 34.58 34.51 32.78 35.04 35.14 32.78 36.28 34.53 37.58 38.42 38.02 38.28 38.30
57.83 57.93 58.31 58.51 58.30 58.38 46.89 45.95 43.53 51.51 55.62 56.73 56.63 56.63 56.66 56.14 53.54 52.63 40.12 34.09 33.04 33.11 34.50 35.90 36.49 35.25 35.24 35.93 36.78 36.14 34.33 32.43 32.51 33.22 34.14 29.65 32.98 31.89 35.46 36.18 37.18 37.43 36.31
57.47 57.44 57.66 57.44 57.75 57.10 38.12 39.58 43.19 50.57 54.02 46.94 39.14 39.14 42.04 42.89 39.69 40.91 36.05 31.50 29.88 29.92 33.10 33.62 33.07 32.92 33.19 34.01 34.89 34.50 31.55 31.07 29.03 29.96 33.34 30.66 30.28 30.82 30.73 30.99 33.39 36.06 34.61
56.98 54.87 41.87 38.98 38.73 39.10 36.24 38.21 42.84 46.45 37.82 33.44 33.34 34.24 34.65 35.22 35.55 35.61 33.61 31.35 28.03 27.70 28.97 28.92 28.15 28.65 29.61 30.41 31.38 31.31 31.73 29.08 28.43 27.17 28.13 28.61 26.64 27.32 25.77 28.79 29.49 28.89 29.24

GFSMA_sfc_wetblb_072.txt.gz
Wetbulb
63.24 62.89 62.12 61.43 60.77 60.08 58.85 56.69 55.28 54.34 54.76 56.75 57.99 57.08 56.56 56.85 56.92 57.87 58.59 61.45 61.71 62.09 61.82 61.75 61.19 60.68 59.89 58.96 58.31 57.85 57.46 57.13 56.65 56.55 56.13 55.76 55.17 54.73 53.88 53.79 53.71 53.88 53.42
62.37 61.49 60.84 59.53 58.61 57.71 57.58 56.83 54.71 53.25 53.61 55.49 57.37 57.11 56.60 56.69 56.97 56.54 57.63 59.14 60.74 61.47 61.78 61.24 61.07 60.67 60.23 59.58 58.21 57.61 57.18 56.84 56.28 56.09 55.59 55.04 54.47 53.95 53.27 52.70 52.63 52.62 52.09
61.00 60.05 58.46 57.47 57.46 56.17 54.39 53.76 54.15 52.64 53.09 55.64 57.44 57.03 56.58 56.35 56.44 56.15 56.39 57.24 58.62 59.89 60.65 61.41 60.95 60.31 59.89 59.47 58.81 57.97 57.54 56.78 56.07 55.75 55.25 54.83 54.13 53.60 52.84 52.38 51.97 51.95 51.54
59.72 58.25 57.07 56.87 56.90 55.00 54.99 55.04 54.64 53.11 52.99 54.59 56.01 56.69 55.99 56.03 56.20 56.35 56.67 56.71 56.31 57.51 59.33 60.56 60.98 60.97 60.12 59.57 59.22 58.89 58.47 57.41 57.00 56.26 55.15 54.70 54.42 53.73 52.91 52.46 51.97 51.77 51.77
59.08 57.53 57.08 57.20 56.43 55.26 54.47 55.46 54.49 53.63 52.57 53.28 55.67 56.81 56.43 55.21 55.21 56.73 56.03 56.09 56.21 55.96 56.17 59.64 59.86 60.09 60.62 60.32 59.97 59.77 59.36 58.93 58.35 57.51 56.46 55.45 54.88 54.37 53.75 53.24 52.46 51.99 51.72
59.77 58.23 57.93 58.74 57.08 55.76 54.99 55.76 54.52 53.52 54.02 53.40 56.16 55.21 56.26 55.99 55.31 55.20 55.64 56.39 56.48 56.35 56.52 56.75 57.90 58.11 59.37 60.80 61.16 60.84 60.98 60.51 59.61 59.11 58.66 57.34 56.18 55.20 54.59 54.09 53.57 52.89 52.58
61.36 58.47 58.26 59.45 57.66 56.94 56.69 56.73 55.13 54.39 53.53 53.55 51.95 51.03 52.40 55.06 55.44 55.10 55.71 55.77 55.86 56.58 56.73 56.51 56.92 57.44 58.05 60.05 61.32 61.55 62.31 62.04 61.25 60.38 59.27 58.87 58.07 56.85 55.74 55.15 54.72 54.13 53.57
61.30 59.71 58.44 59.37 59.36 57.80 57.11 56.27 54.45 53.85 53.47 54.11 52.99 50.88 48.38 49.90 52.46 54.15 55.55 55.70 55.52 56.61 56.56 56.77 56.75 57.14 57.17 57.69 58.50 61.39 62.28 62.53 62.44 61.70 61.01 60.13 59.74 59.25 57.63 56.58 55.85 55.49 54.80
59.31 60.63 59.61 59.55 58.51 58.88 56.83 55.52 54.11 54.00 51.11 51.80 53.69 51.36 46.69 46.97 49.06 50.70 51.84 54.57 54.64 55.19 55.93 56.73 57.05 57.36 57.55 57.44 57.98 58.62 58.61 59.22 62.05 63.30 62.67 61.21 60.53 59.89 59.66 58.78 57.66 56.94 56.35
58.53 58.62 59.54 58.88 57.66 59.06 57.44 56.58 55.90 53.61 53.23 52.25 50.85 52.39 51.83 51.17 48.41 46.62 49.72 50.32 51.15 52.96 53.64 54.94 56.61 57.12 57.67 57.63 57.78 56.54 55.46 55.52 57.65 61.14 62.55 62.41 61.74 60.90 60.43 60.18 59.74 59.14 57.74
57.53 57.46 58.43 58.27 57.32 58.18 57.45 56.64 56.26 54.90 53.37 51.45 50.19 51.00 51.81 53.13 52.55 48.66 45.71 46.88 48.06 49.48 51.25 52.60 54.33 56.46 57.22 57.63 57.39 56.54 54.08 53.43 54.77 58.09 60.23 61.95 62.38 61.90 61.30 60.80 60.35 60.13 59.55
56.68 56.65 57.45 57.74 57.53 57.70 57.34 56.94 57.25 56.05 55.07 53.85 52.46 52.66 52.28 51.42 50.73 49.81 47.21 46.82 46.89 48.92 50.98 51.72 50.94 52.23 53.98 55.33 56.27 54.92 53.24 51.98 52.97 55.40 57.50 59.34 60.45 61.47 61.75 61.60 61.25 60.69 60.45
56.19 56.08 56.35 57.31 57.23 57.42 58.00 57.66 57.01 56.88 55.97 55.09 54.05 53.59 55.21 53.60 53.42 52.36 50.78 49.24 48.74 49.26 49.42 50.63 51.79 52.47 52.31 51.80 53.05 52.58 52.61 50.53 51.05 53.09 54.93 56.41 57.82 58.96 59.89 60.50 61.10 61.18 60.88
56.27 56.89 57.03 57.16 58.02 57.41 57.28 57.78 57.25 56.40 55.58 55.38 56.04 55.42 55.80 56.28 55.84 55.58 53.40 50.42 48.32 48.79 50.08 50.11 51.81 52.53 52.60 52.66 52.24 50.73 52.12 48.90 48.34 49.42 51.77 53.49 54.85 55.91 56.79 57.63 58.52 59.40 59.82
56.70 56.24 56.74 57.20 57.35 57.62 57.43 57.00 56.02 56.37 56.45 55.98 56.20 55.58 55.74 56.57 56.70 56.48 55.90 54.59 52.88 49.32 48.39 50.76 51.46 53.75 54.03 54.14 52.73 52.91 52.91 51.42 48.88 48.14 48.30 49.41 51.57 53.23 54.14 55.20 56.02 56.83 57.46
55.75 56.45 55.52 57.28 57.52 57.26 57.11 57.15 56.66 56.41 56.26 55.97 56.13 55.85 55.93 55.96 56.10 56.27 56.46 55.95 55.28 53.42 50.27 50.69 51.48 53.73 54.63 55.03 54.48 53.88 54.38 51.97 49.28 47.82 47.10 47.52 48.66 50.13 51.59 52.63 53.79 54.67 55.42
55.55 55.91 55.93 55.68 56.62 57.49 57.46 56.74 56.73 56.40 55.76 56.13 56.04 55.38 55.07 55.48 54.90 55.43 55.90 55.68 54.81 54.46 51.97 53.38 53.97 52.37 52.36 53.37 54.40 54.38 54.66 54.22 54.13 48.39 46.89 46.61 46.41 46.78 48.01 49.29 50.26 50.13 50.40
55.52 55.47 55.82 55.41 55.29 55.79 56.90 56.84 56.49 56.70 55.78 55.16 55.46 55.35 55.11 55.22 54.50 54.36 54.36 54.32 54.51 54.87 53.13 51.31 53.13 52.95 50.32 53.01 53.68 53.50 53.71 54.14 54.28 51.18 47.77 46.16 45.68 45.86 46.25 46.53 46.68 46.01 45.92
56.24 55.76 55.74 55.17 54.88 55.45 55.67 56.12 56.25 56.03 55.91 55.58 55.67 55.27 54.77 54.68 54.04 54.19 54.17 54.04 54.42 54.43 53.95 52.53 52.22 54.21 53.99 48.91 51.66 50.46 53.03 51.91 52.17 50.72 46.55 45.13 44.62 45.05 45.04 44.98 44.35 43.91 43.32
57.00 56.77 56.40 56.07 55.47 55.20 55.34 55.89 55.81 55.52 55.28 55.31 55.58 55.31 54.85 54.17 53.48 53.58 53.54 53.58 53.71 53.48 53.70 53.18 53.16 53.25 53.75 53.60 52.58 53.21 51.91 50.64 51.56 51.77 47.27 44.91 44.06 44.14 43.70 42.93 42.21 41.70 40.70
57.14 57.20 56.68 56.48 56.62 56.15 55.58 54.93 55.41 55.37 55.23 54.95 55.13 55.26 55.29 53.87 50.34 51.57 53.72 53.35 52.99 52.80 52.81 52.77 52.69 53.15 53.34 49.06 47.23 52.58 50.75 52.89 50.16 49.08 45.06 43.43 43.17 42.75 42.57 41.65 40.83 38.99 38.17
56.55 56.67 56.55 56.51 55.66 55.90 49.44 45.94 50.84 55.42 55.90 55.71 55.27 55.51 55.69 49.65 49.29 45.48 44.94 46.01 51.34 53.13 52.66 53.01 53.05 52.35 52.78 53.61 53.09 51.23 52.14 40.66 41.00 40.67 39.67 37.17 39.00 38.32 39.41 38.84 38.61 38.09 37.80
56.45 56.45 56.36 56.58 56.39 56.48 47.19 45.27 44.25 54.36 55.96 56.17 56.23 55.87 55.69 55.97 49.43 53.71 46.66 42.29 42.88 38.91 40.42 51.26 53.27 53.40 53.33 54.19 53.68 45.66 41.17 38.05 35.57 35.88 36.28 33.02 36.09 35.43 38.46 38.33 37.37 37.77 37.64
55.82 56.20 57.04 56.91 57.04 57.33 46.70 45.43 43.88 52.65 55.16 56.07 56.55 56.09 55.26 55.12 54.56 53.36 52.30 50.91 38.30 34.37 35.40 37.30 41.07 40.91 37.87 38.35 40.85 40.09 36.77 32.52 32.44 33.06 34.64 30.31 33.02 32.46 36.45 37.00 37.57 37.80 38.02
56.40 56.24 57.14 57.14 56.93 56.73 37.58 39.77 42.81 52.97 53.91 54.28 53.38 43.28 43.83 47.50 47.57 45.30 49.83 38.78 32.04 31.09 33.74 34.25 33.84 33.60 33.84 34.38 35.95 35.96 33.15 33.51 30.02 29.77 32.82 31.18 31.34 31.40 31.78 32.64 34.44 36.73 36.22
45.57 44.44 37.14 35.35 34.34 35.88 35.09 36.46 37.88 48.51 51.04 40.29 34.03 34.33 34.69 35.47 35.94 37.25 38.05 32.82 28.64 28.32 28.50 28.82 28.86 29.42 29.98 29.81 30.43 29.85 31.98 30.26 28.49 26.40 27.28 28.79 27.15 28.31 27.17 28.42 30.13 28.74 29.01

GFSMA_sfc_wetblb_075.txt.gz
Wetbulb
62.39 63.84 63.07 61.98 61.55 60.90 59.15 57.74 55.69 56.16 56.43 56.76 56.52 56.63 56.29 56.79 56.62 57.44 57.52 61.34 61.88 62.30 62.36 62.26 61.60 60.93 60.22 59.77 59.21 58.76 58.36 58.25 57.93 57.53 57.09 56.81 56.54 55.76 55.51 55.60 55.44 54.93 54.62
63.59 63.28 62.16 61.03 60.33 59.82 58.02 56.70 54.98 54.88 56.26 56.58 55.79 56.29 56.72 56.54 56.33 56.27 57.06 58.85 60.69 61.70 62.14 61.77 61.51 61.03 60.29 59.60 58.71 58.29 57.94 57.56 57.33 56.95 56.42 55.86 55.38 54.59 54.28 54.00 54.28 53.65 53.41
63.63 62.61 61.46 59.76 58.53 57.41 56.65 54.46 53.70 53.50 54.80 56.35 55.77 56.38 56.78 56.51 55.89 55.54 56.02 56.82 58.40 59.99 60.90 61.49 61.13 60.72 60.36 59.60 58.68 58.13 57.82 57.22 56.77 56.67 56.15 55.63 55.07 54.31 53.66 53.20 53.26 53.09 52.57
63.08 61.90 60.46 58.49 57.32 55.23 54.60 54.78 53.26 52.77 54.24 55.92 55.28 55.60 56.00 56.57 55.75 55.18 55.68 55.80 56.08 57.08 59.27 60.50 60.87 60.79 60.16 60.09 59.36 58.72 58.17 57.25 56.91 56.58 56.04 55.57 55.20 54.35 53.73 53.32 52.99 52.75 52.50
61.35 60.15 58.83 57.72 55.49 54.63 54.75 54.23 52.58 53.10 53.36 54.60 54.69 54.58 54.01 54.96 55.47 56.35 55.18 55.03 55.29 55.46 55.72 59.42 59.81 60.04 60.36 59.93 59.91 59.88 59.44 58.41 57.68 57.09 56.42 55.81 55.57 54.89 54.06 53.65 53.22 53.03 52.81
59.52 58.08 57.25 55.95 55.60 53.83 52.78 53.50 53.05 52.42 53.21 54.70 56.05 54.25 53.45 53.61 55.10 55.16 55.34 55.80 55.11 55.17 55.50 56.23 57.31 57.77 59.19 60.47 60.18 60.27 60.61 60.18 59.51 58.75 57.99 56.75 56.04 55.47 55.00 54.58 54.04 53.56 53.31
58.59 57.07 57.12 55.84 55.70 53.01 53.46 54.06 53.19 52.35 51.28 52.72 51.71 51.35 51.70 53.10 53.47 53.95 54.81 55.04 55.41 55.71 55.40 56.11 56.69 56.43 57.62 59.82 60.97 60.95 61.40 61.36 61.03 60.12 59.71 58.88 57.76 56.48 55.92 55.54 55.23 54.71 54.27
58.75 57.29 57.48 55.91 55.63 53.91 54.16 54.36 53.76 52.63 52.99 53.38 51.99 51.61 48.59 51.10 52.93 54.01 54.26 54.95 54.84 56.24 56.10 55.99 55.90 56.39 56.34 56.96 57.87 61.10 61.74 62.43 62.43 62.02 61.15 60.49 60.02 58.84 57.69 56.91 56.32 55.97 55.50
59.76 57.79 58.04 57.12 56.22 55.61 55.49 55.63 54.52 54.36 52.12 52.10 53.24 51.63 47.48 47.90 50.40 51.06 53.05 54.50 54.40 54.83 55.73 55.98 56.12 56.19 56.30 56.31 57.25 58.20 58.36 59.02 61.99 63.28 63.06 62.01 61.10 60.54 60.22 59.36 58.33 57.46 56.79
60.45 59.00 58.51 58.78 58.44 57.35 56.64 56.19 55.19 54.85 53.76 52.50 50.23 52.04 51.46 50.39 49.57 46.26 49.72 53.33 54.74 54.36 55.03 55.10 56.00 56.14 56.37 56.62 56.79 56.02 55.11 55.35 57.54 60.88 62.53 62.90 62.23 61.66 60.97 60.52 60.15 59.83 58.95
59.03 59.70 59.18 57.99 57.86 58.61 57.36 56.91 54.89 53.56 53.36 53.79 50.62 49.90 50.80 51.93 50.58 48.61 46.15 47.88 49.50 52.63 54.86 54.50 55.39 55.91 56.49 56.87 56.98 56.60 53.86 53.21 54.56 57.95 60.15 61.49 62.40 62.73 61.88 61.25 60.88 60.69 60.32
57.08 57.86 58.68 58.56 57.92 57.82 57.06 56.36 56.42 55.44 53.68 53.73 53.95 51.72 51.34 51.15 50.52 50.21 47.52 47.46 47.54 48.88 51.42 52.82 53.44 54.61 56.09 56.67 57.14 55.61 53.59 52.01 53.01 55.27 57.42 59.06 60.35 61.43 62.03 62.32 61.77 61.45 61.14
57.00 56.68 57.70 57.76 57.46 57.89 57.91 57.38 56.32 56.16 55.60 54.91 53.36 52.76 53.38 52.61 53.13 52.32 51.18 49.74 48.62 49.29 48.63 50.49 52.26 53.54 54.26 54.95 56.15 54.50 54.20 50.93 51.56 53.27 54.93 56.37 57.64 58.94 59.97 60.73 61.47 62.01 61.79
57.27 57.56 56.58 57.48 57.48 57.57 57.69 57.58 57.16 56.54 56.32 55.52 54.89 54.52 54.62 53.86 54.66 53.63 51.93 50.41 47.52 48.12 48.51 49.39 50.95 52.22 52.71 53.03 52.59 51.24 53.67 49.93 49.90 50.71 51.95 53.65 54.68 55.68 56.60 57.55 58.66 59.46 60.19
56.97 56.64 55.81 56.49 57.23 57.29 57.33 57.19 56.73 56.18 56.45 56.22 55.98 55.06 54.60 55.40 55.54 55.50 54.91 53.86 52.22 48.35 48.89 50.25 50.41 52.71 52.82 53.15 52.33 52.55 52.31 51.42 48.74 48.41 48.56 50.01 51.98 53.40 54.05 54.73 55.56 56.63 57.60
55.82 55.21 55.74 56.20 56.13 56.88 57.27 56.81 56.67 56.56 56.30 56.43 56.25 55.73 55.54 55.65 55.76 56.14 55.98 55.50 54.74 53.13 50.47 53.58 53.32 53.52 54.10 53.65 52.82 52.43 52.63 50.66 48.70 47.09 46.78 47.08 48.23 49.88 51.18 51.86 52.48 53.26 54.48
54.24 54.50 55.72 56.16 56.59 56.46 56.85 56.36 56.09 56.25 55.85 55.80 55.97 55.14 54.95 55.87 55.33 55.49 55.61 55.28 54.16 53.99 51.69 53.38 54.70 55.35 52.07 53.11 54.31 54.26 53.99 53.47 53.75 48.47 47.22 46.96 46.50 46.59 47.54 48.20 48.85 49.88 50.97
54.40 54.95 54.58 55.29 56.19 56.71 57.02 56.29 55.94 56.36 55.56 55.24 55.76 55.56 55.19 55.33 54.62 54.58 54.46 54.06 53.96 54.55 53.27 51.44 53.54 53.85 50.29 52.61 53.30 53.50 54.02 54.49 54.71 52.49 48.72 47.36 46.91 46.13 45.78 45.78 46.35 46.52 47.13
53.85 54.53 54.99 54.66 54.51 54.99 55.58 56.07 56.67 56.14 55.91 55.73 55.78 55.48 55.33 55.08 54.35 54.30 54.03 53.48 53.71 53.87 53.68 52.79 52.45 54.21 54.00 51.30 50.18 51.26 52.42 53.32 53.64 52.51 48.53 47.06 47.15 46.93 46.10 45.36 45.54 45.68 46.03
55.77 55.36 55.28 55.34 55.54 54.75 54.57 54.90 55.56 55.82 56.11 56.19 56.11 55.81 55.56 55.09 54.62 54.56 54.30 54.02 53.65 53.21 53.05 52.73 52.70 52.55 52.92 53.77 50.33 52.01 52.23 51.87 51.67 53.36 50.76 49.20 47.59 45.89 44.78 44.25 43.96 44.78 44.91
56.17 56.55 56.15 55.58 55.49 55.61 55.24 54.73 54.73 54.32 54.23 54.14 54.58 54.66 54.97 53.75 50.08 51.67 54.07 53.50 52.94 52.13 52.07 51.65 51.75 52.08 52.14 51.96 51.33 53.09 52.48 53.13 54.01 52.36 52.05 48.70 46.97 44.53 44.15 43.47 44.15 43.32 41.88
56.10 55.70 55.51 55.71 55.80 55.79 48.72 45.87 50.38 54.80 54.74 54.54 54.02 54.35 54.65 49.25 49.00 45.26 44.44 45.85 51.00 52.12 51.28 51.60 51.56 51.09 51.66 52.59 53.56 53.17 51.68 51.32 50.04 43.77 43.71 39.96 41.50 40.79 42.11 42.30 41.07 39.46 38.99
56.15 56.27 56.36 56.15 55.78 55.77 46.72 45.09 44.35 53.76 54.66 54.64 54.66 54.90 55.06 55.59 50.11 54.27 46.86 42.53 43.25 42.76 45.59 53.09 51.98 52.25 52.33 53.38 53.79 52.65 52.29 51.08 51.00 39.84 37.30 33.59 36.44 35.71 38.84 39.09 38.71 38.61 38.16
48.76 54.59 56.07 56.48 56.26 55.82 37.08 39.74 42.60 52.27 54.37 54.90 55.30 55.27 55.30 55.36 55.35 54.46 53.99 53.02 50.30 46.99 41.58 41.98 46.31 44.93 40.15 37.57 40.71 42.68 42.79 33.30 33.25 33.27 34.88 31.91 33.24 32.50 36.47 37.38 38.27 38.16 37.79
41.56 40.91 37.35 36.70 39.07 36.49 34.86 35.63 37.04 47.92 53.21 53.93 54.59 45.33 39.40 44.98 43.11 41.43 51.49 51.15 39.63 31.58 33.34 33.70 33.81 32.64 32.54 32.69 33.99 36.09 32.91 33.96 31.19 28.32 29.12 31.54 30.99 31.02 31.43 31.83 33.98 36.40 36.30
34.55 32.76 30.76 31.11 31.98 31.85 33.76 35.29 36.56 40.12 44.00 44.34 35.03 33.66 34.02 33.77 35.12 36.39 37.98 41.83 32.09 28.07 28.55 28.58 28.26 28.52 28.99 29.41 29.93 28.59 31.27 29.64 28.64 26.88 27.12 28.18 28.04 29.06 27.15 28.82 29.18 29.17 29.51

GFSMA_sfc_wetblb_078.txt.gz
Wetbulb
62.62 63.46 63.07 62.83 62.90 61.09 59.10 55.99 57.02 57.61 56.00 56.57 56.74 57.03 56.96 56.50 56.51 56.88 58.47 61.43 62.21 62.89 62.81 62.80 62.40 61.40 60.81 60.25 59.87 59.55 59.26 59.36 59.13 58.54 58.40 58.33 57.66 57.36 57.20 56.78 56.26 55.88 55.48
61.39 62.13 62.41 62.23 61.47 60.35 58.29 55.54 56.36 56.57 55.96 56.42 56.03 56.85 56.78 56.47 56.95 57.34 57.55 59.60 60.91 61.70 62.39 62.13 61.82 61.47 61.07 60.35 59.60 59.14 58.86 58.65 58.61 58.23 58.01 57.37 56.80 56.22 56.22 55.89 55.59 55.03 54.81
61.41 63.02 62.38 61.56 60.81 59.98 57.20 54.30 54.12 55.77 55.90 56.51 55.81 56.09 56.57 56.80 56.85 56.91 57.27 57.56 59.22 60.27 61.10 62.00 61.53 60.67 60.64 60.30 59.45 58.95 58.53 58.37 58.13 57.79 57.12 56.52 55.93 55.21 55.07 55.07 54.90 54.07 53.91
63.17 63.25 62.20 60.87 59.56 58.68 57.30 54.81 54.09 54.49 55.07 54.66 54.58 55.25 56.12 56.53 56.75 56.71 56.86 56.90 57.19 57.90 59.70 60.48 61.22 61.16 60.43 60.06 59.65 59.30 58.60 57.90 57.52 57.36 56.86 56.45 55.89 55.12 54.64 54.23 54.32 53.82 53.22
61.83 62.71 61.54 59.57 57.80 57.22 57.14 54.88 53.21 54.81 54.85 54.55 54.47 54.60 54.46 55.57 55.77 56.62 56.14 56.15 56.41 56.54 57.08 59.52 59.72 59.92 60.65 60.43 59.91 59.66 59.34 58.31 57.72 57.53 57.03 56.55 56.16 55.48 54.91 54.19 53.88 53.88 53.55
62.10 61.98 60.26 57.76 57.67 56.36 54.92 54.00 52.47 52.02 54.69 54.47 54.90 53.45 53.25 53.95 55.09 55.62 55.90 56.28 56.13 56.28 56.53 57.13 58.19 57.95 58.95 60.39 60.42 60.23 60.51 59.87 58.94 58.11 57.60 57.08 56.47 55.97 55.35 54.79 54.50 54.21 54.15
61.82 60.48 58.19 56.73 56.68 54.66 54.92 54.08 52.45 52.28 51.97 54.07 52.59 52.03 52.06 52.75 53.53 54.15 55.03 55.60 55.71 55.96 56.13 56.34 56.70 56.97 57.78 59.76 60.72 60.58 61.24 61.28 60.73 59.83 59.14 58.41 57.63 56.60 56.34 55.86 55.51 55.17 54.84
58.70 58.09 56.82 56.39 55.44 54.25 54.26 53.87 53.28 51.53 51.96 54.42 51.71 50.93 49.58 51.45 52.73 53.95 54.37 55.12 55.26 56.19 55.92 56.28 56.68 56.83 56.85 57.49 58.48 60.83 61.27 61.82 62.11 61.66 61.02 60.63 60.20 59.02 57.63 57.12 56.66 56.35 55.97
58.44 57.92 57.16 56.51 54.31 54.25 53.97 54.49 53.48 52.32 52.40 53.19 54.66 51.34 48.19 48.10 50.95 52.26 52.80 53.65 54.38 54.90 55.86 56.12 56.19 56.51 56.92 56.66 57.44 58.29 58.14 58.88 61.89 63.19 63.25 62.05 61.19 60.89 60.50 59.34 58.42 57.72 57.32
58.08 57.62 57.31 55.74 54.42 54.06 54.22 55.04 54.94 54.01 53.91 53.03 51.48 52.59 52.78 51.80 49.90 46.88 50.59 53.08 54.39 54.19 55.08 55.68 56.17 56.24 56.67 56.75 56.88 55.93 54.97 55.15 57.35 60.62 62.50 63.00 62.78 62.08 61.30 61.15 60.65 60.18 59.60
58.63 57.69 58.26 56.72 55.61 55.31 55.65 55.63 54.52 53.95 54.04 53.89 51.90 51.17 51.17 51.62 51.06 48.71 46.83 49.04 52.36 54.01 55.24 55.25 55.57 56.04 56.52 56.61 56.74 56.17 53.55 53.10 54.30 57.56 59.96 61.45 62.52 62.94 62.45 61.98 61.43 61.17 60.78
58.85 57.97 58.44 58.11 58.09 57.27 56.61 56.36 55.23 54.42 53.80 54.09 54.24 52.04 51.92 50.90 49.86 49.45 47.63 48.33 50.29 50.65 53.96 55.24 55.12 55.43 56.23 56.71 56.87 55.10 53.38 52.05 52.78 55.13 57.22 59.07 60.44 61.34 62.11 62.63 62.54 62.13 61.61
56.65 57.99 58.11 57.98 57.94 57.73 56.78 56.64 55.99 55.33 54.34 53.58 53.21 52.78 53.00 52.92 53.39 52.15 50.27 49.29 48.48 49.32 49.91 51.48 53.63 55.05 55.84 56.70 56.83 54.60 54.54 51.02 51.28 53.02 54.92 56.27 57.52 58.94 59.93 60.84 61.54 62.50 62.52
57.30 57.29 58.24 58.09 57.53 57.72 57.96 57.00 56.34 55.88 55.97 55.40 54.93 54.12 53.58 53.53 53.97 53.58 51.80 50.65 47.97 49.16 50.28 51.59 51.45 52.70 54.35 55.47 55.48 52.90 55.78 50.81 50.28 50.80 52.04 53.53 54.72 55.68 56.49 57.54 58.82 59.63 60.52
56.83 56.86 57.24 57.85 57.80 57.35 57.43 57.82 57.48 57.10 56.63 56.09 55.69 55.56 55.09 54.78 55.07 54.88 54.21 53.41 51.13 47.33 47.82 50.89 51.21 52.54 52.96 53.30 52.98 53.63 53.56 52.04 49.72 49.42 49.60 50.82 52.25 53.38 54.07 54.80 55.56 56.48 57.52
56.24 54.91 55.63 56.91 57.22 57.48 57.67 57.57 57.22 57.31 56.70 56.56 56.22 55.59 55.37 55.39 54.88 55.29 54.97 54.59 53.84 51.80 48.71 52.02 52.27 53.54 53.33 53.48 53.12 53.01 53.64 50.93 48.62 47.27 47.10 47.74 48.82 50.39 51.36 52.23 52.76 53.44 54.29
55.86 55.66 55.98 55.79 56.38 56.42 56.69 56.68 56.97 56.58 55.95 55.85 56.22 55.71 55.15 55.72 54.98 55.10 55.30 55.29 54.65 54.41 51.46 53.67 54.64 54.90 53.28 54.40 54.97 54.77 53.85 53.54 53.59 47.81 46.70 46.68 46.54 46.89 47.42 48.24 49.18 50.36 51.12
54.90 55.36 55.41 55.77 56.12 56.24 56.42 56.35 55.96 56.23 55.56 55.11 55.38 55.35 55.15 55.45 54.77 55.43 55.36 54.83 54.69 55.39 53.51 51.31 53.75 54.06 53.62 55.01 54.63 54.77 54.72 54.58 55.00 51.88 48.16 46.89 46.42 45.63 45.40 45.33 45.71 46.54 47.32
53.82 54.08 54.46 54.18 54.21 55.83 56.06 56.00 55.80 55.70 55.53 55.39 55.45 55.33 55.03 55.31 54.59 54.78 54.82 54.50 54.50 54.27 54.10 52.36 52.24 54.32 54.46 54.79 52.99 52.78 53.66 54.20 54.49 52.21 48.44 47.13 46.86 46.95 46.54 45.87 45.62 45.62 45.65
53.34 53.85 54.15 54.42 54.37 54.33 55.24 56.05 56.10 55.91 55.77 55.79 55.81 55.75 55.62 55.18 54.87 54.91 54.46 54.20 54.10 53.52 53.31 52.46 52.33 52.65 53.35 54.38 53.23 52.29 51.93 52.20 51.96 53.50 51.71 50.17 49.84 48.51 46.90 46.31 45.58 45.27 45.11
54.62 54.27 53.72 54.42 55.14 55.37 55.05 54.68 54.80 54.93 55.14 55.18 55.47 55.76 55.84 54.64 50.57 52.46 55.01 54.75 54.26 53.33 52.78 52.27 51.84 52.24 52.22 52.40 52.14 53.30 52.35 53.25 53.74 54.38 53.58 53.58 52.65 52.34 51.96 46.00 47.54 45.05 44.40
55.92 55.91 55.58 55.48 54.77 54.59 47.99 45.47 50.55 54.33 54.40 54.15 53.95 54.67 55.16 49.24 49.29 45.29 44.97 46.23 52.09 54.03 52.61 52.00 51.76 51.25 51.77 52.46 53.32 52.48 52.20 51.04 49.61 54.89 53.36 52.86 47.10 50.73 48.48 46.54 44.28 42.90 42.55
47.75 52.19 53.93 55.80 55.83 54.60 36.19 37.71 41.21 53.42 54.59 54.41 54.26 54.42 54.55 54.81 49.56 53.91 47.59 42.76 43.42 43.05 45.25 52.99 52.22 51.87 51.87 52.59 52.27 51.96 51.75 51.67 51.33 45.22 41.86 41.03 37.21 36.58 38.95 39.87 40.10 39.64 39.40
39.84 38.62 38.04 39.00 41.38 37.19 35.18 35.84 35.72 42.50 51.86 54.43 54.72 53.33 46.15 47.66 49.83 43.40 51.23 52.79 51.49 46.79 38.25 43.65 46.54 40.82 33.51 33.67 37.56 41.17 39.17 33.84 34.13 32.40 33.27 33.06 33.31 31.69 35.37 37.33 38.14 37.84 37.29
34.90 33.96 33.59 33.57 33.87 33.39 34.42 35.68 36.44 42.18 46.75 38.96 35.08 33.79 33.64 33.69 34.48 36.93 38.41 38.36 34.75 30.11 31.97 32.67 31.87 31.20 31.08 31.53 31.55 36.30 33.47 36.47 35.29 29.00 28.08 31.37 30.24 30.36 30.47 29.94 32.26 34.37 34.17
32.29 31.67 30.43 30.98 31.51 30.96 33.14 34.49 36.10 40.25 34.39 32.70 31.53 31.41 32.26 32.52 33.00 34.12 34.47 34.23 28.59 27.43 27.62 27.60 27.43 27.72 28.19 28.30 29.28 27.80 28.80 29.30 29.22 25.60 26.86 27.90 28.28 29.44 26.42 28.61 27.85 29.77 29.28

GFSMA_sfc_wetblb_081.txt.gz
Wetbulb
64.82 65.07 65.08 65.40 63.86 62.86 63.22 65.09 64.39 63.82 63.31 62.88 62.93 62.41 61.88 61.69 61.32 61.65 61.92 61.78 62.54 63.70 63.64 63.66 63.50 62.67 61.53 60.76 60.66 60.21 60.01 59.94 59.78 59.47 59.29 59.05 58.54 58.23 57.94 57.67 57.19 57.08 56.72
65.02 65.17 64.88 64.93 64.01 61.51 62.43 64.50 63.64 62.83 62.53 62.45 62.03 61.93 61.47 61.37 61.48 61.13 61.30 62.36 61.42 62.86 63.50 63.48 62.93 62.24 61.49 60.88 60.36 59.96 59.96 59.87 59.51 59.11 59.00 58.53 58.00 57.92 57.51 56.98 56.65 56.26 56.03
63.60 63.94 64.22 64.01 64.11 61.12 60.12 62.93 62.76 62.56 61.67 61.71 61.32 61.23 61.05 60.97 60.23 60.81 61.97 61.97 61.15 60.43 61.75 62.81 62.15 61.40 61.00 60.69 60.29 59.67 59.50 59.31 59.08 58.89 58.57 58.08 57.34 56.92 56.80 56.55 55.98 55.55 55.46
63.94 64.27 63.72 63.30 63.28 60.77 59.26 60.80 61.25 60.69 60.95 60.43 60.06 60.22 60.37 60.32 60.82 61.53 61.59 61.81 61.66 60.05 60.41 61.01 61.56 61.89 61.58 60.64 60.27 59.89 59.46 59.11 58.92 58.65 58.08 57.53 56.59 56.22 55.89 55.88 55.73 54.93 54.77
63.04 63.14 63.22 63.17 62.67 59.60 59.01 59.90 60.03 60.13 59.12 59.48 59.41 59.80 59.92 59.85 60.69 60.88 60.93 61.43 61.69 61.57 61.85 60.04 59.93 60.32 60.93 60.96 60.34 60.23 59.83 59.23 58.83 58.59 57.96 57.38 56.95 56.15 55.78 55.37 55.35 55.20 54.53
62.16 62.96 62.30 60.71 60.85 59.23 58.73 58.73 59.12 59.94 59.69 59.58 58.44 58.47 59.29 60.06 60.72 60.50 60.66 60.45 61.01 61.25 61.48 61.51 60.89 60.02 59.41 60.66 60.25 60.25 60.47 60.09 59.15 58.71 58.37 57.82 57.41 56.91 56.06 55.68 55.41 55.20 55.23
62.03 61.25 61.20 59.33 59.79 58.99 58.39 58.62 58.71 58.57 58.62 60.02 57.69 56.62 57.57 58.77 59.07 59.44 60.55 59.76 59.64 60.74 61.13 60.89 60.56 60.49 59.81 59.75 60.97 60.90 60.90 61.09 60.75 59.79 58.93 58.41 57.83 57.53 56.86 56.34 56.14 55.81 55.62
61.61 61.64 58.71 59.22 58.98 58.36 59.22 58.07 58.35 57.97 58.13 58.86 57.11 56.33 52.47 55.02 57.40 58.42 59.07 59.34 59.53 59.57 59.42 59.86 59.89 60.08 60.46 60.49 60.10 60.69 61.15 61.73 62.12 61.45 60.54 60.25 59.78 59.20 58.37 57.43 57.10 56.69 56.40
60.97 59.77 58.78 58.35 57.88 58.73 57.53 57.74 58.47 58.51 56.32 57.97 59.27 57.55 52.56 52.75 55.13 57.57 57.65 58.72 59.18 59.14 59.50 59.11 59.25 59.47 59.91 60.03 59.65 59.48 58.14 58.82 61.68 62.98 62.88 62.10 61.38 60.79 60.28 59.68 59.14 58.37 57.65
58.47 58.27 57.80 57.33 56.59 58.24 57.47 57.29 57.30 58.33 58.77 56.34 57.90 57.34 59.79 58.37 54.93 53.28 56.42 57.76 58.79 58.33 59.21 59.24 59.53 59.78 60.37 60.39 59.31 57.19 55.21 55.24 57.24 60.78 62.36 62.95 62.77 62.20 61.71 61.19 60.67 60.21 59.76
58.80 57.87 56.93 55.46 56.08 56.75 57.30 56.94 56.59 57.04 58.67 58.55 57.45 56.75 56.52 57.00 58.18 56.03 52.97 54.20 57.25 58.28 58.76 59.16 59.65 59.61 59.33 59.80 60.00 58.50 53.76 53.15 54.20 57.50 59.76 61.12 62.21 62.80 62.55 62.14 61.66 61.55 61.12
58.38 58.34 57.34 56.59 55.84 56.26 56.74 57.44 57.25 57.20 57.30 58.05 57.22 57.23 56.11 55.05 53.98 54.59 53.89 55.18 55.38 56.73 57.46 58.99 58.94 58.74 58.87 58.96 58.58 55.37 53.21 51.75 52.71 54.90 57.05 58.92 60.07 61.18 61.95 62.71 62.97 62.71 62.32
57.90 57.33 57.48 56.49 56.43 56.56 57.28 58.44 58.12 57.74 57.89 58.02 58.63 57.20 57.69 56.85 56.60 56.12 55.43 53.97 54.83 56.57 56.35 58.81 58.85 59.04 58.96 59.50 59.24 54.97 54.30 50.79 50.98 52.85 54.47 56.08 57.26 58.54 59.82 60.75 61.47 62.45 62.91
59.20 58.65 58.52 57.48 57.06 56.98 57.15 57.38 56.88 57.61 58.65 58.08 58.30 59.16 57.80 57.35 56.76 55.97 55.62 54.75 53.01 53.88 54.70 55.79 57.49 58.77 58.76 58.96 58.05 52.90 56.11 50.40 49.65 50.46 51.68 53.21 54.33 55.24 56.22 57.33 58.64 59.59 60.61
58.55 58.24 58.35 57.95 57.16 56.66 56.82 56.06 56.42 56.31 56.37 56.25 56.47 57.42 56.84 55.63 55.48 55.58 56.73 56.03 53.51 51.31 51.89 55.25 55.29 57.15 57.58 58.51 56.94 58.69 58.88 54.17 50.67 49.32 49.39 50.60 52.16 53.37 54.16 54.65 55.42 56.49 57.51
59.26 58.10 57.86 57.55 57.33 57.01 56.53 55.61 54.93 56.61 56.53 56.61 56.75 56.23 56.09 56.51 55.62 55.68 55.48 55.04 54.70 53.06 50.92 55.78 55.45 58.80 57.93 55.36 56.40 55.87 55.56 52.45 49.59 47.92 47.72 48.51 49.51 50.93 51.86 52.40 52.99 53.64 54.37
57.62 57.96 57.89 58.26 57.42 56.95 56.56 56.62 56.77 56.68 56.00 56.71 57.29 56.53 56.17 56.97 56.43 56.13 55.96 55.67 54.73 54.10 51.37 54.35 56.61 57.63 55.95 54.92 57.45 57.70 56.43 55.40 55.42 48.47 46.93 46.93 46.92 47.29 47.98 48.81 49.24 50.26 51.13
58.47 57.32 57.00 57.59 58.07 57.40 57.65 56.83 56.11 56.78 55.77 55.82 56.46 56.59 56.15 56.27 55.46 55.99 55.58 54.86 54.73 54.96 55.15 53.32 55.84 55.81 55.62 57.20 57.40 57.94 58.13 56.95 56.47 52.73 48.81 47.37 46.77 46.11 45.84 45.70 45.98 46.30 47.11
58.03 58.58 57.95 57.00 57.13 57.89 56.99 57.02 57.43 56.76 56.65 56.54 56.60 55.99 56.34 56.91 57.21 55.98 55.53 54.80 54.80 54.67 54.65 53.53 53.80 55.36 55.64 56.26 56.51 56.47 58.78 60.09 59.11 53.60 48.84 47.04 46.79 46.74 46.21 45.51 45.61 45.60 45.65
56.96 56.87 57.17 57.18 57.60 58.22 58.12 57.85 57.22 57.31 57.13 56.94 57.81 56.79 56.73 56.05 55.74 56.17 55.52 55.88 57.05 56.94 56.81 54.12 53.59 53.88 54.62 58.07 57.16 55.95 56.09 57.09 55.83 57.30 54.47 51.59 50.84 49.26 46.87 46.90 46.16 45.91 45.68
56.51 56.45 56.65 57.34 57.82 56.97 56.22 56.59 56.80 56.67 56.33 56.61 57.74 57.85 57.60 56.41 51.72 54.49 58.14 58.54 57.22 55.46 54.58 53.81 52.89 53.41 53.77 55.26 53.57 54.42 53.26 54.20 56.11 58.75 58.61 58.09 58.71 58.27 57.39 50.07 49.43 46.83 45.42
50.01 55.52 55.16 55.08 54.98 50.19 36.80 37.35 44.47 56.84 56.57 56.29 56.01 56.43 56.62 50.35 50.25 45.57 45.35 46.27 51.60 54.90 53.47 53.30 53.05 52.19 52.49 53.14 54.13 53.80 53.18 51.93 50.45 56.26 55.05 55.02 57.56 55.87 47.71 43.01 41.21 41.69 42.25
42.41 41.61 41.03 44.02 38.67 37.15 35.66 36.86 36.48 46.93 52.24 55.02 55.18 54.11 54.13 53.34 45.88 51.90 46.58 42.40 42.77 41.64 38.91 46.81 50.28 52.06 50.64 44.31 41.96 49.92 52.06 52.07 51.83 43.83 40.46 44.32 37.86 35.81 38.36 38.45 39.17 38.88 38.89
36.29 36.23 36.12 36.78 35.68 34.92 34.76 35.76 35.90 43.19 47.28 38.64 36.93 36.70 37.41 37.01 36.52 37.86 41.40 41.51 33.22 32.53 33.42 33.94 32.05 30.91 30.89 31.81 33.37 37.47 37.85 35.62 35.29 31.56 31.77 33.72 33.45 31.19 32.28 32.89 35.24 35.88 35.68
33.36 32.73 32.56 32.47 32.39 32.77 34.09 35.03 39.32 39.58 35.17 33.24 32.82 33.06 33.08 32.59 33.91 35.37 39.97 34.51 31.22 29.75 32.31 32.11 31.17 30.52 29.95 29.90 29.95 34.50 32.00 33.42 34.17 30.39 27.94 31.10 30.33 29.63 29.02 28.74 31.18 33.27 33.58
31.49 31.18 30.13 30.86 31.08 30.89 32.61 33.76 35.70 34.81 31.24 29.86 29.19 29.70 31.11 30.98 31.32 31.95 33.42 32.37 27.11 26.86 27.45 26.78 26.70 26.35 27.37 27.57 27.88 26.56 28.26 26.77 27.16 25.65 26.33 27.77 29.52 30.35 27.93 29.64 29.86 30.60 30.84

GFSMA_sfc_wetblb_087.txt.gz
Wetbulb
68.52 68.03 66.93 67.12 67.54 68.35 65.50 63.48 64.19 66.22 67.38 67.18 66.87 66.41 63.96 65.81 65.06 65.31 64.35 63.11 64.01 64.90 64.24 63.85 62.99 62.57 62.72 62.75 61.91 61.46 60.93 60.79 60.46 60.66 60.50 60.24 60.02 59.86 59.50 59.31 59.11 58.92 58.64
68.52 67.87 67.12 66.95 67.65 67.68 66.44 63.40 63.90 64.52 67.00 66.89 65.68 65.19 65.00 64.86 64.56 64.16 64.10 63.30 62.35 63.39 63.78 63.32 63.36 63.53 63.12 62.58 61.69 61.02 60.52 60.66 60.27 60.36 60.10 59.61 59.33 59.09 58.91 58.68 58.25 58.06 57.73
67.77 67.77 67.14 67.35 65.99 66.38 66.77 63.47 63.42 64.06 65.30 65.11 63.58 64.43 64.05 64.24 63.47 63.04 63.32 63.29 62.30 61.02 62.16 63.71 64.11 63.45 62.27 61.40 60.96 60.74 60.16 60.40 60.40 60.22 59.90 59.45 58.92 58.68 58.39 58.07 57.75 57.39 57.36
67.36 67.34 66.69 66.57 66.83 65.60 65.43 62.67 62.96 62.10 62.63 62.91 62.88 62.09 63.44 63.10 62.88 62.63 62.83 62.56 62.29 61.31 61.53 62.30 63.09 63.24 62.41 61.40 61.17 61.07 60.83 60.78 60.45 60.15 59.97 59.48 59.02 58.58 58.25 57.91 57.59 57.16 56.95
66.42 66.38 66.07 65.76 65.65 64.94 64.52 63.54 62.43 62.01 62.15 61.83 61.99 62.57 62.53 61.45 61.81 61.60 62.40 62.24 62.42 62.28 62.26 61.26 61.11 60.98 61.92 62.18 61.26 61.10 61.07 60.61 60.27 59.99 59.86 59.50 58.88 58.25 58.00 57.77 57.47 57.13 56.81
65.11 64.85 64.32 64.20 63.85 64.21 64.17 63.31 61.65 61.84 62.42 61.99 61.06 61.10 61.96 61.96 61.91 61.27 61.46 62.20 62.25 62.14 62.59 62.38 61.80 60.47 60.20 61.50 61.99 61.17 61.38 60.98 60.61 60.41 59.98 59.49 59.17 58.40 57.65 57.42 57.26 57.32 57.09
64.58 64.28 63.96 63.77 63.05 63.31 62.66 62.64 61.57 60.31 60.03 61.21 59.72 59.60 60.28 60.95 61.31 61.10 61.87 61.24 62.02 61.51 62.49 62.71 61.68 61.00 60.11 60.42 61.60 61.35 61.66 61.71 61.19 60.71 60.37 59.87 59.30 59.04 58.57 57.61 57.34 57.19 57.13
63.47 62.93 62.96 62.76 62.25 61.95 61.43 61.16 60.85 59.70 60.02 61.50 59.21 57.39 54.47 56.29 59.23 60.56 61.37 60.99 62.41 61.36 61.32 62.43 62.44 61.37 61.82 60.73 59.96 61.26 61.50 62.03 62.04 61.37 60.69 60.84 60.58 60.01 59.43 58.57 58.25 57.85 57.57
65.39 64.65 64.06 62.82 61.32 62.12 60.41 60.26 60.75 59.81 57.77 60.36 61.84 58.29 53.86 52.88 56.54 59.17 60.30 60.35 61.43 61.05 61.57 61.37 61.33 61.60 61.83 61.91 60.16 59.67 58.26 58.82 61.72 62.91 62.31 61.44 60.99 60.85 60.63 60.12 59.75 59.45 58.62
64.38 64.49 63.90 62.62 61.75 60.85 59.80 60.13 61.03 60.42 59.81 59.31 59.95 60.35 60.60 59.46 55.39 54.37 59.14 59.75 60.89 60.42 61.98 61.59 61.53 61.32 61.80 61.31 60.33 57.64 55.65 55.48 57.15 61.20 62.70 62.76 62.12 61.43 61.22 61.07 60.83 60.44 60.33
62.09 62.54 61.51 61.31 60.39 60.30 59.76 59.96 59.29 60.15 60.42 60.87 59.13 60.20 60.00 60.38 59.81 56.95 54.27 56.96 58.64 61.09 61.49 61.90 61.59 61.76 61.78 62.06 62.05 59.70 53.84 53.55 54.68 57.62 60.21 62.29 63.26 62.94 62.20 61.85 61.70 61.41 61.26
60.08 59.13 59.07 60.34 60.27 59.43 58.82 59.28 59.26 59.48 60.42 60.96 60.54 60.75 59.72 58.06 58.32 57.99 56.30 57.30 57.53 59.50 61.53 62.55 62.19 61.95 62.48 62.20 60.56 56.45 53.63 51.95 52.78 55.22 57.33 59.20 60.89 62.04 62.77 63.05 63.09 63.01 62.55
58.53 57.43 57.27 57.29 58.60 59.05 58.86 59.32 59.45 60.11 61.04 60.44 60.82 59.88 61.53 60.93 60.89 60.09 58.98 56.16 56.12 58.65 59.56 62.24 62.96 63.18 62.56 63.81 63.13 56.15 53.98 50.66 51.08 53.03 54.78 56.40 57.43 58.76 59.81 60.72 61.39 62.24 62.66
59.18 58.18 57.20 56.85 57.57 58.17 58.49 58.77 59.35 59.88 60.78 61.11 60.75 60.75 60.22 60.72 61.44 60.19 58.60 56.80 54.63 55.58 57.60 59.07 61.88 62.39 63.16 63.34 61.48 54.07 60.88 50.87 50.21 50.68 51.73 53.35 54.59 55.20 56.14 57.28 58.16 59.16 60.09
59.77 59.21 58.30 57.10 56.79 57.51 57.87 57.73 57.75 57.71 58.90 60.84 60.74 59.82 59.92 60.31 61.47 60.71 60.47 59.54 56.79 52.75 53.51 57.04 56.96 62.39 62.64 62.99 60.84 62.52 62.78 56.67 50.29 49.28 49.39 50.58 52.24 53.29 53.70 54.37 55.12 56.02 56.94
60.96 60.35 58.01 58.48 56.90 56.79 57.45 57.58 57.21 57.59 57.56 58.14 59.12 59.22 60.18 60.23 59.56 59.37 60.14 60.00 58.82 56.23 52.15 55.37 57.75 58.74 61.27 60.01 59.61 60.48 62.36 54.76 50.70 48.50 47.90 48.38 49.29 50.82 51.69 52.12 52.81 53.44 54.09
61.39 60.96 59.64 57.89 56.87 56.63 56.60 56.60 56.10 55.65 55.29 55.82 57.64 58.15 57.50 58.55 58.51 60.29 60.08 60.13 58.97 57.90 54.51 56.11 56.20 56.29 56.51 56.39 57.58 57.92 57.35 57.95 58.40 50.06 47.87 47.58 47.76 48.20 48.89 49.04 49.59 50.73 51.65
60.74 59.80 60.51 58.90 57.15 56.34 56.14 55.54 55.36 55.07 54.64 55.22 56.43 56.44 56.16 56.20 56.64 57.70 57.91 57.18 57.03 57.60 55.12 52.24 54.57 55.09 55.38 56.54 56.46 56.43 57.08 58.13 57.56 54.01 49.20 48.65 48.27 47.26 47.12 46.55 46.72 47.15 47.59
59.78 60.45 59.54 58.64 57.70 56.75 55.89 55.45 55.22 55.12 54.31 54.43 54.87 55.24 55.79 56.27 56.27 56.45 56.78 55.69 56.23 55.82 55.45 54.15 53.16 55.58 57.56 57.50 56.79 57.11 57.43 58.17 58.91 55.11 49.32 47.26 47.18 47.03 46.92 46.23 46.16 46.18 45.96
58.83 58.77 59.15 59.34 58.37 57.80 56.93 56.35 55.28 54.06 53.74 54.33 54.76 55.85 56.02 54.59 55.23 55.47 55.88 54.91 54.70 54.25 54.29 53.98 53.98 54.54 56.13 58.84 58.32 57.41 57.87 59.76 59.19 60.83 56.52 52.65 50.61 47.30 42.32 42.13 42.13 42.22 42.64
55.75 56.21 57.94 58.02 55.09 45.34 41.08 44.01 53.05 55.69 56.04 55.32 55.65 56.25 56.55 54.62 50.17 51.67 55.25 55.49 56.21 55.32 54.51 53.93 54.06 54.65 54.85 55.11 55.00 56.68 55.78 56.65 58.68 47.68 48.60 48.80 43.86 41.04 38.55 39.28 39.47 40.01 40.41
43.90 44.22 42.97 42.19 41.50 39.46 36.12 37.45 41.29 52.96 52.27 51.56 52.25 50.65 48.98 42.54 42.22 37.74 36.89 37.14 36.89 44.28 48.04 51.31 52.84 52.76 51.63 39.34 38.53 40.97 42.63 43.41 45.15 38.88 40.92 42.74 38.79 35.35 35.52 35.10 36.45 37.14 37.54
38.72 37.92 37.85 37.80 36.64 36.73 36.49 37.90 39.03 44.68 40.75 39.46 38.54 38.67 40.23 38.83 38.08 40.85 35.58 34.07 32.84 32.81 32.12 36.82 38.65 31.26 32.54 31.41 32.91 36.34 39.55 39.55 40.01 33.42 35.88 38.60 36.46 32.28 32.91 33.71 35.04 35.12 35.20
34.77 34.69 34.71 34.64 34.52 35.35 36.50 35.94 35.20 35.40 33.92 33.58 33.37 33.53 33.87 34.03 35.34 37.89 34.29 30.78 29.96 30.55 30.70 30.78 30.06 29.74 30.04 30.99 31.96 33.81 35.51 35.25 35.10 31.38 30.53 33.44 33.32 30.30 32.12 32.50 33.41 33.87 34.08
32.67 32.54 33.43 33.24 32.57 33.34 35.18 34.92 34.17 32.92 31.61 30.96 31.21 32.08 31.99 31.90 34.40 37.10 32.30 28.95 28.17 27.77 30.82 31.68 31.71 31.22 31.04 31.10 31.45 32.90 32.42 33.83 32.79 30.61 30.27 30.50 33.14 32.22 31.85 32.46 33.51 32.66 32.18
32.37 32.20 31.53 32.46 32.57 31.39 33.93 34.27 33.91 32.62 30.21 29.69 30.08 30.34 31.29 31.53 32.78 32.77 31.43 29.83 27.53 28.36 30.47 31.73 32.20 32.46 32.34 31.57 30.24 31.06 31.20 31.40 31.93 32.58 29.64 28.25 32.43 33.38 32.68 34.38 34.24 34.20 34.24

GFSMA_sfc_wetblb_090.txt.gz
Wetbulb
66.80 66.91 66.62 66.03 65.32 65.71 64.98 64.91 64.65 63.99 64.17 65.57 65.45 64.37 63.73 62.92 64.18 63.32 62.79 63.68 64.24 65.31 64.75 64.53 64.30 63.68 62.71 61.88 61.41 61.50 60.80 60.87 61.05 61.30 60.82 60.55 60.83 60.61 59.99 60.00 60.05 59.27 59.15
66.76 66.52 65.84 65.14 65.31 65.58 64.62 64.19 63.36 62.75 63.27 64.45 64.61 64.19 63.35 62.89 63.15 62.42 61.87 62.06 62.89 63.93 64.43 64.23 63.43 63.17 63.04 62.61 61.51 61.13 60.72 60.54 60.54 60.49 60.68 60.27 60.08 59.83 59.93 59.17 58.90 58.51 58.41
66.53 65.84 65.27 64.93 64.89 65.47 64.49 63.09 62.80 62.72 62.45 64.01 63.63 63.30 63.73 62.18 62.19 61.29 60.97 61.24 61.01 61.58 62.29 63.34 63.79 63.63 62.85 62.54 61.51 60.88 60.65 60.91 60.55 60.25 60.47 59.81 59.40 59.34 59.16 58.75 58.31 58.17 58.01
66.18 65.74 64.71 64.58 65.27 64.93 64.11 62.36 62.16 61.92 62.66 63.02 62.23 62.34 61.06 60.95 59.78 60.49 60.78 60.66 60.02 59.76 60.65 62.15 63.29 63.66 63.33 62.04 61.79 61.08 60.61 60.46 60.49 60.31 60.37 59.67 59.45 59.24 58.93 58.31 58.03 57.80 57.48
66.08 65.29 64.54 64.82 64.65 64.34 63.52 62.45 61.66 61.36 61.02 61.18 61.31 59.74 59.62 59.78 58.92 59.63 60.43 59.72 59.35 59.04 59.98 61.02 61.51 61.47 62.11 62.25 60.94 61.37 61.11 61.15 60.93 60.71 60.45 59.86 59.43 59.18 58.91 58.55 58.19 57.91 57.54
65.53 65.02 64.42 64.23 64.17 63.17 62.86 62.41 61.66 61.61 61.00 60.94 61.71 59.50 58.83 58.06 57.99 57.43 59.87 60.14 59.06 59.56 60.08 60.28 59.61 59.64 60.33 61.54 61.61 61.41 61.79 61.71 61.36 60.89 60.50 60.24 59.79 59.24 58.78 58.65 58.31 58.10 57.76
64.76 64.51 63.58 63.77 63.60 62.71 62.31 62.30 61.37 59.80 60.01 61.24 59.00 56.42 57.90 58.14 57.26 56.92 58.49 59.26 59.51 59.52 59.45 59.77 59.33 58.58 58.42 60.26 61.55 62.07 61.76 61.93 61.50 61.32 60.91 60.38 60.18 60.13 59.19 58.42 58.16 57.95 57.93
64.20 63.37 63.00 62.54 62.47 62.10 62.17 61.67 60.61 59.04 59.26 60.38 57.33 55.61 52.87 55.12 57.66 57.68 57.59 57.69 59.43 58.69 58.11 60.04 59.17 58.48 57.76 57.91 57.82 61.64 61.69 61.95 61.91 61.47 61.28 61.45 60.97 60.52 59.83 58.76 58.46 58.14 58.14
63.76 63.35 62.90 62.69 62.25 62.17 61.64 61.51 60.75 58.83 57.48 59.34 59.55 55.40 52.12 50.59 54.27 57.25 57.25 56.89 57.36 59.17 57.44 59.90 60.00 59.13 58.08 57.69 58.25 58.85 58.59 58.98 61.87 62.80 62.35 61.68 61.46 61.17 60.54 59.96 59.77 59.12 58.80
63.27 63.13 62.91 62.79 62.24 61.89 61.25 61.17 61.47 60.00 58.67 57.33 58.50 58.58 56.87 55.93 52.35 52.32 56.23 56.99 57.58 58.21 57.38 58.09 57.35 58.48 58.78 58.75 58.14 56.60 55.33 55.21 57.44 60.71 61.95 62.55 62.18 61.62 61.30 61.10 60.89 60.65 60.54
63.05 62.71 62.90 62.49 61.80 61.16 60.80 61.13 60.62 59.98 59.33 58.25 57.56 57.10 55.87 56.47 56.00 53.97 51.57 54.87 56.19 56.99 57.06 57.70 57.74 57.74 58.41 58.99 57.87 57.15 54.23 53.41 54.45 57.80 60.13 61.73 62.73 62.34 62.04 61.84 61.62 61.58 61.45
59.74 59.22 60.31 61.18 61.20 61.16 60.12 60.47 60.86 60.36 59.35 58.94 58.69 57.66 56.32 54.44 54.80 54.80 52.43 54.08 54.27 56.00 57.74 57.73 56.96 58.06 57.86 57.53 58.65 55.89 52.95 52.14 52.71 55.15 57.65 59.31 60.60 61.73 62.80 62.95 62.39 62.26 62.23
58.14 57.58 57.93 59.02 59.98 60.47 60.16 60.18 60.13 60.22 59.35 58.47 58.65 58.08 58.38 57.46 57.80 56.59 55.57 54.65 54.29 55.24 56.18 57.93 58.54 58.01 59.08 58.44 58.03 55.04 54.11 50.44 50.94 53.17 55.05 56.52 57.68 58.73 59.88 61.14 62.40 63.22 63.35
58.37 58.07 57.53 57.63 58.28 59.18 59.03 59.61 59.51 59.39 58.93 58.27 58.94 58.63 58.31 58.43 57.72 56.83 55.37 53.95 52.29 53.10 55.06 55.78 58.44 59.17 59.59 59.43 58.65 53.85 57.82 50.18 49.51 50.27 51.85 53.55 54.68 55.58 56.34 57.23 58.27 59.22 60.05
58.84 58.30 57.79 57.03 57.51 58.14 58.60 58.84 58.74 57.93 58.22 58.80 59.16 58.78 58.02 57.74 58.26 57.89 57.38 56.68 52.86 48.81 50.51 55.07 54.67 59.10 59.64 60.37 58.50 59.23 58.78 52.71 49.33 48.75 48.95 50.18 52.08 53.44 53.94 54.53 55.31 56.00 57.07
59.59 58.26 57.65 57.14 56.97 57.37 57.61 57.81 57.67 58.61 58.16 59.11 58.96 58.32 57.40 57.66 57.59 57.31 56.94 57.01 56.05 53.41 49.91 53.22 53.25 55.49 58.32 58.55 58.25 58.78 59.08 54.98 50.75 48.83 48.25 48.48 49.48 51.18 51.88 52.28 52.95 53.26 54.13
60.33 59.23 58.17 57.00 56.67 56.53 57.11 56.77 56.83 56.79 56.53 56.61 56.95 56.73 56.59 57.31 56.78 57.04 56.89 56.83 56.05 55.64 52.68 53.54 54.32 54.43 54.24 55.62 56.01 56.26 56.36 55.96 56.68 49.21 47.50 47.41 47.32 47.50 48.46 49.15 49.79 50.69 51.48
60.47 59.57 58.81 57.69 56.56 56.27 56.37 55.77 55.29 55.33 54.88 54.65 55.13 55.43 55.47 56.07 55.43 56.01 56.15 55.79 56.01 56.41 53.92 51.94 53.69 52.97 53.22 54.41 54.88 54.96 55.93 56.67 56.77 53.05 49.61 48.73 47.91 46.80 46.45 46.52 46.61 46.25 46.25
59.19 59.37 59.24 57.63 56.64 56.17 55.47 55.15 54.82 54.25 53.89 53.83 54.49 54.60 54.78 55.14 54.68 54.95 55.35 54.87 54.81 54.98 54.91 53.62 52.84 53.32 53.57 53.90 54.58 55.70 55.64 56.10 57.59 53.83 49.64 47.03 45.95 45.06 43.62 42.56 42.44 42.48 42.95
58.42 59.01 58.92 58.20 57.20 55.93 55.51 55.21 54.76 54.59 54.51 54.51 55.04 54.80 55.17 55.30 54.90 54.96 55.02 54.92 54.68 54.07 54.02 53.56 52.89 52.48 53.03 54.90 54.50 54.51 54.49 55.72 55.78 56.18 47.19 43.05 41.75 40.67 40.23 40.23 40.24 40.63 40.81
48.61 48.24 47.01 45.71 44.39 42.63 40.41 44.58 53.88 54.13 53.02 52.97 53.31 53.50 53.10 46.48 41.73 43.96 52.12 53.72 54.11 53.33 52.85 52.20 52.12 52.90 53.12 53.34 49.65 44.16 46.59 47.55 43.97 40.88 45.97 43.18 41.00 38.89 37.37 37.47 38.33 38.51 38.36
42.20 41.52 40.27 40.09 39.74 40.79 37.37 38.17 44.53 47.69 48.16 47.78 46.82 46.28 42.41 41.17 37.03 35.76 35.58 34.37 35.81 41.93 45.81 46.13 48.39 42.44 40.58 37.44 36.80 38.21 40.62 42.34 42.04 35.92 38.28 41.23 38.33 34.19 34.48 35.31 36.23 36.47 36.76
37.40 36.65 37.13 37.61 36.79 36.63 36.38 37.96 38.37 39.48 37.64 37.20 37.05 38.13 38.90 38.07 39.40 35.33 33.65 33.07 32.68 32.65 32.17 38.12 32.53 31.24 31.32 31.44 32.58 35.59 37.18 37.35 37.57 31.92 33.96 36.02 35.17 31.87 32.97 34.18 35.24 35.40 35.20
34.51 34.05 33.97 34.94 34.99 34.88 34.93 34.85 34.45 34.06 33.16 32.85 33.20 33.74 34.11 35.61 37.44 34.82 32.16 30.66 30.43 31.02 30.79 31.02 30.26 29.67 30.14 31.17 31.84 33.90 34.37 34.59 32.47 30.56 30.15 31.27 31.68 28.84 30.33 30.73 33.72 33.70 33.37
32.73 32.33 32.45 32.42 33.04 33.41 34.64 34.11 33.31 31.81 30.64 30.30 31.41 32.29 32.40 32.36 34.13 34.11 30.86 28.56 28.12 28.63 32.52 32.92 32.61 31.91 31.26 31.00 31.21 30.99 30.38 31.93 31.30 29.05 25.85 27.27 32.26 31.82 31.12 31.41 32.69 33.15 32.81
31.15 30.55 30.10 31.17 31.90 31.65 34.39 34.23 32.93 31.40 29.40 28.89 29.56 30.30 32.21 32.16 33.16 32.55 30.41 29.37 28.09 29.40 30.68 30.82 30.44 30.82 30.57 30.13 29.95 26.89 27.84 28.19 29.09 28.08 22.48 26.06 30.10 30.45 29.66 32.32 31.89 27.26 27.09

GFSMA_sfc_wetblb_093.txt.gz
Wetbulb
65.50 65.62 64.47 64.36 63.93 63.63 63.35 63.46 63.89 64.09 63.87 65.19 65.29 64.34 62.97 62.68 62.40 63.19 63.75 63.90 64.48 65.67 65.30 65.47 65.01 64.48 64.10 63.26 63.38 62.59 62.13 61.37 61.88 61.62 61.39 61.17 61.14 60.49 59.95 59.91 59.88 59.62 59.48
65.25 64.84 64.45 64.64 64.01 63.96 63.75 63.31 63.55 63.35 62.59 64.01 64.03 63.72 62.51 62.93 62.25 62.45 62.80 62.78 62.82 63.92 64.69 64.87 64.39 63.87 63.27 62.38 62.64 62.14 60.92 61.25 61.31 61.25 60.77 60.62 60.94 60.70 60.39 59.69 59.65 59.11 59.04
64.51 64.01 63.59 63.57 64.12 64.09 63.08 62.76 62.39 62.29 62.11 63.51 62.84 63.16 62.58 62.56 61.89 61.65 62.33 61.88 62.12 61.85 62.84 63.90 63.99 63.30 62.59 62.47 61.27 61.20 60.69 61.06 60.49 61.22 60.70 60.49 60.20 59.89 59.65 59.44 59.18 58.84 58.85
64.68 63.43 62.90 62.53 64.23 63.32 62.42 61.81 61.43 61.06 61.06 61.35 61.25 62.54 62.84 61.82 61.08 60.62 60.93 60.75 60.44 60.73 61.07 61.97 62.68 63.13 63.28 62.23 61.78 61.41 61.07 60.46 60.78 60.75 60.69 60.17 59.90 59.69 59.33 59.19 58.78 58.50 58.39
64.46 63.27 62.69 62.72 63.60 63.00 61.76 61.25 60.95 61.31 60.59 60.85 61.59 62.42 61.11 60.90 60.19 60.61 59.83 59.65 58.70 57.88 58.30 60.74 61.12 61.56 62.44 62.66 61.67 61.48 61.38 60.81 60.85 60.68 60.72 60.06 59.84 59.50 59.25 58.82 58.55 58.16 58.10
63.55 62.96 62.57 62.41 62.97 62.66 62.24 61.27 60.28 60.93 60.79 60.84 62.25 61.63 59.85 59.33 59.76 59.39 58.76 59.52 58.44 58.15 58.62 59.88 60.79 59.35 60.31 61.89 61.94 61.51 61.86 61.66 61.51 61.42 60.98 60.35 59.88 59.55 59.46 59.02 58.74 58.40 58.06
62.59 62.13 62.19 61.69 62.83 61.98 61.26 60.93 60.78 60.36 60.06 60.92 59.28 57.35 57.70 56.84 57.60 58.19 58.47 57.78 57.52 58.12 58.47 58.84 59.24 58.23 58.73 60.37 61.48 61.87 62.24 62.35 62.02 61.53 60.98 60.58 60.16 60.02 59.42 59.19 58.91 58.65 58.48
62.10 62.05 62.16 62.57 62.07 61.00 60.76 61.55 61.12 59.77 59.78 60.99 57.57 55.77 52.93 54.70 56.36 55.31 57.38 57.69 57.14 58.44 58.51 58.79 58.61 57.76 56.54 57.05 57.50 61.45 61.76 62.16 62.19 61.68 61.37 61.47 61.08 60.69 59.72 59.40 59.04 58.76 58.53
62.58 62.06 62.61 62.60 62.39 62.26 61.57 61.33 60.80 59.62 58.04 59.77 59.35 55.73 51.61 50.57 53.62 55.25 55.08 57.12 56.71 56.88 57.59 58.52 58.18 57.99 56.89 56.72 57.94 58.76 58.50 58.91 61.90 62.39 62.18 61.63 61.53 61.21 60.69 59.98 59.40 58.97 58.93
63.24 62.49 62.51 62.10 62.09 61.57 61.28 61.54 60.98 59.51 58.73 57.40 58.89 59.48 56.38 55.46 51.35 50.27 54.28 55.29 56.78 57.70 55.97 58.18 58.14 57.95 57.45 56.74 57.01 56.34 55.58 55.44 57.51 61.34 62.43 62.56 62.14 61.90 61.58 61.30 60.84 60.48 60.17
62.19 62.36 62.10 60.61 61.61 61.69 61.51 61.72 60.59 59.55 59.13 57.98 57.79 57.43 55.88 55.30 55.07 52.24 50.08 53.09 55.05 56.27 56.38 57.09 58.12 58.01 57.66 57.50 56.56 56.18 54.09 53.72 54.66 58.40 60.56 62.21 63.03 62.36 61.99 61.71 61.58 61.49 61.32
61.57 61.12 62.02 61.83 61.04 61.25 61.16 61.26 61.30 60.06 59.15 59.06 58.72 57.84 55.90 54.23 53.83 52.57 51.55 52.75 52.94 54.54 55.69 55.51 55.96 56.49 56.60 57.23 57.84 55.78 53.31 52.05 52.82 55.38 57.93 59.60 60.97 62.03 62.65 62.43 62.17 62.14 62.12
57.43 57.70 58.23 58.65 59.74 61.13 60.91 61.11 60.97 60.44 59.42 58.72 58.37 57.58 57.58 55.92 56.30 55.54 54.24 53.09 52.67 53.89 54.37 55.46 55.92 56.40 57.43 56.70 56.94 55.02 53.68 50.98 51.07 53.09 55.10 56.61 57.91 59.35 60.40 61.31 62.51 62.99 62.88
57.55 57.47 57.02 57.61 58.61 58.49 59.99 60.56 60.43 60.34 59.77 59.02 58.58 58.28 58.21 57.66 57.03 56.32 55.41 54.05 51.92 52.80 53.97 54.69 57.29 56.73 56.95 57.68 56.85 53.09 55.45 50.28 50.16 50.59 51.95 53.66 54.89 55.89 56.85 57.83 58.89 59.78 60.84
57.00 56.68 56.94 57.19 57.65 58.31 59.25 59.55 59.64 59.64 59.86 59.06 58.85 58.70 58.01 57.90 57.45 56.99 56.36 55.17 53.29 49.92 52.19 54.34 55.07 58.34 58.63 58.55 57.51 57.35 56.68 53.50 49.54 49.12 48.78 50.54 52.22 53.70 54.03 54.86 55.64 56.40 57.59
58.29 57.49 56.64 56.62 57.05 57.45 57.95 58.43 58.01 58.85 58.87 58.78 58.63 58.30 58.27 57.27 56.95 56.68 55.95 56.13 54.93 51.65 49.18 52.62 53.82 56.14 58.58 59.35 58.07 58.90 58.78 54.75 50.35 48.67 48.15 48.54 49.84 51.12 51.88 52.64 53.10 53.65 54.60
57.06 57.11 56.89 56.32 56.38 56.70 57.07 56.89 57.47 57.63 57.11 57.58 57.99 58.07 57.54 57.10 56.32 56.30 56.08 55.99 54.78 54.70 51.16 52.77 53.21 54.54 54.89 55.68 55.97 56.19 55.66 56.44 56.30 49.22 48.19 48.10 48.12 48.32 48.82 49.77 49.80 50.41 51.00
58.65 57.88 56.98 56.20 55.77 56.50 56.56 56.06 56.14 56.44 57.14 57.23 57.66 57.58 56.28 56.14 55.74 55.33 55.05 55.03 55.19 55.45 53.39 51.69 53.36 53.37 52.67 53.33 54.23 54.39 54.89 55.95 56.08 52.57 49.05 46.05 44.84 44.62 44.42 43.70 43.78 43.99 44.37
59.20 58.13 57.40 56.30 55.53 55.95 55.72 55.26 55.20 55.02 54.88 55.16 55.16 55.01 55.18 55.14 54.40 54.56 54.38 54.08 54.87 54.76 54.41 52.95 52.54 53.68 53.91 53.89 54.03 54.21 54.49 55.31 56.32 52.36 43.23 41.47 41.59 41.47 41.60 41.08 41.39 41.75 41.96
57.63 57.64 57.02 56.34 55.15 55.01 55.31 55.23 54.66 54.15 53.89 54.04 54.56 54.38 54.48 54.15 54.15 54.43 54.35 54.21 54.08 54.06 53.66 53.45 52.78 52.55 53.00 53.21 53.35 52.08 53.01 48.33 46.14 48.54 43.05 40.85 40.40 39.98 39.86 39.80 39.93 39.94 39.96
47.50 47.84 46.39 45.51 44.94 44.11 42.41 48.55 54.61 54.23 53.63 53.58 54.14 52.44 45.86 44.02 41.20 42.84 53.44 53.90 53.90 53.39 52.88 52.46 51.99 52.16 51.48 44.76 44.00 43.15 44.64 46.01 39.72 38.66 44.19 41.33 38.82 37.61 37.36 37.74 38.25 38.47 38.11
41.02 41.25 40.56 40.61 40.28 40.17 38.40 40.13 47.28 46.76 46.69 49.20 45.43 42.96 40.68 38.18 36.24 35.60 35.51 34.52 35.55 44.83 49.51 49.14 43.97 42.26 37.18 35.62 37.32 37.94 40.03 41.72 41.56 34.07 36.59 36.45 36.40 33.71 34.57 35.69 36.62 36.46 36.44
37.43 37.19 37.03 36.54 35.72 36.30 36.72 37.37 37.46 38.41 37.51 37.08 37.99 39.17 39.23 36.96 35.90 34.44 33.43 33.24 32.99 33.05 33.64 38.37 33.67 32.04 31.31 31.28 32.72 36.06 36.10 36.81 33.37 29.90 32.43 33.37 34.49 31.34 33.68 34.49 35.12 34.90 34.38
34.10 34.32 34.49 34.90 34.61 34.44 34.66 34.84 34.35 34.17 33.62 33.55 34.00 35.06 37.05 37.19 34.66 33.34 31.97 30.94 30.96 31.20 31.13 31.21 30.36 29.82 30.36 31.33 32.39 34.40 34.85 32.06 30.92 27.88 27.90 30.46 30.63 28.97 31.10 29.18 33.97 33.45 33.44
31.94 31.88 32.46 33.31 33.11 33.16 34.07 33.54 32.78 31.60 30.99 31.26 32.71 32.95 32.89 33.07 33.49 33.80 30.90 29.53 29.73 30.55 32.62 32.64 32.11 31.25 30.96 31.08 30.60 31.90 29.75 32.31 30.35 26.27 20.49 27.06 30.51 22.37 30.47 30.78 30.86 33.57 33.14
30.01 29.94 29.62 31.11 32.58 32.54 33.49 33.06 32.21 30.55 28.88 29.20 30.67 31.66 32.81 32.10 32.68 32.41 31.18 30.41 28.77 29.14 29.65 29.29 29.03 29.52 28.31 26.76 29.33 24.01 21.83 23.47 20.59 22.03 19.43 25.74 28.63 24.54 22.53 31.44 29.57 27.47 22.29

GFSMA_sfc_wetblb_096.txt.gz
Wetbulb
64.60 64.40 64.08 63.38 63.18 63.74 63.48 62.32 62.11 62.56 63.64 64.88 64.86 64.12 63.49 63.72 63.60 63.81 64.43 64.04 65.24 66.98 67.41 67.64 67.51 67.15 66.00 64.99 64.75 63.70 62.88 62.44 61.99 61.26 60.87 61.20 61.56 61.08 59.91 60.31 60.64 60.50 59.98
64.85 64.49 64.43 63.63 63.13 63.38 63.73 63.23 62.53 62.42 62.13 64.16 64.25 63.81 63.25 63.06 63.25 62.81 63.51 63.45 63.36 64.74 65.72 66.23 66.53 65.88 65.44 64.63 63.73 63.37 62.57 62.28 61.86 61.07 60.65 61.27 61.16 60.81 60.73 60.60 59.88 59.60 59.55
64.95 64.54 64.42 64.26 63.40 63.50 62.86 62.30 61.64 61.89 61.34 63.48 62.88 63.08 63.12 62.79 62.22 62.17 62.67 62.26 62.18 62.07 63.21 64.80 65.24 64.69 63.99 63.30 62.81 62.04 62.09 62.22 61.67 60.97 61.04 60.85 60.38 60.10 59.91 59.93 59.48 59.24 59.22
64.51 63.86 63.58 63.54 64.10 63.76 63.09 62.41 61.93 61.49 60.77 61.29 61.17 61.74 62.20 62.44 62.19 61.79 62.10 61.34 60.92 61.29 61.34 62.55 63.58 63.82 63.53 62.10 61.90 60.95 60.80 61.12 61.70 60.84 60.27 60.59 60.07 59.91 59.70 59.59 59.36 58.99 58.90
64.18 63.55 62.73 62.61 64.12 63.76 63.22 62.38 61.67 61.16 60.13 60.36 60.67 60.98 61.50 61.73 61.25 61.85 60.76 60.56 59.52 58.78 59.24 61.14 61.37 61.16 62.17 62.59 61.14 61.75 61.56 61.03 60.42 61.01 60.43 60.35 60.08 59.89 59.57 59.33 59.01 58.71 58.65
63.75 62.93 61.83 62.07 63.32 62.54 61.59 61.35 60.83 60.52 60.63 60.36 60.96 60.78 60.81 60.88 60.59 60.46 60.00 60.11 58.84 58.45 58.32 58.71 59.31 59.19 60.23 61.73 62.22 61.92 62.21 61.57 61.05 60.89 60.56 59.99 59.83 59.89 59.53 59.21 58.95 58.74 58.50
63.19 62.17 61.61 61.69 62.35 61.69 61.46 60.79 60.24 59.58 59.71 60.59 58.96 59.53 58.32 59.04 59.02 59.48 59.28 58.89 57.74 58.04 57.81 58.21 58.47 58.41 59.69 60.54 61.54 62.17 62.10 61.91 61.46 61.00 60.79 60.32 59.66 60.30 59.83 59.38 59.18 58.71 58.57
62.95 63.33 61.77 61.40 62.00 61.85 61.29 60.92 60.34 59.46 59.42 60.46 57.42 56.25 53.09 54.42 56.57 58.26 58.30 57.99 56.74 57.47 57.63 58.43 58.54 57.71 57.58 58.03 58.15 61.14 61.35 61.94 61.50 61.35 60.96 61.27 60.04 60.36 59.78 59.61 59.46 59.16 59.06
62.69 62.41 61.71 61.29 61.18 61.44 60.12 60.48 60.17 59.43 58.09 59.88 58.46 55.50 52.19 51.04 53.70 55.40 56.32 56.48 56.07 56.47 57.23 57.85 58.42 58.09 57.12 56.66 57.41 58.72 58.26 58.83 61.99 62.31 62.04 61.51 61.44 61.25 60.43 60.19 59.70 59.40 59.29
62.78 61.10 60.83 61.10 61.79 61.53 60.74 60.58 61.23 59.64 59.35 58.00 58.06 58.98 57.37 55.71 51.92 51.27 54.58 55.38 55.64 56.06 56.23 57.21 57.73 57.52 56.88 56.17 56.87 56.11 55.41 55.19 57.78 61.47 62.38 61.83 62.11 61.71 61.60 61.21 60.88 60.19 59.76
62.78 62.35 61.42 61.49 61.33 61.12 60.99 61.09 60.54 59.66 59.79 59.04 58.04 56.99 56.71 55.48 55.00 52.90 51.20 52.68 54.28 56.41 56.29 57.21 57.38 57.30 56.85 56.53 55.86 55.95 54.04 53.55 54.45 58.26 60.90 62.14 62.46 62.40 62.10 61.92 61.66 61.31 60.99
60.48 61.00 60.27 61.48 61.01 60.90 59.54 61.10 60.90 59.33 58.71 58.66 58.99 57.71 56.34 54.35 53.83 52.91 51.18 52.87 53.51 54.21 56.10 56.40 56.84 57.24 57.13 56.51 56.77 54.91 53.22 52.21 53.02 55.49 57.98 59.89 61.37 62.49 62.51 62.23 62.36 62.25 62.16
59.93 60.68 60.61 61.13 61.05 60.48 59.80 61.34 61.11 60.31 59.02 58.20 58.75 58.07 57.64 56.26 56.51 55.15 53.38 52.08 51.85 53.32 54.03 55.40 56.66 57.51 57.09 56.74 56.79 54.38 53.45 50.82 51.14 53.22 55.22 56.86 58.14 59.42 60.82 61.89 62.31 62.49 62.62
59.47 58.35 58.47 58.62 59.14 59.56 60.31 60.67 60.83 60.64 59.83 59.11 58.52 58.41 57.68 56.71 56.62 56.11 54.79 53.41 51.31 52.16 53.30 53.94 55.62 56.11 56.54 56.29 55.91 52.68 55.74 50.06 49.76 50.55 51.95 53.49 54.67 55.75 56.75 58.06 59.49 60.61 61.66
55.80 55.18 56.41 56.41 56.95 57.53 58.31 59.02 59.94 59.90 60.10 59.27 58.82 58.65 58.08 57.83 57.24 56.66 56.30 55.44 53.51 50.20 51.56 53.62 54.57 56.81 56.85 56.92 55.59 54.83 55.46 51.48 49.07 48.28 48.70 50.37 52.04 53.66 54.27 55.10 55.87 56.69 57.91
56.41 55.34 55.70 55.78 56.11 57.13 57.70 58.64 58.72 59.36 59.30 59.46 59.08 58.43 58.15 57.91 57.21 56.69 56.23 55.08 54.24 52.59 50.67 53.98 54.83 56.50 57.76 58.17 56.35 57.84 57.68 53.89 48.93 48.22 47.74 48.17 48.86 50.51 51.42 52.36 53.06 53.60 54.71
57.53 56.76 56.37 55.82 55.73 56.21 57.04 57.50 57.80 57.86 57.86 58.64 58.63 58.34 57.72 57.78 56.77 55.93 55.86 55.76 54.63 53.71 50.59 51.94 53.12 54.03 55.54 56.78 56.82 56.88 57.31 57.50 57.20 49.50 48.49 48.45 46.85 46.51 47.21 47.71 48.27 49.19 49.97
57.60 57.21 56.65 56.09 55.78 55.89 56.55 56.27 56.27 56.81 56.71 56.94 58.01 57.91 57.31 56.87 56.01 55.57 55.37 54.74 54.54 55.22 53.30 50.90 52.84 52.91 52.72 53.88 54.46 53.88 54.44 56.07 56.33 47.14 43.47 43.07 42.85 42.46 42.25 42.32 42.81 43.33 43.82
57.54 57.30 56.77 55.38 55.39 56.05 55.89 55.73 55.69 55.15 56.55 56.97 57.10 57.49 57.13 56.71 55.25 54.77 54.51 54.45 54.55 54.45 54.38 52.75 52.26 53.59 53.74 53.60 53.45 53.75 54.08 54.49 47.33 43.20 41.37 41.14 41.32 41.21 41.09 41.13 41.27 41.63 41.61
57.74 57.05 56.63 56.00 55.54 55.55 55.55 55.16 55.01 54.55 54.42 54.58 55.31 55.77 56.39 56.23 54.81 54.51 53.98 53.55 53.56 53.40 53.27 52.93 52.50 52.71 53.14 53.77 53.62 51.33 51.32 45.24 44.79 44.35 40.88 39.73 39.68 39.95 39.92 39.92 39.70 39.65 39.65
46.85 47.88 47.31 46.18 45.59 45.20 43.85 50.29 54.38 53.73 53.46 53.70 48.94 46.49 44.66 44.06 42.46 45.31 53.96 53.64 53.41 52.77 52.56 52.34 51.52 51.14 51.07 46.85 47.82 43.68 46.14 44.83 36.65 37.00 40.35 39.04 37.78 37.37 37.57 38.08 38.33 38.22 37.98
40.94 40.49 39.45 39.45 38.99 39.47 37.48 40.45 48.22 49.50 50.56 47.78 43.03 40.66 39.22 38.01 36.51 36.18 36.11 35.18 36.56 50.53 51.90 51.40 49.75 47.61 38.35 37.44 37.87 39.22 40.99 42.20 39.37 32.72 36.90 34.68 35.61 33.84 35.26 35.91 36.17 35.96 35.34
37.19 36.51 36.26 35.91 34.86 35.41 36.16 37.03 37.93 39.95 39.42 39.63 40.53 39.92 37.63 36.14 35.65 34.55 33.91 33.54 32.94 33.09 33.49 41.21 37.20 34.31 32.88 32.51 34.11 36.96 36.88 36.56 31.30 28.96 32.56 31.72 33.63 31.36 33.79 34.84 34.79 34.46 34.16
34.03 34.21 33.84 34.19 33.76 34.00 34.48 34.61 34.79 35.24 34.61 34.38 35.57 37.89 35.81 34.40 34.07 33.60 32.38 31.04 30.83 30.78 30.81 30.91 29.95 29.83 30.75 31.95 33.45 35.50 34.69 30.24 29.17 27.28 27.55 30.39 30.30 26.14 31.54 31.66 33.92 34.03 33.42
31.52 31.91 32.91 32.63 32.21 32.59 33.48 33.24 33.17 32.56 32.10 32.17 33.10 33.58 33.22 32.70 33.91 34.79 31.51 29.85 29.48 29.91 31.93 31.78 31.37 31.13 31.01 31.28 32.02 32.83 31.86 31.69 28.76 20.95 18.68 26.92 21.18 21.37 30.40 30.36 31.57 34.15 33.57
29.84 30.22 30.10 31.36 31.93 31.24 33.03 32.66 31.85 31.06 30.02 30.32 31.60 31.97 32.97 32.29 32.91 32.59 31.13 30.08 27.54 27.80 28.13 27.38 26.68 26.58 27.42 27.46 27.44 24.70 21.74 22.50 25.38 14.63 18.45 24.49 20.10 17.27 18.78 31.92 25.89 26.07 21.75

GFSMA_sfc_wetblb_102.txt.gz
Wetbulb
67.00 65.64 64.83 65.74 63.25 62.41 62.24 62.03 61.85 62.91 63.43 64.15 63.68 63.72 64.29 64.27 64.32 64.42 64.64 64.62 65.60 67.92 69.49 69.36 68.80 68.17 67.35 66.53 66.25 65.31 64.67 64.16 63.26 62.27 61.73 61.08 61.18 61.96 61.41 61.03 60.92 59.80 59.98
66.74 65.42 65.22 65.42 62.99 62.59 61.64 61.71 61.82 61.57 62.59 64.00 63.73 63.40 63.87 63.59 63.89 63.73 63.74 63.88 62.30 65.18 67.17 68.61 68.49 68.20 67.63 66.62 65.86 65.44 64.30 63.27 62.62 61.99 61.20 60.93 61.01 60.74 59.48 60.84 59.89 60.34 59.39
66.06 65.13 64.81 64.23 64.23 63.09 61.51 60.48 60.71 61.00 61.75 63.00 62.92 63.06 63.34 62.98 63.31 62.91 63.53 63.83 63.34 62.85 64.25 66.63 67.17 67.51 67.19 66.56 65.81 64.89 64.12 63.68 62.64 61.28 60.83 60.12 60.65 60.37 60.00 60.06 59.10 59.22 59.05
64.62 63.63 64.54 64.03 63.42 63.21 63.24 62.32 61.86 61.76 60.64 61.43 61.69 62.28 62.49 62.76 62.68 62.81 62.98 63.27 62.90 64.20 63.43 64.16 65.40 66.06 66.16 66.35 65.70 64.89 63.95 62.83 62.14 61.49 61.17 60.66 60.69 59.71 59.09 58.93 59.49 59.02 58.99
64.46 64.21 64.94 64.20 63.14 63.24 62.94 62.23 62.14 61.91 60.21 60.60 60.93 61.94 62.40 62.27 62.46 62.96 62.59 62.32 62.21 62.12 62.65 62.27 62.53 63.43 64.74 65.60 65.28 64.56 64.19 62.97 61.97 62.03 61.07 61.37 60.00 60.07 59.36 59.33 59.60 59.58 59.41
64.26 64.01 64.56 63.85 63.50 62.91 62.45 62.28 61.63 61.63 60.96 60.46 61.33 60.93 61.36 62.10 62.23 62.21 62.18 62.35 61.48 60.91 61.49 61.64 62.00 61.78 61.91 63.57 64.20 63.80 63.54 62.31 61.91 62.21 61.42 60.82 60.00 59.35 59.79 59.62 59.55 59.56 59.30
64.10 64.22 63.69 63.36 63.04 62.45 62.42 62.63 61.99 61.00 60.30 60.80 59.39 59.26 60.10 60.98 60.94 61.61 62.22 61.74 61.07 60.52 60.04 60.15 60.27 60.34 61.15 61.40 62.80 62.97 62.80 61.85 62.77 62.72 61.58 60.54 59.94 59.25 58.74 59.05 59.73 59.45 59.21
64.04 63.86 63.02 62.88 62.83 62.76 61.95 62.05 61.40 60.39 60.31 60.68 58.07 56.70 53.66 55.25 58.81 60.55 61.18 61.20 60.48 60.22 59.20 58.87 58.80 58.12 58.97 59.93 59.50 61.82 62.13 62.80 62.31 61.91 61.63 61.14 60.56 59.64 59.21 59.08 59.10 59.26 59.09
64.02 63.71 62.94 62.95 62.80 62.57 61.11 61.22 61.17 60.28 58.87 59.98 59.01 56.98 52.50 52.27 54.19 57.00 59.41 60.36 59.71 58.93 59.03 58.68 58.03 57.72 57.73 58.10 58.81 59.34 58.73 60.03 62.50 62.25 61.96 61.60 61.08 59.83 59.53 59.27 59.45 59.30 58.95
63.82 63.76 62.74 62.73 62.68 62.17 61.06 60.78 61.17 60.54 59.77 58.41 58.88 58.71 57.12 55.31 52.43 51.29 55.92 57.35 58.60 58.20 57.84 57.97 57.72 57.58 57.58 57.62 57.51 56.46 55.46 55.56 58.47 61.45 61.76 61.94 61.46 61.20 60.80 60.63 60.59 60.03 59.71
63.36 63.02 62.28 61.51 62.11 61.69 61.34 60.99 60.44 60.24 60.49 59.44 58.91 57.74 56.32 55.17 54.61 51.79 51.65 53.28 55.40 56.84 57.00 56.93 57.62 57.63 57.43 57.38 57.37 56.43 54.03 53.42 54.13 58.36 60.67 61.26 61.78 61.64 61.23 61.28 61.41 60.85 60.65
61.88 61.31 61.02 60.95 61.47 61.70 60.62 60.42 60.67 60.14 59.68 59.40 59.11 58.04 57.43 54.76 53.03 52.96 51.76 53.51 53.91 54.47 56.08 56.46 56.73 57.49 57.52 57.21 57.07 54.89 53.06 51.99 52.64 55.07 57.86 60.05 61.30 61.78 61.69 61.63 61.80 61.61 61.52
60.71 60.43 60.46 60.57 61.35 61.54 61.35 60.55 60.06 59.76 59.42 58.60 58.93 58.37 58.50 57.55 55.63 55.41 54.87 53.65 53.21 53.99 54.73 56.00 56.93 57.33 57.58 57.62 57.06 54.40 53.37 50.91 51.15 52.87 54.64 56.50 58.35 59.90 61.04 61.38 61.93 62.32 62.35
60.43 60.78 60.62 61.11 61.03 60.69 60.03 59.82 59.10 59.21 59.42 59.09 58.81 58.91 58.38 58.03 56.57 55.65 54.75 53.73 51.65 52.36 53.24 53.51 56.31 57.09 57.44 57.20 56.53 52.56 55.86 49.99 50.04 50.46 51.84 53.36 54.64 55.96 56.91 58.32 59.87 60.69 61.29
58.13 59.05 58.85 59.27 59.45 59.53 58.65 59.35 58.78 58.82 58.80 59.01 59.22 59.15 58.97 58.69 57.73 56.79 56.83 56.61 53.97 50.59 51.27 53.33 53.11 56.77 57.49 57.54 56.05 56.25 56.39 51.57 49.42 48.94 48.96 50.37 52.13 53.39 54.14 54.95 55.86 56.73 57.76
58.56 58.22 57.14 57.30 57.59 58.07 59.11 58.87 58.63 58.99 59.23 59.57 59.43 58.81 58.66 58.69 57.41 56.98 56.40 56.47 55.83 53.60 50.78 54.36 54.89 55.78 57.19 57.08 55.72 56.60 56.26 52.09 48.51 47.36 47.36 47.77 48.63 50.42 51.16 51.60 51.94 52.48 53.34
58.28 57.70 57.54 57.14 56.62 56.14 55.88 55.50 55.66 55.22 56.22 57.46 58.28 58.33 58.32 58.87 57.08 56.85 56.63 56.19 55.27 54.15 51.47 52.46 54.80 55.43 55.57 55.94 55.17 55.69 54.95 55.17 49.20 46.55 46.41 46.46 46.24 46.41 46.82 47.60 47.90 48.51 48.89
57.48 56.80 56.30 55.59 55.13 55.27 55.34 55.40 53.86 56.16 56.02 56.00 56.76 57.02 57.00 57.57 56.98 56.89 56.36 55.64 55.51 55.31 52.77 50.82 52.04 52.92 54.27 55.74 55.43 56.00 54.80 49.09 45.70 43.68 43.26 43.19 42.99 42.79 42.78 42.78 43.07 43.16 43.32
56.90 56.64 55.72 55.49 55.15 55.07 55.24 54.76 54.96 55.38 55.84 56.16 56.54 56.70 56.78 57.64 57.04 56.36 56.08 55.55 55.55 54.89 54.08 52.15 51.30 52.80 52.86 54.76 54.34 51.39 46.39 44.20 43.31 42.59 41.51 41.43 41.74 41.87 41.73 41.69 41.56 41.16 40.74
56.14 55.52 56.20 55.61 55.21 54.68 54.77 55.14 55.42 55.01 54.29 52.61 50.75 52.53 54.68 56.94 57.56 57.20 55.90 55.72 55.25 54.35 54.32 53.35 52.25 52.30 53.21 53.64 53.55 48.80 45.43 44.28 41.51 40.92 40.66 40.29 40.66 40.94 40.55 40.29 40.25 40.16 39.82
53.37 51.44 48.81 46.82 45.77 44.76 42.84 45.11 51.90 54.09 51.24 46.66 43.97 42.34 40.55 42.58 46.67 51.20 55.80 55.76 55.28 54.29 53.57 52.74 51.96 51.43 51.63 51.56 50.73 49.26 44.18 39.28 37.54 40.18 38.51 38.10 37.86 37.68 37.99 38.46 38.50 37.79 37.12
41.04 41.27 39.51 39.39 38.65 38.56 37.26 39.37 45.06 47.51 45.46 43.71 41.40 39.64 38.74 37.76 36.87 36.90 37.13 35.93 42.45 53.86 52.81 52.12 51.46 50.53 48.41 46.86 44.57 47.02 39.62 37.91 36.25 35.32 35.43 33.76 36.03 34.60 35.20 35.41 36.11 35.83 35.39
36.10 35.22 35.18 35.17 34.81 35.70 36.69 38.23 38.40 39.33 38.43 37.74 37.20 37.03 36.67 36.36 35.94 35.55 34.96 34.68 33.86 33.79 34.69 48.21 48.64 43.70 40.95 37.45 40.39 40.05 40.25 38.13 32.70 30.16 34.37 30.90 33.17 31.57 33.91 34.81 35.01 34.67 34.53
32.36 32.96 32.68 33.46 33.69 34.58 35.30 35.51 35.55 35.47 34.47 33.98 33.98 34.31 34.04 33.79 34.21 33.69 32.71 31.51 30.98 31.34 31.89 32.54 32.58 31.99 32.37 33.46 35.09 37.26 32.78 28.97 28.86 27.81 29.98 28.81 31.15 30.41 32.01 32.78 34.83 34.90 34.32
30.28 30.66 31.39 31.71 32.17 32.83 34.38 34.42 33.90 32.92 32.02 31.97 33.11 33.08 32.46 32.06 33.53 34.02 30.39 27.91 26.68 26.75 31.21 31.86 31.47 31.27 31.87 33.05 34.55 34.23 31.68 31.24 26.59 23.74 24.62 28.74 26.54 29.33 30.64 27.21 29.38 33.23 32.77
29.65 30.18 29.90 30.61 31.82 31.25 33.56 33.66 32.91 31.88 30.44 30.62 31.22 31.54 32.66 31.62 31.63 30.97 28.42 27.12 23.97 24.32 26.19 26.39 26.00 25.88 26.27 26.71 28.82 29.47 32.72 27.05 24.05 23.08 24.05 24.91 24.23 25.75 26.70 25.89 24.03 24.78 25.38

GFSMA_sfc_wetblb_105.txt.gz
Wetbulb
69.26 69.53 70.74 70.64 70.62 70.48 70.09 69.52 69.72 69.11 69.29 69.14 69.20 68.91 67.32 67.90 67.21 68.07 67.52 63.81 64.09 66.91 68.55 69.28 68.60 68.70 67.97 67.33 66.97 66.54 65.53 64.81 64.13 63.15 63.09 63.20 62.59 62.44 62.33 62.14 61.62 61.50 61.24
68.96 68.57 68.20 68.92 69.56 69.63 69.53 69.21 68.74 68.65 68.29 68.24 68.06 67.70 67.85 67.40 66.52 65.25 64.96 65.28 62.83 63.59 67.16 68.68 68.82 68.70 68.25 67.15 66.74 66.30 65.15 64.45 63.66 62.51 62.64 62.42 61.99 61.83 61.31 61.40 61.08 60.81 60.39
68.18 67.74 67.39 67.84 67.81 68.29 68.66 68.26 67.86 67.43 67.33 66.56 66.02 67.10 67.69 67.33 66.76 64.49 64.20 64.63 63.83 62.27 62.93 67.14 67.69 68.17 67.88 67.31 66.27 66.03 65.43 64.46 63.82 62.51 61.65 61.37 61.68 61.33 60.74 61.13 60.47 60.86 59.81
68.17 67.01 66.45 66.60 66.47 66.18 67.07 66.81 65.56 65.43 65.62 65.40 64.94 66.06 66.45 66.25 64.05 64.16 64.25 64.06 63.76 64.29 63.13 64.14 65.32 66.41 66.80 67.23 66.50 65.93 64.88 64.18 63.67 62.26 61.52 60.64 61.43 60.82 60.28 60.39 60.22 60.13 59.74
67.30 66.32 66.36 66.52 65.81 64.70 65.22 65.18 64.82 65.12 64.36 64.14 64.45 65.17 65.55 64.64 62.87 63.15 63.86 63.17 63.15 63.40 63.47 63.48 63.28 63.30 65.21 66.28 66.33 66.21 65.13 63.65 63.06 61.81 61.63 61.18 60.80 60.36 59.61 58.97 59.74 59.49 59.25
66.25 66.58 66.67 66.45 65.74 64.38 64.22 63.91 63.25 63.69 63.70 63.63 62.75 63.00 63.84 64.55 64.03 62.78 63.22 63.29 63.26 62.70 62.67 63.02 64.22 65.27 62.42 64.70 65.56 65.83 65.10 64.02 63.27 62.25 61.58 61.48 60.57 60.27 59.93 59.23 60.08 59.57 59.64
65.51 66.02 66.61 66.07 64.89 64.47 63.78 63.82 63.10 61.83 61.57 62.60 61.51 61.75 62.05 63.66 63.50 62.12 63.94 63.43 63.47 62.50 62.03 62.16 63.98 65.97 65.20 62.88 64.45 65.39 64.81 64.12 62.77 62.44 61.84 61.60 61.10 60.48 60.37 60.07 59.37 59.79 59.69
65.85 66.04 66.11 65.07 64.25 63.87 63.80 63.89 62.80 61.76 61.32 61.85 59.34 58.26 55.05 57.56 60.71 62.39 62.45 62.99 63.13 63.42 61.76 61.57 62.33 64.60 65.30 64.63 63.51 63.25 63.97 63.51 62.70 62.18 62.73 61.92 61.24 60.42 59.75 59.23 59.29 59.98 59.69
66.25 66.18 65.67 65.03 63.89 63.73 63.12 63.86 63.59 62.55 59.72 61.03 61.34 58.20 53.68 53.80 56.06 60.01 60.81 62.16 62.52 62.54 62.91 61.10 61.34 63.06 64.01 63.61 61.97 60.54 58.97 59.85 62.15 63.35 63.00 62.01 61.43 60.76 60.09 59.85 59.73 59.24 59.53
65.58 66.15 65.56 64.87 64.20 63.88 63.92 63.65 64.01 62.95 61.54 59.12 60.44 60.56 59.01 58.75 55.58 54.76 57.95 59.73 62.21 61.19 61.39 60.43 60.27 61.98 62.80 62.71 60.75 57.91 55.49 55.62 58.75 62.01 62.57 62.47 61.47 61.28 60.71 60.24 59.79 59.68 59.49
65.60 65.40 65.29 64.92 65.01 64.37 63.95 63.57 63.32 62.36 61.87 60.33 59.90 59.55 58.06 57.01 56.88 56.09 54.17 55.90 57.78 59.62 60.15 59.75 59.46 60.52 62.20 62.06 61.71 59.02 54.43 53.58 55.42 59.70 61.37 61.89 62.04 61.56 60.88 60.38 60.63 60.59 60.44
64.01 64.80 64.53 64.35 64.80 63.72 63.91 64.39 62.75 62.43 61.41 61.05 60.92 60.49 58.63 56.01 55.78 55.46 55.35 56.71 55.82 56.58 58.36 58.70 58.40 59.32 61.27 61.57 59.98 56.15 53.37 52.17 53.15 55.95 58.89 60.18 61.04 61.16 61.24 61.27 61.41 61.41 61.35
62.79 63.03 63.80 63.91 64.01 63.50 63.88 64.19 62.22 61.87 61.50 60.67 59.71 59.46 59.94 59.14 58.96 58.56 58.51 57.02 55.85 55.62 56.16 57.46 58.18 58.97 59.48 61.19 60.64 55.43 53.42 50.94 51.34 53.28 55.28 57.14 58.51 59.69 60.63 61.06 61.48 61.67 61.85
62.31 63.55 63.44 64.02 64.14 63.34 62.98 64.03 63.79 62.88 61.28 60.38 60.17 60.29 59.85 59.73 59.40 58.19 58.12 57.09 54.73 54.86 55.34 55.52 57.54 57.92 58.73 59.79 59.54 52.69 58.92 50.26 50.17 50.59 52.20 53.67 55.17 56.50 57.50 58.88 59.94 60.60 61.11
62.48 62.47 62.90 63.03 63.00 62.15 62.51 62.82 61.30 61.63 62.57 60.44 60.16 60.18 60.12 60.11 61.26 60.42 58.65 57.56 56.17 52.14 52.44 54.62 54.85 58.23 58.63 59.31 58.70 59.89 59.86 52.41 49.65 49.22 49.46 50.77 52.51 53.77 54.48 55.21 56.27 57.34 58.50
62.55 61.49 61.75 62.25 61.34 61.83 62.05 61.12 60.84 61.76 59.23 59.45 59.77 59.22 59.60 60.21 60.20 60.32 59.86 60.05 58.44 55.86 52.97 56.23 55.36 56.58 58.07 58.67 58.55 60.33 59.98 53.48 48.78 48.01 47.62 48.28 49.51 51.11 51.83 52.32 53.14 53.95 54.53
60.75 60.77 60.91 60.19 60.51 60.89 61.64 60.80 61.30 58.70 58.74 58.62 59.28 59.04 58.96 60.33 59.01 58.78 59.58 58.84 57.59 58.43 55.38 54.71 56.08 56.28 56.68 57.53 59.49 59.98 59.80 59.21 54.31 47.08 46.53 46.46 46.67 47.39 48.22 48.65 49.40 50.28 50.74
60.45 59.74 59.80 59.09 59.29 59.31 59.38 58.70 57.49 57.23 57.21 58.09 59.07 59.65 59.52 58.87 58.77 58.25 57.83 56.89 57.50 56.78 56.74 52.22 54.95 54.96 55.64 57.40 59.39 58.96 56.92 53.88 50.00 44.58 44.23 44.23 44.01 43.80 43.76 43.93 44.18 44.57 44.86
58.34 58.94 58.36 57.89 57.46 56.95 56.63 56.63 56.92 57.64 58.51 58.58 58.35 58.64 56.94 57.00 56.84 57.09 56.88 56.46 56.86 56.09 55.92 53.35 52.10 53.75 54.62 56.89 55.92 51.71 49.07 46.99 44.70 43.49 42.23 41.93 42.26 42.37 42.11 41.86 41.76 41.68 41.35
57.65 57.57 57.86 57.23 56.67 56.59 56.50 56.65 56.50 57.20 56.91 54.97 51.67 48.37 46.15 46.02 50.51 57.32 56.62 56.38 56.00 55.36 55.19 53.81 52.89 52.95 53.73 55.54 52.79 46.46 44.52 44.96 42.83 42.57 41.49 40.91 41.23 41.47 41.07 40.72 40.63 40.31 39.84
55.82 56.81 53.40 49.33 48.91 48.67 45.45 53.17 56.70 56.36 51.57 47.10 45.17 43.02 40.65 39.37 39.02 42.47 56.56 56.34 56.00 55.16 54.81 53.73 52.85 52.83 52.73 52.28 49.91 48.81 44.11 40.35 39.87 40.90 39.59 39.37 38.99 39.16 38.99 39.16 38.90 38.35 37.54
41.12 41.42 39.92 39.71 39.76 39.26 37.28 38.89 46.41 49.31 47.01 44.86 42.53 40.65 39.90 38.21 37.64 36.04 36.84 36.38 37.39 54.60 53.78 53.53 52.80 52.19 52.11 52.03 49.14 46.72 39.82 38.40 36.35 39.06 35.46 34.27 36.40 33.80 34.82 35.85 36.60 36.18 35.85
35.36 35.15 35.51 35.58 35.08 36.00 36.38 37.59 38.76 41.66 39.97 39.43 39.34 39.61 37.89 37.08 36.61 36.01 34.89 34.59 33.77 34.22 34.62 47.77 52.22 49.71 46.94 43.53 46.27 42.93 42.22 40.40 34.69 33.84 34.62 30.82 32.96 31.71 34.00 34.74 35.38 35.01 34.71
31.97 32.59 33.04 33.64 33.94 34.62 35.09 35.13 35.27 35.66 34.62 34.76 35.17 35.66 35.65 34.58 34.43 33.64 31.68 30.68 30.91 31.54 32.07 32.86 32.73 32.14 33.05 34.50 38.13 39.87 34.87 30.51 30.87 29.65 33.14 29.49 32.04 30.66 32.18 34.37 35.12 34.76 34.52
30.89 31.08 31.55 31.70 32.23 32.98 34.38 34.20 33.87 32.86 32.04 31.96 33.21 33.83 33.22 32.67 33.10 34.05 32.24 29.39 28.03 27.82 30.63 31.71 31.59 31.42 32.45 33.68 35.79 36.18 33.80 33.40 28.74 26.18 26.93 29.78 29.78 29.35 27.56 26.89 32.09 33.89 32.69
28.62 28.73 28.33 29.60 31.15 30.82 33.16 33.13 32.51 31.54 30.16 29.89 30.65 31.19 31.66 31.01 30.75 30.59 29.57 28.03 24.49 24.96 26.54 26.47 26.24 26.39 26.96 27.60 29.48 30.71 34.02 30.32 27.34 26.36 25.41 26.60 25.94 29.37 22.95 25.03 26.43 28.58 28.36

GFSMA_sfc_wetblb_108.txt.gz
Wetbulb
71.83 72.60 72.06 72.10 72.07 71.58 71.26 71.48 70.89 70.78 70.51 70.64 70.66 70.52 70.19 70.22 69.63 70.09 68.21 64.66 65.04 66.13 67.16 69.11 70.00 69.41 68.73 68.27 67.94 67.52 66.42 65.73 65.18 64.42 64.52 64.29 63.82 63.59 63.24 63.09 62.57 62.31 61.92
71.54 70.50 71.68 71.15 71.90 71.82 71.49 71.16 70.68 70.26 69.96 70.08 69.57 70.08 69.79 69.60 67.96 69.70 69.51 67.40 63.39 64.73 65.53 67.43 68.60 68.28 68.48 68.00 67.27 67.01 66.35 65.58 65.25 63.95 64.02 63.48 62.97 62.76 62.53 62.47 61.94 61.78 61.78
71.99 70.49 69.85 69.78 70.87 71.77 71.58 71.04 70.71 70.17 69.54 68.82 68.69 69.24 69.10 69.15 68.28 68.68 67.92 65.49 65.40 62.14 63.31 64.86 66.13 67.14 68.21 67.89 67.21 66.69 66.03 65.29 64.71 63.87 63.20 62.89 62.66 62.20 61.83 61.66 61.30 61.20 60.83
71.85 70.11 68.91 68.88 69.70 70.90 70.84 69.87 69.19 68.10 68.66 67.86 67.84 68.22 68.01 68.88 68.36 68.32 66.77 64.77 65.56 66.25 63.14 62.98 62.11 64.89 67.23 67.66 67.06 66.50 65.73 65.29 64.57 63.79 62.91 62.33 62.24 61.79 61.12 61.20 60.10 60.97 61.00
70.16 68.91 68.04 68.81 69.02 68.28 68.96 68.72 68.15 68.09 66.94 66.48 67.08 67.45 67.55 67.26 67.26 66.95 65.06 63.82 64.86 65.55 65.69 62.74 61.68 63.23 65.38 66.46 67.00 66.76 66.14 64.83 64.19 63.21 62.00 61.51 61.58 61.44 60.76 60.92 59.66 60.31 59.46
68.89 68.43 68.31 68.86 67.67 67.12 67.81 67.73 66.79 67.06 66.49 65.96 64.75 65.17 66.30 66.66 66.73 66.30 65.65 64.19 63.36 65.31 64.18 64.10 63.76 64.11 61.74 64.67 66.01 66.54 66.36 64.94 64.13 63.13 61.88 61.25 61.59 61.38 60.66 60.31 60.06 60.35 59.10
68.29 67.70 67.61 67.64 66.79 66.14 66.41 66.73 66.77 65.23 65.13 65.66 62.85 62.43 64.20 65.60 65.14 65.70 65.59 64.11 64.98 64.02 64.45 63.35 64.18 64.12 63.68 62.83 64.33 65.82 66.05 65.13 64.30 63.16 62.46 62.19 61.85 61.08 60.37 60.11 60.23 59.94 59.84
68.08 67.36 67.68 66.74 66.59 66.44 66.15 65.79 64.95 63.25 64.20 65.35 61.30 59.74 57.25 59.67 63.19 64.98 64.58 64.25 64.31 65.30 64.40 64.03 63.12 63.64 64.48 66.73 65.70 64.51 65.36 65.31 64.39 63.26 63.18 62.17 61.81 61.17 60.56 60.42 60.30 60.10 60.30
67.67 67.10 67.18 67.14 66.65 66.92 65.69 65.72 64.53 63.73 61.40 62.74 64.64 60.13 55.23 54.73 57.61 62.14 63.64 63.62 64.73 64.47 64.58 65.03 64.06 63.43 63.43 64.40 64.23 63.44 60.64 61.57 63.55 63.68 63.47 62.31 61.97 61.36 61.06 60.73 60.58 59.84 60.32
68.25 67.61 67.36 67.46 67.61 66.72 65.95 66.23 65.04 65.59 64.54 61.00 62.54 63.45 60.62 60.32 57.29 57.00 61.04 63.19 64.45 63.95 63.42 65.32 64.48 64.83 63.32 63.91 62.86 60.38 56.68 56.68 59.59 62.28 63.11 63.01 62.18 61.66 61.01 60.75 59.99 60.36 60.02
66.78 67.42 67.94 67.60 66.95 66.39 66.11 66.02 65.18 65.75 66.11 64.33 62.01 61.10 61.22 59.41 58.36 58.01 58.02 59.18 61.09 63.12 64.37 63.67 63.45 64.31 64.28 63.33 63.86 60.82 55.17 53.88 55.96 59.67 62.01 62.51 62.00 61.59 61.01 60.71 60.49 60.09 60.17
65.00 66.01 66.92 67.31 67.53 66.00 65.11 65.50 66.67 66.82 65.40 65.55 64.74 63.87 62.15 58.17 57.65 56.50 57.31 57.99 59.78 61.11 61.71 62.32 62.26 62.60 61.77 61.92 61.40 56.71 53.63 52.47 53.47 56.95 59.52 60.96 61.34 61.40 61.03 60.73 60.75 60.53 60.78
63.91 64.71 65.47 65.87 65.78 65.83 66.83 66.73 67.13 66.42 66.00 65.19 64.18 64.33 64.20 63.69 62.20 59.81 59.63 59.07 58.67 60.62 59.49 60.48 60.74 60.87 60.68 61.08 60.91 56.25 53.67 50.92 51.40 54.15 57.00 58.05 59.34 60.01 60.19 60.30 60.71 61.09 61.25
63.92 64.78 64.86 65.62 65.67 66.33 65.77 66.33 66.06 65.84 65.72 65.50 63.58 63.58 62.16 61.48 61.64 59.89 58.39 57.27 54.57 55.95 57.52 58.73 59.53 60.13 60.48 60.32 59.64 53.46 59.97 50.28 50.03 51.21 53.05 54.73 56.10 57.05 57.51 58.42 59.21 59.82 60.49
64.97 64.60 64.67 64.31 65.04 64.82 64.04 65.06 64.92 64.89 64.34 64.60 64.03 62.88 61.70 61.72 62.25 61.83 60.09 59.16 56.39 52.92 54.24 58.28 58.58 59.82 60.99 60.87 58.52 58.12 59.87 52.19 49.66 49.23 49.88 51.33 53.27 54.47 55.06 56.05 56.97 57.81 58.71
65.70 65.01 64.66 63.64 63.62 63.45 63.14 63.96 64.38 64.29 62.95 63.85 63.23 62.93 61.29 61.99 61.51 61.88 62.49 61.40 60.82 56.59 54.63 59.72 59.75 60.86 60.09 58.84 57.35 60.00 59.76 53.08 49.36 48.32 48.02 48.84 50.17 51.81 52.70 53.29 53.99 54.82 56.05
64.68 64.23 63.68 62.37 62.48 62.45 62.32 62.44 62.53 62.99 62.60 62.76 62.62 62.70 60.20 62.47 60.75 61.02 62.19 61.75 60.40 59.74 55.75 56.85 60.01 61.47 59.34 59.46 58.48 58.90 59.22 59.78 59.52 47.94 47.27 47.34 47.59 48.26 49.07 49.71 50.59 51.55 52.68
62.92 61.93 62.12 61.35 61.38 61.82 62.11 62.11 61.98 62.12 61.71 61.49 60.94 59.95 60.41 59.80 59.39 60.12 59.57 59.80 59.83 60.00 58.88 55.40 57.02 58.72 59.31 58.29 57.55 57.31 58.14 59.38 59.37 46.11 46.34 46.25 45.96 45.73 45.87 46.15 46.26 46.55 47.29
60.71 60.75 60.61 60.50 60.66 61.02 60.90 61.90 61.48 60.86 60.95 61.02 60.76 60.92 60.70 60.57 60.04 61.07 60.65 58.72 58.25 58.77 57.93 56.45 55.52 57.32 58.23 57.05 56.75 53.84 49.92 47.61 45.57 44.30 42.76 42.79 43.32 43.28 43.23 43.14 43.20 43.10 43.02
59.17 59.41 59.71 60.03 60.05 60.11 60.58 60.62 59.41 58.76 58.89 58.45 57.50 57.42 55.20 53.36 51.07 51.45 55.08 57.72 57.23 56.47 56.59 56.11 55.44 54.82 56.21 56.09 52.42 46.05 44.15 45.39 44.24 43.80 43.60 42.54 42.33 42.19 41.58 41.14 41.07 41.15 40.90
56.27 57.78 57.59 57.25 55.10 55.69 53.70 59.16 59.10 58.75 56.59 53.45 51.17 48.29 45.92 40.85 38.02 39.67 46.83 53.02 56.63 55.75 55.33 54.71 53.80 53.40 53.21 53.82 49.86 48.39 44.16 40.93 40.83 41.35 40.13 40.42 40.70 40.21 40.45 40.48 40.30 39.59 38.96
39.47 40.80 42.28 43.63 42.63 40.78 38.35 40.03 53.29 55.59 50.72 48.38 44.89 44.27 42.67 40.95 38.97 35.76 35.86 35.30 35.60 49.21 54.75 54.10 53.56 52.35 52.46 52.98 51.49 46.21 39.57 38.16 35.21 39.88 36.67 34.77 36.71 35.21 36.60 37.10 37.58 37.10 36.57
34.65 35.10 35.63 36.07 36.42 36.98 37.34 38.35 39.36 42.57 40.97 40.43 41.09 41.48 40.90 39.35 39.22 39.03 35.52 35.00 34.00 33.96 33.89 44.67 53.17 49.88 51.78 52.38 50.15 44.72 43.18 42.05 36.81 35.95 34.42 31.03 33.42 31.82 34.37 35.85 36.48 36.12 35.42
31.52 31.85 32.09 32.92 33.47 34.30 35.14 35.38 35.06 34.91 34.15 34.39 35.07 35.89 36.02 35.71 34.83 35.17 33.66 33.01 31.61 31.79 32.37 32.73 32.62 32.14 32.86 34.86 46.91 46.24 42.15 32.50 32.62 31.91 34.31 29.70 32.26 30.82 32.71 34.10 35.32 35.02 34.79
28.63 28.66 30.12 31.11 31.84 32.41 33.90 33.84 33.33 32.14 31.11 30.71 31.68 32.50 32.46 32.10 32.58 34.31 32.34 30.66 30.13 30.14 31.42 32.14 31.82 32.01 32.68 33.46 35.77 38.69 35.67 35.03 32.11 29.20 29.56 30.91 30.47 27.48 27.84 28.66 33.19 34.98 34.27
27.66 27.49 27.22 28.13 30.51 30.45 32.79 32.79 32.07 30.86 29.29 29.00 29.77 30.33 31.13 31.07 30.83 30.90 30.15 28.64 25.38 25.62 27.00 27.61 27.10 26.86 27.28 28.02 30.25 30.66 36.31 35.31 29.34 27.69 27.92 29.56 27.86 27.32 23.21 26.24 28.28 28.88 29.59

GFSMA_sfc_wetblb_111.txt.gz
Wetbulb
73.24 72.24 72.34 71.75 72.87 72.08 72.00 71.91 71.13 70.79 70.43 70.35 70.95 70.31 70.36 70.27 70.29 69.85 71.69 65.57 65.75 66.77 69.06 69.11 68.99 68.27 68.70 68.94 68.30 67.98 67.42 67.20 66.86 66.26 65.80 65.52 65.21 64.94 64.61 63.99 63.20 62.82 62.65
72.46 71.61 71.90 71.23 70.63 71.92 71.93 71.46 71.00 70.46 69.80 70.28 70.31 70.29 70.11 69.91 69.77 69.64 69.12 68.41 64.87 65.57 66.90 67.29 67.47 65.18 68.08 68.69 67.75 67.59 67.13 66.71 66.23 65.73 65.15 64.42 64.32 63.82 63.56 63.17 62.74 62.47 62.10
73.44 72.32 71.19 71.31 70.80 71.50 73.23 71.87 71.45 70.94 70.25 69.56 69.01 69.47 70.05 69.44 69.09 68.91 68.89 68.75 66.02 62.41 63.87 65.71 66.26 65.95 66.15 67.33 67.94 67.46 66.90 66.18 65.94 65.18 64.66 64.02 63.68 63.19 62.97 62.64 62.41 61.79 61.76
72.81 73.41 70.62 70.97 71.59 71.42 71.14 71.42 70.78 69.70 68.64 68.83 68.68 68.41 68.45 68.99 68.66 68.76 68.66 68.08 67.40 65.61 62.35 63.43 63.49 63.32 64.73 66.15 67.00 67.07 66.43 66.00 65.44 64.79 64.29 63.68 63.27 62.92 62.60 62.14 61.47 60.09 60.17
72.21 72.88 71.04 70.17 70.67 70.27 70.75 70.25 70.07 69.89 68.40 68.59 68.35 68.48 68.27 67.65 68.16 68.17 67.14 67.53 66.85 65.79 65.53 62.49 62.27 62.39 64.42 65.02 66.15 66.89 66.80 65.83 65.29 64.20 63.63 63.29 62.99 62.48 61.14 61.61 59.91 59.70 59.94
72.17 72.59 71.44 70.64 70.44 69.39 69.55 69.94 69.12 69.02 68.63 67.85 66.61 65.82 67.35 67.88 67.85 67.82 67.15 66.57 66.41 65.68 65.38 64.16 62.94 62.34 60.87 62.96 64.23 66.77 67.18 66.48 65.18 64.30 63.18 62.73 62.31 61.94 60.48 60.77 60.07 59.76 59.46
71.66 71.77 71.02 69.79 69.74 67.67 68.83 67.77 68.27 66.62 66.54 68.18 66.33 65.57 65.26 66.19 66.14 66.40 66.79 66.26 65.64 64.94 64.47 64.69 64.37 63.88 63.41 62.69 64.32 66.40 67.21 66.67 65.66 64.65 63.52 62.56 61.57 61.44 60.78 60.57 60.46 59.20 59.29
71.63 70.73 70.67 69.26 69.69 67.50 67.09 66.65 66.43 65.26 65.88 67.26 63.53 62.62 59.82 62.43 63.94 65.44 66.02 65.70 65.64 65.73 63.67 64.52 63.74 63.86 64.16 63.52 62.60 64.32 65.91 66.38 65.74 64.93 63.70 62.41 61.69 61.55 60.85 59.80 59.42 59.12 59.63
71.90 70.41 68.66 69.74 69.88 67.67 66.02 66.51 65.98 64.95 63.61 65.18 65.55 61.88 57.55 56.79 59.54 63.55 64.65 65.01 65.01 64.89 65.13 65.42 63.97 63.57 64.14 63.54 63.08 62.60 61.28 61.67 63.97 64.63 63.82 62.66 61.81 61.64 61.11 59.51 59.35 59.02 59.08
70.32 70.07 69.89 68.22 70.13 68.05 67.15 66.24 66.12 66.24 65.75 61.48 64.19 64.96 65.03 63.16 58.83 57.98 62.71 64.03 64.67 64.00 65.48 65.22 65.10 64.11 63.81 63.79 62.35 60.68 58.38 57.50 60.35 62.98 63.46 63.07 62.61 61.90 61.26 60.83 59.16 59.11 59.07
69.56 67.37 67.81 68.38 69.14 68.57 68.14 67.26 65.71 66.25 65.96 64.38 63.37 62.97 63.47 62.62 62.72 59.89 58.09 60.60 62.46 64.16 64.38 65.42 65.92 65.47 65.24 64.22 64.22 61.60 56.24 55.41 57.22 60.76 62.40 62.51 62.44 62.00 61.44 60.89 60.57 59.49 59.00
68.62 67.07 66.84 66.40 68.18 68.32 66.68 67.68 67.77 66.55 66.73 65.70 64.96 63.63 61.66 60.53 59.18 60.02 58.84 59.26 59.96 62.05 63.42 64.62 64.86 64.98 65.12 65.25 63.51 59.16 54.62 53.69 54.95 57.64 59.94 61.29 61.66 61.57 61.23 60.96 60.67 60.33 60.45
67.17 66.78 65.39 65.90 66.13 66.67 67.05 68.26 67.33 64.64 66.96 65.92 66.09 64.94 64.37 63.20 62.88 61.83 61.28 60.10 59.20 62.52 61.25 62.38 63.65 64.68 63.92 64.74 64.25 56.54 54.18 52.15 52.98 55.13 57.12 59.01 59.68 59.84 60.32 60.37 60.49 60.71 60.56
67.09 67.92 65.24 65.57 66.24 66.36 67.23 67.65 67.35 65.59 65.56 65.94 66.13 66.00 64.97 64.95 65.25 63.88 61.73 60.23 57.62 59.26 60.37 60.11 61.83 61.88 64.05 63.67 61.62 54.41 56.40 50.31 51.08 51.94 53.83 55.81 56.89 57.45 57.82 58.48 59.15 59.40 59.70
66.82 67.71 66.04 64.82 65.20 65.50 65.64 66.58 66.63 67.01 65.83 65.09 66.21 66.10 65.05 64.67 64.81 63.44 62.97 61.14 58.57 53.88 55.45 58.82 60.06 62.05 61.72 61.82 60.38 61.34 60.12 51.39 49.46 49.41 50.86 52.65 54.38 55.39 55.74 56.15 56.89 57.42 58.44
66.72 67.05 66.96 65.00 64.35 64.73 64.69 65.30 65.78 66.05 66.36 65.14 64.98 63.95 63.91 63.81 63.49 63.66 62.99 62.69 61.66 58.93 56.27 59.52 60.83 62.45 62.01 60.99 59.19 60.87 59.69 52.70 49.16 47.94 48.13 49.61 51.20 52.86 53.30 53.81 54.44 55.15 56.19
66.01 65.48 65.21 64.51 63.98 64.35 63.90 64.04 64.51 64.70 63.85 62.99 63.85 63.30 63.21 63.56 62.88 62.40 62.75 62.48 61.87 61.03 57.93 59.71 61.25 62.78 61.96 60.67 60.14 60.28 59.21 58.68 54.72 47.98 47.38 47.90 48.21 49.01 50.13 50.66 51.43 52.43 53.50
65.35 65.35 64.90 63.57 63.24 63.05 62.88 63.19 63.75 64.36 62.97 62.29 62.80 62.73 62.63 62.51 62.73 62.81 62.52 61.94 61.58 61.56 59.44 57.63 60.38 60.89 60.69 59.89 59.26 58.28 58.63 59.15 58.52 47.87 47.42 47.30 47.24 46.79 46.97 47.30 47.73 48.38 49.10
63.51 63.22 63.31 63.21 62.47 62.20 61.81 62.97 64.33 63.38 62.14 62.16 62.64 62.40 62.22 61.85 61.28 61.46 61.53 60.68 61.46 61.08 59.84 58.95 57.91 59.22 60.34 59.11 58.38 56.08 50.26 46.81 46.03 44.97 43.53 44.33 45.26 45.82 45.73 45.58 45.89 45.94 45.92
58.66 60.51 61.32 61.20 61.31 61.24 61.13 61.99 62.72 62.99 61.75 61.75 61.19 61.23 59.75 58.76 58.89 58.43 57.83 58.92 59.47 59.08 58.15 57.10 56.56 56.85 57.07 58.11 56.56 48.65 45.42 45.44 43.85 44.21 42.83 42.59 43.11 43.61 44.17 43.25 43.16 43.24 42.94
42.23 44.90 52.20 52.75 56.82 58.09 57.76 60.62 61.36 61.51 58.69 56.32 54.34 51.39 45.52 41.63 38.55 38.93 46.38 50.49 53.50 55.47 55.83 55.21 55.42 54.82 54.46 54.17 48.33 48.72 44.19 40.42 40.14 41.03 40.35 40.76 41.19 41.06 41.60 42.92 42.76 41.35 40.76
35.98 37.26 36.89 38.64 40.65 43.96 43.13 48.38 55.57 57.29 55.59 51.57 46.71 44.11 41.52 39.86 37.22 35.94 35.79 34.88 35.06 40.93 49.84 54.92 54.92 53.61 53.09 53.87 51.37 46.22 40.45 38.53 35.55 40.03 35.37 32.73 36.17 35.43 37.02 38.44 39.09 39.00 38.89
33.10 33.70 35.41 35.02 34.46 37.34 39.35 42.59 42.03 43.09 41.59 41.23 43.03 42.00 40.70 39.30 39.75 40.34 35.66 34.63 33.31 33.52 33.25 38.01 46.81 44.45 49.39 52.52 50.57 45.13 42.80 42.14 36.86 35.69 35.88 31.38 32.57 31.53 33.89 36.37 37.02 36.65 36.09
29.34 29.64 30.55 32.90 33.46 32.85 34.13 35.12 35.38 35.30 34.08 34.08 34.77 35.93 35.36 35.20 34.95 36.61 34.88 32.72 31.26 31.20 31.38 31.99 32.31 31.77 32.43 34.24 46.58 46.28 43.50 33.34 33.67 33.34 34.94 30.02 32.04 30.79 31.96 33.56 35.58 35.01 34.36
27.95 27.69 28.27 29.45 30.27 31.05 33.88 33.53 32.63 31.50 30.58 30.72 31.74 32.38 32.13 31.90 33.15 34.85 33.10 31.19 29.74 29.80 31.33 31.06 30.76 30.53 31.25 33.16 37.91 39.14 35.60 35.22 32.07 30.31 31.68 31.54 30.04 26.74 27.69 31.60 32.78 34.20 33.58
28.09 27.68 26.72 27.65 29.17 28.98 31.78 32.45 32.09 31.11 29.24 28.80 29.41 30.34 31.38 30.81 31.16 30.96 29.55 28.38 25.67 26.08 26.81 27.11 26.84 26.99 27.25 27.79 29.92 31.83 35.88 36.58 31.17 29.73 29.71 28.83 27.05 27.47 23.66 26.87 28.75 30.79 31.25

GFSMA_sfc_wetblb_114.txt.gz
Wetbulb
70.52 70.76 69.85 70.37 70.62 70.28 70.05 69.24 69.22 69.26 68.99 68.97 69.07 67.76 67.75 67.80 67.70 67.18 67.91 65.18 65.76 67.81 70.37 70.19 69.58 69.31 68.80 68.07 67.50 68.01 68.20 68.40 68.10 67.79 67.18 66.60 66.40 65.98 65.09 64.38 63.66 63.12 63.19
69.83 70.26 69.75 69.87 70.31 70.52 70.04 69.24 68.29 67.92 67.84 68.08 67.99 67.82 67.43 67.46 67.61 67.51 67.62 64.87 65.36 65.34 67.39 69.56 69.22 67.99 67.72 67.53 65.49 66.65 67.36 67.66 67.52 67.25 66.82 66.11 65.96 65.45 64.56 63.77 63.40 62.97 62.50
70.40 69.87 69.90 68.90 68.64 70.26 69.49 69.09 68.87 68.88 68.23 67.77 66.90 67.21 67.42 67.21 67.19 67.45 66.64 65.98 63.65 62.99 64.20 66.07 67.45 67.64 66.54 64.80 62.65 64.03 66.16 66.75 66.65 66.31 65.70 65.04 64.72 64.48 63.90 63.33 63.00 62.37 60.93
70.30 70.61 69.10 69.01 69.71 68.31 69.79 69.08 68.07 66.35 66.60 66.79 66.03 66.47 66.46 66.61 66.50 66.61 66.37 65.79 64.63 63.78 62.45 63.64 65.16 66.05 65.89 65.21 64.93 63.90 66.69 66.19 66.20 65.82 65.15 64.42 64.05 63.57 63.20 62.76 62.30 61.59 60.76
70.91 69.97 69.67 69.22 68.95 68.99 67.89 68.78 67.78 67.11 65.99 65.41 65.77 65.80 65.71 65.45 65.62 66.91 65.55 65.30 64.41 63.86 63.63 62.15 61.92 62.55 64.05 64.70 64.14 65.84 66.58 66.57 66.18 65.54 64.93 64.22 63.79 63.31 62.94 62.59 61.96 61.02 59.94
69.97 69.88 69.42 69.18 68.53 67.84 67.54 67.61 66.57 66.82 66.05 65.69 66.12 65.08 65.25 65.29 65.29 65.89 64.74 65.62 64.43 63.57 63.68 63.09 61.79 61.36 61.04 63.97 64.45 65.76 66.92 67.14 66.45 65.44 64.62 64.20 63.61 62.98 62.48 61.97 61.48 61.07 60.81
69.78 69.42 68.86 69.18 68.14 67.30 67.02 67.02 66.77 65.54 65.20 65.82 63.59 62.61 63.54 64.48 64.54 64.30 64.66 64.04 64.27 63.81 63.39 62.83 62.82 62.28 61.59 61.74 63.51 64.79 66.24 67.72 66.54 65.50 65.02 63.96 63.29 62.56 61.71 61.06 60.21 60.03 60.93
69.55 69.60 69.01 68.63 68.48 66.97 66.23 66.56 66.56 64.45 64.98 65.43 61.59 60.58 58.49 60.10 62.50 63.67 63.56 63.82 63.19 62.98 63.15 62.47 62.83 62.34 62.59 62.62 62.00 63.52 64.17 66.25 66.59 66.15 64.87 63.50 62.43 62.08 60.93 60.46 59.79 59.35 59.27
69.75 68.71 68.70 68.27 67.63 67.03 65.66 65.63 66.48 64.39 63.18 64.45 64.54 59.73 55.20 54.34 57.95 61.30 62.54 62.80 62.57 62.47 62.89 62.24 62.49 62.47 63.09 62.75 61.92 61.34 60.40 61.36 65.16 65.69 64.90 63.06 62.14 61.86 61.15 60.48 59.83 59.44 59.26
66.22 68.43 67.83 68.22 67.54 67.31 65.61 65.08 66.19 65.49 64.25 62.16 64.27 63.42 60.98 59.40 55.52 54.97 59.79 61.94 62.39 62.12 62.53 62.65 62.62 62.38 62.72 62.77 61.80 59.80 57.50 57.48 59.78 63.86 64.42 63.46 62.58 62.05 61.51 60.68 60.19 60.17 60.28
64.12 67.46 67.64 67.59 67.29 67.47 66.74 65.13 64.86 65.18 64.50 62.90 62.54 62.41 61.78 60.81 59.80 56.82 54.78 57.37 61.29 62.59 62.38 62.76 63.07 62.87 62.53 62.42 61.90 60.27 56.19 55.57 57.08 60.50 63.03 63.09 62.71 61.93 61.67 60.81 60.35 60.33 60.39
61.06 65.25 66.78 67.00 66.52 66.33 66.25 65.86 65.66 65.03 64.33 64.21 62.71 61.93 61.63 59.78 58.75 57.16 55.64 56.29 57.29 59.00 61.58 61.82 62.15 63.27 63.18 62.52 61.83 58.69 55.33 53.88 55.07 58.11 60.52 61.62 62.02 61.91 61.56 61.15 60.87 60.09 60.26
56.58 61.15 65.10 65.62 65.78 66.21 66.41 66.50 66.12 65.02 64.80 63.78 62.96 61.98 61.78 61.11 60.46 59.15 57.50 56.08 55.58 58.20 58.62 60.78 61.92 62.39 62.96 63.01 62.69 57.94 56.09 52.43 53.25 55.62 58.01 59.35 60.02 60.49 60.63 60.67 60.56 60.70 60.41
54.65 58.57 63.65 64.40 65.02 65.09 65.24 65.85 65.62 65.50 65.22 64.23 63.24 62.92 62.04 61.39 61.53 60.28 58.83 57.47 54.63 55.64 56.62 56.24 59.44 60.60 62.02 61.64 60.61 54.00 59.05 51.86 51.62 52.93 54.66 56.43 57.14 57.77 58.15 58.65 58.95 59.32 59.58
52.20 55.54 59.26 64.05 64.69 64.92 64.61 65.12 65.09 64.81 64.65 63.85 63.50 63.05 62.70 62.37 62.39 62.03 61.02 60.09 56.41 52.49 52.96 56.71 56.78 59.79 60.38 61.24 60.19 58.28 59.01 51.53 50.55 50.62 51.37 53.23 55.08 55.70 55.97 56.46 56.84 57.44 57.98
50.10 53.47 56.68 62.67 64.74 64.72 64.72 64.96 64.61 64.32 63.60 63.87 62.23 61.43 61.04 59.88 61.96 61.34 60.49 59.43 58.07 55.60 52.33 56.54 57.04 58.91 59.89 60.19 58.43 60.90 60.33 52.14 49.23 49.08 49.35 50.13 52.14 53.55 53.78 54.12 54.61 55.12 56.00
50.61 51.98 56.15 61.54 63.81 63.70 64.28 64.22 64.01 63.72 63.26 63.37 63.21 62.23 60.27 58.19 61.41 60.61 61.02 60.54 59.18 58.18 55.06 55.99 57.96 59.11 58.81 58.38 58.99 59.54 60.21 57.13 53.42 48.54 48.03 48.39 49.01 49.99 50.84 51.44 51.84 52.56 53.35
55.74 54.26 57.60 61.94 62.80 63.22 63.23 63.54 63.20 63.27 62.92 62.02 62.18 62.24 61.00 61.59 60.27 60.82 60.73 59.33 58.86 58.62 56.42 54.69 57.19 57.12 57.29 58.96 58.94 58.46 58.99 59.43 58.01 49.99 48.05 47.66 47.76 47.71 48.05 48.57 48.78 49.27 49.94
49.57 57.29 61.24 61.34 62.03 62.56 62.58 63.43 63.42 63.12 63.13 62.62 62.27 60.84 60.63 60.82 60.25 60.48 59.76 59.14 58.37 58.82 57.35 55.40 54.40 56.39 58.15 58.94 58.60 57.36 55.85 48.18 47.85 47.77 46.25 45.65 46.16 46.67 46.40 46.22 47.39 47.64 47.74
42.09 43.86 53.30 59.40 61.26 62.12 62.39 62.65 62.66 62.49 62.48 61.94 60.74 59.94 58.82 57.86 57.50 56.97 56.79 56.20 55.98 56.64 56.99 56.36 55.96 55.78 56.00 57.54 58.15 50.73 46.34 46.25 44.01 43.95 43.23 43.82 44.72 45.11 45.38 45.44 45.40 45.96 46.50
37.37 39.70 39.67 40.86 43.96 46.76 49.53 59.18 61.96 62.05 61.26 55.98 49.52 45.05 41.91 40.24 39.65 42.33 49.33 44.49 46.13 50.03 52.84 54.41 54.48 54.57 54.97 53.92 51.37 50.81 45.78 40.44 39.69 41.31 40.33 40.79 41.64 41.82 42.83 43.73 44.98 44.98 44.58
32.17 34.08 35.99 37.33 36.57 36.98 37.80 42.80 56.50 59.95 54.10 48.28 42.67 40.29 39.57 37.89 36.40 35.69 35.57 34.70 34.32 37.85 43.13 47.58 52.82 53.20 54.03 54.68 53.13 49.73 40.51 38.67 37.28 39.65 35.15 33.18 37.18 36.22 37.85 39.46 40.33 40.80 41.21
30.64 30.15 31.44 33.91 34.66 35.14 35.88 39.28 41.20 44.54 44.50 45.03 43.23 40.81 39.86 39.27 37.43 35.21 34.10 33.15 32.64 32.83 32.20 34.14 40.00 34.58 36.33 39.98 45.80 46.57 43.96 43.60 37.17 35.98 36.01 31.43 32.94 31.96 35.83 36.90 37.68 37.70 37.65
27.70 27.88 28.68 30.17 31.73 33.89 36.42 35.59 35.00 35.25 35.26 34.11 33.82 34.37 34.74 34.93 36.94 34.90 32.55 30.64 29.83 30.24 30.29 30.22 29.72 29.61 31.21 32.91 36.21 45.39 42.80 33.39 34.09 33.21 34.61 29.40 31.85 30.50 32.14 33.54 35.54 35.49 35.09
28.06 27.59 27.49 27.83 28.24 29.90 33.22 33.69 32.18 31.39 30.66 29.87 31.31 31.89 31.88 32.28 35.12 35.52 31.30 28.87 27.48 27.37 30.27 30.60 30.40 30.20 30.25 32.05 33.89 39.24 35.38 35.43 31.91 31.53 31.94 30.95 30.18 27.55 30.45 30.66 32.38 33.88 33.73
29.32 29.04 28.61 28.59 29.34 28.32 31.29 31.46 30.89 30.21 27.81 28.16 29.13 30.09 31.89 31.02 31.70 31.29 29.33 27.58 24.46 24.89 25.74 25.86 25.78 26.08 26.43 27.02 29.48 29.57 33.90 36.97 31.45 30.54 31.46 28.80 27.59 27.49 23.56 27.21 31.00 31.31 31.27

GFSMA_sfc_wetblb_117.txt.gz
Wetbulb
68.01 67.91 68.23 68.93 69.04 69.01 68.57 67.70 67.76 67.99 67.58 67.10 67.38 67.04 66.91 66.50 66.04 66.34 64.53 64.48 65.95 68.59 71.01 71.20 70.56 70.25 69.33 68.72 68.06 67.29 67.07 67.52 67.92 68.29 67.33 66.51 66.17 65.91 65.40 64.84 64.31 63.87 63.63
67.73 68.10 67.74 68.08 68.73 68.87 68.74 68.01 67.46 67.46 67.53 66.86 66.93 67.45 66.53 66.34 66.34 66.09 65.48 63.79 63.86 65.60 68.34 70.95 70.90 70.41 69.52 69.05 68.00 67.49 67.10 67.38 67.52 68.18 67.33 66.26 65.95 65.33 64.67 64.16 63.89 63.50 63.34
68.20 67.53 67.42 67.01 68.22 69.29 68.03 68.21 66.66 65.79 65.33 66.37 65.88 65.93 65.93 65.79 66.03 65.97 65.27 63.83 63.30 62.99 64.41 67.31 68.94 69.54 69.59 68.75 67.95 66.62 66.06 66.11 65.32 67.08 66.91 66.31 65.86 65.13 64.34 63.65 63.21 63.08 62.99
69.25 67.60 67.37 67.26 66.37 68.64 68.35 67.81 67.12 65.29 65.16 65.20 64.38 64.58 65.15 65.19 65.29 65.38 64.96 64.40 62.95 63.39 62.60 63.63 65.60 67.20 67.32 67.82 67.42 65.96 65.74 64.73 66.39 66.81 66.31 66.09 65.80 64.98 64.22 63.43 62.95 62.58 62.13
69.43 68.94 67.28 66.89 67.12 66.53 67.69 67.67 66.32 64.87 63.48 63.92 64.28 64.46 64.30 64.30 64.38 65.44 64.77 64.18 63.06 62.12 61.69 61.96 62.66 63.63 65.02 66.22 66.17 65.65 65.73 65.34 64.33 66.52 66.02 65.55 65.26 64.89 64.03 63.35 62.93 62.16 61.60
68.11 68.77 68.48 67.85 66.62 66.20 65.81 66.42 66.22 64.47 64.16 63.93 65.18 64.24 63.45 63.60 63.58 63.29 63.78 64.30 63.29 62.48 62.12 61.54 60.71 60.66 61.81 64.61 65.80 66.19 66.26 66.47 67.01 66.39 65.85 65.26 64.73 64.03 63.35 63.06 62.58 61.96 61.43
68.04 67.63 67.55 66.73 66.91 66.48 66.29 65.10 63.83 64.75 62.76 63.92 62.04 60.63 61.66 61.89 62.20 62.41 63.42 63.40 63.23 62.50 62.32 62.33 60.98 60.66 60.60 61.29 63.32 64.77 65.55 66.65 66.70 66.95 65.76 64.85 63.98 63.28 62.78 62.65 62.14 61.70 61.14
65.24 67.08 67.34 67.05 67.49 66.04 64.39 65.06 63.95 61.40 63.14 64.53 59.89 58.47 57.95 57.50 60.51 61.89 61.88 62.68 62.68 62.59 62.12 61.98 61.28 60.76 60.90 60.64 61.74 64.10 65.35 66.59 66.87 66.99 65.81 64.36 63.72 63.04 62.62 62.30 61.84 61.46 60.57
60.10 64.19 66.83 66.90 66.83 66.53 65.00 64.86 64.31 63.21 62.76 62.36 62.59 59.07 55.24 53.12 55.36 59.14 61.29 62.07 61.76 61.29 61.47 61.80 61.34 61.34 61.39 61.16 61.32 61.16 60.40 61.10 64.95 66.13 65.48 64.27 63.59 63.02 62.60 61.79 61.43 60.76 60.48
55.59 58.14 61.29 65.55 66.28 66.30 65.44 64.82 65.37 64.91 63.95 61.95 60.87 61.20 57.94 56.40 53.08 52.24 57.33 60.77 61.31 61.51 60.65 60.98 61.18 61.45 61.69 61.44 61.28 59.57 57.19 56.75 59.74 63.39 64.90 64.42 63.70 63.19 62.58 61.84 60.36 60.84 60.25
52.38 54.34 57.18 59.82 64.77 65.17 64.93 64.71 63.62 64.75 63.90 62.47 62.15 62.38 60.23 57.88 56.75 54.57 52.71 56.57 59.11 60.33 61.52 61.08 61.37 61.32 61.67 62.12 62.09 60.07 55.60 54.96 55.82 61.31 63.70 64.06 63.50 62.56 62.07 61.55 60.92 60.71 60.52
49.71 51.76 54.77 57.44 61.53 64.81 65.00 64.19 63.74 63.50 64.91 64.51 62.71 61.62 61.25 59.82 58.34 55.47 53.31 54.29 57.60 57.87 61.23 61.33 61.38 61.84 61.55 61.55 61.46 58.61 54.55 53.43 54.17 57.93 60.79 62.23 62.23 62.03 61.86 61.62 61.16 60.80 60.54
46.37 48.99 51.71 54.09 57.98 62.73 64.77 65.26 63.80 63.33 64.02 64.07 62.94 62.43 61.93 61.18 60.17 59.49 55.85 54.29 54.56 56.31 56.79 59.43 61.23 61.99 62.07 61.75 61.47 57.48 55.20 52.21 52.56 55.05 57.73 59.39 60.46 60.54 60.62 60.80 60.88 60.75 60.50
44.87 46.69 48.28 51.09 53.54 56.15 63.19 64.13 64.07 63.82 64.25 64.31 63.21 63.00 62.36 61.44 60.44 58.62 59.01 55.03 52.62 53.75 54.74 55.15 58.25 61.14 61.97 62.15 61.08 55.16 59.45 51.49 50.93 52.19 54.37 56.39 57.88 58.18 58.19 58.85 59.29 59.38 59.44
44.65 45.70 47.05 48.72 51.47 54.42 59.53 62.95 62.71 62.47 64.44 64.59 63.77 63.02 62.16 61.74 61.45 59.76 59.85 59.01 56.26 51.88 52.94 54.42 54.84 58.07 60.95 61.05 60.15 59.69 60.52 53.84 50.74 50.22 51.31 53.45 55.33 56.42 56.20 56.45 56.87 57.34 57.94
44.34 45.27 45.91 47.27 49.46 53.10 57.50 62.11 60.57 62.38 62.75 63.82 63.81 63.03 62.09 61.52 59.86 59.89 59.30 59.47 58.29 54.92 52.47 54.99 56.11 56.79 59.20 59.37 57.87 59.41 58.53 53.26 49.82 48.57 49.13 50.69 52.60 54.11 54.46 54.46 54.66 55.15 56.04
43.66 45.07 47.41 48.91 49.47 50.93 55.00 61.70 61.04 61.34 61.42 62.38 62.86 62.20 61.10 60.00 59.60 59.03 58.67 57.29 59.14 58.22 55.21 54.12 55.95 56.63 56.55 57.65 57.33 57.75 58.53 58.17 54.46 48.17 47.83 48.73 49.55 50.36 51.18 51.70 52.04 52.82 53.66
41.69 44.25 47.99 50.68 50.97 51.13 54.58 61.11 62.10 61.87 61.14 61.82 62.34 61.73 60.30 59.08 58.37 57.82 58.70 57.25 58.61 58.93 56.11 53.78 54.85 54.83 55.64 57.27 57.65 57.89 57.97 59.37 58.08 49.38 47.77 47.81 48.37 48.95 49.31 49.22 49.23 49.67 50.13
39.54 41.84 42.83 47.50 52.84 53.37 54.89 60.57 61.38 62.58 62.13 61.90 61.85 61.55 61.33 59.90 57.41 58.34 59.18 59.28 59.31 59.18 58.01 54.99 54.29 54.43 54.71 57.21 56.44 57.25 56.71 53.37 53.17 49.36 46.47 46.31 47.23 48.01 48.03 47.48 47.86 48.09 48.31
36.11 37.22 40.74 41.21 44.67 47.74 55.58 60.31 60.29 60.54 60.80 61.76 60.94 61.34 61.27 59.77 57.59 58.34 59.35 59.05 57.92 58.09 56.65 56.87 55.70 55.50 55.91 56.37 56.65 53.09 48.68 47.19 45.55 44.92 44.42 45.45 47.10 47.03 47.07 46.72 46.47 46.70 47.09
33.99 34.28 35.63 37.39 38.31 38.81 42.62 48.89 56.69 60.11 60.39 57.01 50.92 47.73 46.41 47.48 49.58 53.68 54.87 52.62 54.10 53.21 54.13 54.17 53.63 53.92 54.13 53.95 54.39 52.08 51.50 41.58 40.08 41.73 40.26 39.05 42.67 43.59 44.69 45.06 47.14 46.18 45.55
31.02 32.06 31.47 33.24 34.53 35.79 37.04 40.82 50.58 58.00 52.59 46.67 41.57 39.61 39.34 39.18 39.31 38.57 37.67 35.69 40.28 47.73 48.55 49.81 52.06 51.95 52.59 52.32 52.67 49.15 41.56 40.12 40.86 39.89 35.99 33.54 37.06 36.39 38.06 40.49 42.68 43.46 43.62
29.50 29.41 29.96 30.96 31.36 32.74 34.31 35.56 36.50 37.13 37.50 40.15 42.00 42.63 39.39 38.56 35.51 34.02 33.66 33.48 33.03 33.03 33.41 39.08 42.38 34.96 37.25 35.10 35.94 45.93 43.70 41.95 39.03 35.13 35.34 31.85 32.68 31.94 34.99 38.15 40.10 40.48 40.46
28.35 28.79 28.87 29.54 29.63 31.02 33.42 33.27 32.90 33.29 32.14 33.30 33.85 36.05 37.66 35.88 35.64 33.91 32.44 30.07 29.60 29.79 29.84 30.24 29.51 29.27 30.50 31.93 34.54 39.95 41.41 33.00 33.72 33.18 34.42 30.66 31.61 30.13 31.94 33.80 37.12 37.47 37.00
27.29 26.83 27.70 28.94 29.11 29.74 32.02 32.28 31.91 30.57 30.48 30.67 31.36 31.62 32.97 31.56 33.66 33.70 29.89 27.56 26.77 27.02 31.03 31.03 30.61 29.93 29.82 31.36 33.12 38.11 35.29 35.98 31.88 31.90 32.27 31.10 30.01 28.07 29.73 30.84 32.58 35.09 34.61
26.51 26.55 25.98 26.66 29.09 29.21 32.37 31.52 30.09 29.29 28.46 28.90 29.70 30.33 31.83 30.90 31.57 31.16 28.61 27.02 24.20 24.51 25.62 25.82 26.13 26.59 27.21 27.69 29.64 29.16 32.98 35.34 31.39 31.47 31.91 29.00 28.05 27.98 24.65 27.75 30.51 31.02 31.52

GFSMA_sfc_wetblb_120.txt.gz
Wetbulb
68.88 69.29 68.79 68.55 68.20 68.43 68.25 67.64 67.60 67.58 67.33 66.92 66.54 66.26 66.14 66.01 65.27 65.72 65.00 64.85 64.94 66.42 69.93 71.12 71.22 70.84 70.53 69.43 68.65 68.29 68.30 68.10 67.92 66.87 67.10 67.20 66.84 66.48 65.97 65.48 65.28 65.15 64.90
68.71 68.14 68.45 68.31 68.14 68.37 68.48 67.92 67.35 67.01 67.04 66.99 66.37 66.37 66.37 66.15 65.38 65.30 64.83 64.83 63.50 65.50 68.52 70.83 71.01 70.89 70.44 69.28 68.22 68.15 67.63 67.14 66.01 66.82 66.77 66.50 66.13 65.61 65.01 64.66 64.48 64.24 64.24
67.76 68.31 67.80 67.48 68.31 68.48 67.89 67.62 66.97 66.88 66.59 66.32 65.70 65.85 65.74 65.72 65.44 65.33 64.76 63.97 63.12 62.70 64.45 67.40 68.38 69.99 70.19 69.59 68.63 68.00 67.46 66.45 66.19 65.01 66.88 66.30 65.81 65.28 64.70 64.26 63.87 63.78 63.58
68.90 67.43 67.21 67.42 67.55 68.13 67.84 67.35 66.48 65.72 65.83 65.44 65.06 64.37 64.66 64.64 64.76 65.05 64.40 63.67 62.81 63.16 62.08 63.62 65.83 67.65 68.71 69.23 68.78 67.82 67.31 66.00 66.77 67.06 66.39 65.94 65.70 65.24 64.44 63.86 63.67 63.34 63.32
67.52 67.65 66.93 67.00 65.92 67.25 67.60 67.26 66.77 66.08 64.74 64.07 64.42 64.02 64.00 64.02 64.12 64.76 63.87 63.34 62.58 61.83 61.89 62.19 63.19 64.13 65.88 67.13 68.73 68.54 67.87 66.82 66.78 65.63 66.33 66.00 65.63 65.08 64.39 63.78 63.34 63.08 62.79
65.23 67.38 67.82 67.71 65.60 65.38 66.37 66.71 66.41 65.83 64.70 64.15 64.36 63.65 62.89 63.23 63.50 63.64 63.72 63.83 62.66 61.38 61.32 60.93 61.08 62.16 62.86 65.30 66.70 67.23 67.36 66.94 66.46 66.45 65.99 66.34 65.70 65.10 64.22 63.53 63.08 62.73 62.33
61.84 62.81 66.64 66.95 66.66 65.56 65.50 65.72 65.92 63.34 62.69 63.13 61.41 59.65 60.04 61.54 61.81 62.39 63.28 62.96 62.35 61.86 60.62 60.40 60.18 59.95 60.71 62.22 64.48 66.38 66.52 67.01 66.39 66.28 67.08 66.15 65.21 64.83 63.99 63.51 62.90 62.53 62.05
54.38 57.42 58.77 62.31 66.10 66.19 65.68 64.21 64.75 62.44 64.09 63.32 61.14 57.48 56.43 58.32 59.91 61.06 61.23 62.42 62.04 62.22 61.52 61.11 60.33 59.88 60.24 60.44 60.87 63.07 65.08 65.53 66.56 66.63 66.06 65.39 64.82 64.52 63.99 63.49 62.97 62.36 61.79
51.81 53.73 55.88 58.88 61.15 65.03 65.01 65.01 64.32 63.40 61.90 62.03 62.36 58.91 53.80 54.27 55.35 58.12 60.65 61.76 61.38 61.29 61.86 61.75 61.00 60.82 60.42 60.36 60.30 60.40 60.02 61.07 64.12 65.62 65.82 65.06 64.51 64.13 63.78 63.34 62.73 62.18 61.53
47.83 50.46 52.41 54.16 56.35 58.84 63.14 64.12 64.49 63.83 63.46 61.06 62.13 62.70 58.70 56.49 53.61 52.74 57.80 61.08 61.13 60.50 60.04 61.07 60.92 60.86 60.50 60.27 60.16 58.82 57.20 56.75 59.21 63.62 65.54 65.12 64.33 63.80 63.38 62.90 62.53 62.01 61.61
46.44 48.14 49.98 51.80 53.57 55.55 58.85 63.10 62.72 63.01 62.89 61.15 60.51 61.91 58.44 57.52 55.38 53.42 51.70 56.98 60.33 60.80 60.84 60.78 60.86 60.72 60.72 60.56 61.35 59.66 55.59 53.39 55.93 60.51 63.38 64.28 64.29 63.94 63.23 62.73 62.29 61.98 61.21
43.59 45.39 47.25 48.86 51.34 53.55 56.68 60.89 63.31 62.41 61.11 60.73 60.76 61.40 60.94 57.67 56.08 54.29 51.99 53.24 55.80 59.30 60.48 60.63 60.29 60.74 60.90 60.79 60.75 57.86 55.04 53.05 53.41 57.48 60.80 62.44 63.22 63.50 63.09 62.75 61.98 61.70 61.15
41.40 42.70 44.23 45.22 46.69 49.31 53.52 55.34 60.00 62.81 62.01 61.52 61.42 61.32 61.66 61.16 59.88 57.65 54.92 53.37 53.66 55.21 56.77 59.29 60.77 61.26 61.99 61.30 60.86 57.22 55.20 51.80 52.05 54.30 57.34 59.51 61.10 61.69 61.87 61.77 61.83 61.52 60.98
40.45 41.73 42.44 44.26 45.34 46.55 48.56 51.28 54.08 61.38 62.48 61.93 61.46 61.83 61.71 61.76 61.67 58.97 57.86 54.43 51.26 53.32 53.58 55.42 59.55 61.50 62.24 61.64 60.23 55.13 58.87 50.87 50.51 51.42 54.34 56.49 58.06 58.90 59.05 59.22 59.74 59.82 59.84
40.99 42.42 43.88 44.33 45.27 45.45 46.87 49.69 52.08 54.64 62.11 61.89 61.95 62.26 62.13 62.30 62.07 61.33 60.48 57.67 56.07 49.86 53.69 53.79 55.63 59.88 61.88 61.94 59.57 59.56 59.14 53.61 50.51 49.61 50.89 53.25 55.02 56.33 56.82 57.14 57.36 57.76 58.16
40.25 41.39 42.10 43.24 44.38 46.16 46.66 47.70 50.04 54.26 60.08 61.29 62.27 61.62 61.75 62.01 61.42 61.45 61.08 59.84 58.39 55.24 52.07 54.34 55.61 56.09 60.16 60.67 58.94 60.49 59.44 53.59 49.61 48.34 48.16 49.97 52.34 53.74 54.77 55.28 55.60 55.80 56.28
38.83 39.34 40.32 41.50 43.04 44.83 47.42 48.73 49.76 51.71 55.71 60.29 61.87 61.65 61.97 61.54 60.95 60.67 60.51 59.57 58.37 56.55 54.66 53.25 55.82 56.77 56.67 58.00 56.63 58.48 57.76 57.24 55.13 48.34 47.59 47.79 48.72 50.17 51.22 52.46 53.32 53.61 54.06
37.66 37.90 39.21 40.63 43.11 44.81 48.00 49.26 49.69 51.17 53.71 59.11 59.90 61.23 61.74 62.03 61.17 60.50 59.97 59.63 58.71 58.18 56.57 54.24 53.92 54.21 55.27 55.97 56.99 57.76 58.54 58.62 56.49 49.24 47.41 46.89 47.23 47.63 48.17 49.44 50.17 50.65 50.49
35.18 36.31 36.61 39.35 40.91 43.39 44.33 52.20 51.36 51.22 53.84 58.97 59.28 59.32 60.56 61.59 60.57 60.64 60.10 58.74 57.13 58.11 57.61 54.70 54.26 55.19 55.55 55.83 55.69 56.65 56.83 56.01 54.40 50.27 46.51 45.60 46.14 46.87 47.25 47.43 48.68 49.75 49.58
32.79 33.83 35.06 35.78 37.19 38.84 39.72 44.91 52.27 52.21 54.55 59.97 59.35 59.31 60.59 60.91 60.45 59.63 58.48 57.86 56.71 56.87 56.97 57.05 55.23 54.47 54.03 55.31 56.74 53.94 50.82 49.33 49.71 46.71 44.37 42.76 45.44 46.14 46.31 46.71 47.63 48.86 48.30
31.84 32.05 32.99 33.19 34.95 35.06 36.15 38.15 46.98 54.89 55.85 58.32 56.01 56.62 58.19 58.87 54.07 56.06 57.93 57.97 57.59 56.91 56.97 56.61 55.76 53.56 53.15 54.26 55.43 53.31 53.60 45.35 42.45 42.62 41.12 37.72 40.71 42.19 42.93 45.38 48.37 48.30 47.20
29.94 30.88 31.10 31.38 31.45 33.57 34.40 37.85 42.61 43.50 44.32 43.55 42.28 42.36 42.67 43.49 45.78 44.19 42.07 40.54 51.73 56.69 56.20 56.04 55.57 54.94 53.67 53.06 52.05 50.40 45.35 42.98 44.46 40.36 37.27 33.88 36.15 34.66 36.41 39.36 40.92 43.99 44.86
27.81 27.68 29.42 30.87 30.67 31.50 33.62 34.13 34.99 35.05 35.50 35.83 38.46 40.11 37.84 37.96 38.57 39.83 37.75 37.16 35.73 35.68 37.58 48.30 49.78 44.30 44.43 37.45 39.36 45.13 44.06 43.27 42.45 35.62 36.21 31.63 33.02 31.50 33.41 36.68 39.69 41.76 42.87
26.33 26.13 26.94 29.23 30.44 31.33 32.63 33.02 32.58 31.79 31.92 31.77 32.12 32.16 34.00 35.07 34.06 34.37 35.16 33.52 32.12 31.55 31.25 32.16 32.84 30.28 30.61 31.73 34.36 39.03 40.08 33.13 33.49 33.13 34.65 30.47 31.12 29.37 32.04 32.90 36.25 37.71 39.19
25.31 25.57 26.25 27.22 28.35 30.28 32.52 32.21 31.65 30.96 29.81 29.74 30.57 31.53 31.90 31.57 32.74 32.94 30.01 29.74 28.05 26.74 31.36 32.17 31.32 31.03 31.66 32.20 33.31 36.91 34.18 35.41 32.04 32.04 32.22 31.40 29.43 27.38 28.90 30.58 32.46 34.84 34.77
23.66 24.71 25.25 26.34 29.03 28.78 32.00 32.38 30.41 29.78 28.22 28.99 29.67 30.27 31.80 31.17 31.25 30.68 29.18 26.91 24.18 24.86 26.18 26.32 26.42 27.21 27.87 29.16 30.72 30.04 32.54 34.92 31.74 31.07 32.22 28.84 28.24 28.47 25.24 28.83 29.82 30.99 32.00

GFSMA_sfc_wetblb_123.txt.gz
Wetbulb
68.26 68.89 68.97 68.47 67.72 67.43 68.15 68.44 68.69 68.22 67.86 66.84 66.23 65.51 65.33 65.31 65.15 65.01 64.15 64.54 65.73 68.36 70.17 70.64 71.06 71.06 70.81 69.97 69.16 68.90 68.66 68.44 68.04 67.93 67.26 66.56 66.50 66.94 66.67 66.38 65.84 65.56 65.38
68.15 68.04 68.67 67.65 67.65 67.22 67.61 67.68 68.03 67.72 67.45 66.93 66.09 65.58 65.45 65.61 65.25 64.86 64.27 63.96 63.35 64.87 66.61 68.55 70.98 71.23 70.55 70.43 68.99 68.65 68.49 67.97 67.79 67.91 67.17 66.26 66.23 66.13 66.02 65.75 65.40 65.22 64.87
67.90 67.20 67.59 67.63 67.81 67.72 67.09 67.31 67.06 67.18 66.82 66.41 65.44 65.31 65.58 65.47 65.09 64.48 64.41 64.12 63.39 62.51 63.58 66.71 68.77 69.97 70.28 70.28 69.19 68.41 68.17 67.38 67.13 67.31 66.73 65.86 65.90 65.69 65.39 65.17 64.93 64.89 64.78
68.31 66.73 66.19 66.60 67.50 65.98 66.50 66.61 67.00 66.68 66.21 65.51 65.17 64.63 65.04 65.11 64.80 64.55 64.55 64.08 63.33 62.90 61.88 63.55 65.80 67.49 69.05 70.06 69.43 68.68 68.43 67.47 66.78 66.55 66.42 65.62 65.82 65.50 65.11 64.55 64.44 64.31 64.20
64.41 63.74 62.97 66.04 65.38 65.60 65.84 66.03 66.05 66.17 65.51 65.13 64.79 64.93 64.22 64.39 64.71 64.97 64.21 63.58 62.96 62.34 61.43 62.02 62.55 63.91 65.95 67.49 69.14 69.01 68.70 67.84 66.85 66.47 65.73 66.40 65.86 65.62 64.87 64.33 64.02 63.69 63.65
59.75 62.71 61.80 61.31 62.66 64.56 64.24 64.80 65.26 65.49 65.16 64.87 64.15 63.67 63.32 64.24 64.36 64.47 64.07 63.98 63.16 62.12 61.58 61.02 61.47 62.29 62.53 65.37 67.13 68.94 68.98 68.38 67.32 66.47 66.61 66.58 65.93 65.37 64.64 64.18 63.76 63.59 63.43
53.59 55.37 58.85 59.92 63.03 62.76 62.40 64.78 65.05 64.22 63.72 62.47 61.09 60.52 60.52 61.18 62.56 63.73 64.02 63.29 62.49 61.87 61.12 60.94 60.39 61.17 62.62 62.85 65.13 67.56 68.30 68.25 67.82 67.59 66.87 66.24 65.33 64.94 64.42 63.96 63.67 63.32 63.10
51.14 51.97 53.61 56.67 59.19 59.94 63.30 63.41 64.51 63.52 62.70 62.57 60.75 58.69 57.90 59.39 60.50 61.42 62.58 62.53 62.36 62.43 61.17 60.68 59.76 59.46 60.73 62.30 62.29 64.70 66.31 67.32 67.62 66.93 66.20 65.39 65.16 65.02 64.51 64.13 63.56 63.21 62.86
47.44 48.48 50.60 52.35 53.41 56.54 57.87 60.01 63.43 62.47 61.38 62.16 63.15 59.73 54.95 55.11 56.52 59.07 61.04 61.99 61.33 61.92 61.89 61.24 60.24 59.73 59.55 59.92 60.24 60.69 60.04 61.31 64.65 65.90 65.65 65.26 64.93 65.00 64.67 64.15 63.68 63.06 62.65
44.96 47.12 48.65 49.37 50.72 52.45 54.35 56.88 61.00 62.60 61.23 58.60 62.07 62.06 60.98 57.86 54.65 53.31 58.83 61.13 61.33 61.51 62.27 62.07 61.01 60.50 60.08 60.02 59.57 58.26 56.68 56.48 58.64 62.44 64.04 64.91 65.11 65.27 64.71 64.21 63.71 63.00 62.47
42.82 43.82 45.85 46.45 47.64 49.60 51.57 53.95 55.98 59.63 62.99 60.87 60.67 59.51 59.57 59.14 58.07 54.65 53.58 57.14 60.42 61.74 62.08 62.30 62.31 61.51 60.60 60.38 60.15 58.88 54.81 53.74 54.73 58.41 62.04 63.34 63.77 64.07 64.63 64.19 63.62 63.08 62.47
41.17 41.98 43.17 43.54 44.32 45.83 47.32 50.17 53.26 55.34 60.86 62.74 61.03 60.06 58.39 57.15 56.47 55.58 54.51 54.65 57.19 59.68 62.04 61.36 61.05 61.28 60.83 60.87 60.49 57.76 55.77 52.65 53.14 55.07 58.83 60.87 62.79 64.61 64.20 64.03 63.75 63.23 62.74
39.82 40.44 41.15 41.46 42.39 43.78 45.03 46.09 47.43 49.40 51.94 60.26 60.76 59.19 59.16 59.01 58.45 58.03 56.92 55.92 54.96 56.12 58.55 60.68 61.02 61.37 61.27 61.44 60.81 56.90 54.77 51.38 51.53 53.46 56.18 59.07 60.56 61.62 62.31 62.71 62.93 62.91 62.78
39.09 40.51 41.28 42.47 43.68 44.79 45.60 45.67 45.94 47.58 50.74 53.23 60.95 60.15 59.98 59.91 60.13 59.03 57.49 56.48 52.86 53.78 53.82 56.60 60.57 60.34 61.43 61.79 60.41 54.81 58.33 50.64 50.48 51.20 52.99 55.37 57.91 58.79 59.32 60.01 60.94 61.18 61.44
38.79 40.12 40.42 41.45 42.40 43.52 44.50 45.39 44.73 45.55 48.57 51.45 54.52 61.18 59.81 60.58 60.80 60.69 60.15 58.37 57.07 53.32 53.64 54.82 56.42 59.98 61.33 61.70 59.96 59.98 59.38 52.07 49.53 49.01 50.13 52.31 54.64 55.91 56.60 57.74 58.52 58.83 59.26
37.24 38.21 38.87 39.45 40.35 41.75 43.35 44.77 45.48 46.27 47.17 49.65 53.59 58.57 60.57 60.91 60.69 61.09 60.45 59.54 59.24 57.68 53.79 56.72 55.64 57.48 60.14 60.85 59.28 60.32 58.85 52.61 49.15 47.94 48.32 49.77 51.58 53.58 54.28 54.93 55.80 56.54 57.12
35.34 36.28 37.13 38.08 38.37 39.38 42.07 43.54 44.69 46.09 46.52 48.64 51.20 54.97 59.83 60.73 60.43 60.73 60.33 59.97 59.17 58.75 56.02 56.68 55.36 55.54 59.03 59.35 59.40 59.82 59.39 58.10 54.35 47.92 47.56 48.12 48.68 49.59 50.86 51.74 52.96 53.97 54.90
34.37 34.74 35.55 36.23 37.34 38.95 40.48 42.37 43.64 46.73 48.47 49.21 50.21 51.56 57.17 60.72 59.41 60.26 59.95 59.90 59.45 58.64 57.61 55.82 53.74 53.48 54.35 58.22 58.35 57.56 58.49 58.91 58.06 48.59 47.20 47.01 47.39 47.58 47.78 48.50 49.23 50.13 52.22
32.86 33.50 34.29 34.29 34.77 36.33 37.34 39.52 41.34 43.16 45.99 49.27 50.88 51.77 54.78 59.34 59.28 58.99 59.35 59.70 59.65 58.62 57.83 57.37 54.09 53.36 53.60 55.64 55.53 56.52 56.88 57.14 54.91 49.35 45.91 45.20 45.93 46.47 46.83 46.85 47.21 48.68 48.83
30.08 31.27 32.84 33.34 33.77 34.25 35.52 36.31 37.97 40.63 44.39 51.72 52.01 52.82 54.77 58.31 59.13 59.21 58.61 59.38 59.43 58.80 58.18 57.43 54.80 52.74 53.52 55.27 55.16 54.21 51.53 51.87 49.68 46.85 43.71 42.71 44.62 45.02 45.00 45.02 45.20 46.27 47.18
29.33 29.55 30.23 32.21 32.76 33.22 34.14 34.82 38.55 40.74 43.01 51.28 51.17 49.05 46.87 47.20 48.90 56.00 59.07 59.38 58.37 57.06 56.90 56.50 55.52 52.94 52.41 54.37 55.10 54.13 54.17 47.68 43.70 44.57 42.60 37.96 40.41 40.62 39.98 41.32 44.05 44.99 45.38
27.85 27.86 28.33 30.35 31.06 32.15 34.15 34.54 35.75 38.03 39.07 40.17 40.08 38.95 38.80 38.83 41.90 42.70 42.34 43.24 50.38 56.32 55.88 55.48 54.78 54.21 54.45 54.44 55.32 53.81 47.63 46.05 46.27 41.13 40.23 34.65 36.65 34.37 35.50 37.31 39.34 40.50 41.66
25.84 26.39 26.99 29.05 29.65 31.03 33.50 33.74 32.95 32.51 32.74 33.30 33.63 34.59 34.57 35.17 37.54 39.63 38.30 36.42 34.94 34.76 36.80 50.76 54.13 52.82 50.47 48.53 49.58 48.23 46.58 46.56 44.99 36.84 37.66 32.16 32.91 31.36 33.05 35.50 37.56 39.27 40.97
24.25 25.01 25.82 27.42 28.44 30.13 32.55 32.73 32.49 31.35 30.89 30.98 31.06 31.79 32.30 32.49 33.26 33.60 32.38 31.06 30.31 32.43 31.89 32.04 33.33 31.90 32.13 33.45 39.01 44.75 44.39 34.00 33.45 33.27 35.16 32.17 30.83 29.23 31.73 32.55 36.06 37.17 38.42
23.73 24.61 25.52 25.53 26.85 28.15 31.62 31.71 30.26 29.24 28.95 28.95 30.21 31.38 30.83 30.70 32.77 34.51 31.76 29.26 29.37 28.18 30.63 31.88 31.96 31.40 32.23 33.32 34.45 38.04 35.05 37.72 32.37 32.19 32.19 31.54 29.05 27.60 28.82 29.34 31.46 35.42 36.29
23.12 24.63 24.38 24.98 26.95 25.62 30.68 30.51 28.50 27.70 26.08 26.46 27.80 29.05 31.64 31.38 32.16 31.05 28.93 28.72 27.07 26.72 28.19 29.47 29.33 29.36 29.39 29.33 30.94 30.34 33.61 35.61 32.73 31.58 32.37 29.78 28.10 28.82 25.44 28.46 29.48 31.06 32.20

GFSMA_sfc_wetblb_129.txt.gz
Wetbulb
70.59 70.23 70.26 69.94 70.04 70.36 71.13 70.65 70.21 70.05 70.04 69.94 70.43 70.62 70.21 69.69 69.52 69.42 69.59 65.26 64.98 66.98 69.18 70.69 71.51 71.50 71.28 70.32 69.46 69.40 69.15 68.93 68.71 68.04 67.58 67.58 67.50 66.82 66.55 66.94 66.52 66.34 66.36
70.55 70.55 69.75 69.62 69.14 69.48 68.93 70.97 70.56 69.54 69.75 70.00 69.64 69.01 69.45 69.91 69.86 69.64 69.19 69.45 63.69 64.78 66.87 69.63 71.20 71.65 71.84 70.68 69.33 69.11 68.97 68.83 68.49 67.75 67.26 66.88 66.64 66.32 66.45 66.18 66.16 66.12 66.05
70.62 70.31 69.67 68.97 69.78 69.59 68.45 68.83 69.04 69.85 69.51 68.63 68.26 69.04 68.66 69.46 69.54 69.76 69.17 69.12 68.81 62.65 63.80 66.79 69.05 69.21 70.03 70.66 69.63 69.08 68.88 68.39 68.15 67.68 67.13 66.78 66.41 66.23 65.63 65.67 65.83 65.81 65.83
62.81 67.10 67.53 67.01 67.77 67.84 67.82 67.46 67.70 66.63 67.30 67.86 67.90 67.78 68.24 67.88 68.85 69.67 69.73 68.76 68.63 69.07 65.04 63.27 65.16 66.51 67.46 69.11 70.40 70.10 69.45 68.60 68.22 67.88 67.18 66.57 66.20 66.05 65.55 65.31 65.56 65.25 65.20
56.94 60.09 64.08 66.89 67.15 65.84 66.40 64.99 62.83 65.68 66.27 66.61 66.52 66.96 67.38 67.02 67.92 68.90 69.10 69.01 69.18 69.15 69.34 64.45 62.40 63.32 64.48 67.08 68.97 70.54 70.39 69.49 68.75 68.21 67.56 66.59 66.25 65.80 65.45 65.16 65.35 65.11 64.92
52.89 53.99 57.13 58.36 61.67 64.18 65.23 64.08 62.27 63.77 67.10 67.85 66.91 67.19 67.91 68.08 68.24 67.68 68.04 68.10 68.15 68.69 69.66 68.59 68.27 66.40 61.60 64.53 67.07 69.26 70.47 70.04 69.77 69.07 68.18 67.09 66.40 65.93 65.19 65.01 64.94 65.18 64.89
50.00 51.37 52.84 54.73 57.21 58.97 61.11 62.90 64.45 63.74 62.65 64.96 64.16 64.85 65.40 66.47 66.12 66.12 67.01 67.14 66.68 67.24 67.94 67.81 67.50 67.44 67.40 62.13 64.58 67.66 69.94 70.01 70.19 69.48 68.34 67.07 66.31 65.38 64.92 64.70 64.67 65.13 65.00
48.06 49.34 50.27 51.25 52.71 54.14 56.06 58.77 61.14 61.07 62.70 64.53 62.57 62.61 58.75 62.23 63.23 64.52 65.47 65.71 65.58 66.45 66.54 66.96 66.83 65.86 66.92 68.04 66.85 64.78 67.80 68.99 69.33 69.12 68.21 66.64 65.74 65.29 64.81 64.83 64.76 64.96 65.00
46.62 47.38 47.97 49.27 50.17 51.20 52.04 54.31 56.67 57.50 58.56 62.78 63.48 61.69 57.86 57.97 59.70 62.05 62.52 62.37 62.80 64.43 65.19 65.48 65.51 65.56 66.06 67.17 65.61 64.63 61.25 63.09 66.82 68.21 67.61 66.58 65.92 65.61 64.94 64.67 64.72 64.76 64.81
44.48 45.70 46.78 47.12 47.58 48.36 48.97 50.28 52.23 53.84 56.22 57.63 61.98 63.90 62.34 60.81 56.68 56.27 59.31 60.09 60.84 60.76 62.63 64.24 64.83 65.13 65.65 66.55 64.76 62.12 58.48 58.05 60.86 65.47 66.90 66.84 66.47 65.98 65.58 65.25 64.74 64.83 64.74
42.94 43.84 44.63 44.19 44.74 46.05 47.01 47.81 49.01 50.55 52.40 54.09 56.74 61.87 60.12 59.48 61.48 58.95 56.48 57.10 60.60 61.52 61.90 61.56 63.08 64.92 65.19 65.10 65.98 63.92 56.91 55.68 57.01 60.99 64.27 65.83 66.25 65.89 65.52 65.14 64.87 64.83 64.61
40.28 41.19 41.26 41.75 42.42 42.83 43.57 44.79 45.51 46.19 47.63 49.51 51.41 54.42 59.55 59.58 58.32 58.50 58.03 58.17 58.02 59.04 60.80 61.10 62.05 64.28 65.47 64.98 63.54 59.60 55.73 53.61 54.31 57.35 60.31 62.36 63.56 64.30 64.67 64.85 65.07 64.94 64.78
38.22 38.95 39.80 40.22 40.89 42.01 42.76 43.77 44.68 44.96 45.82 45.95 47.86 51.04 53.80 56.13 60.13 59.58 59.08 59.08 57.82 58.01 58.36 59.99 61.46 63.36 64.87 66.22 64.47 58.29 56.33 51.98 52.46 54.34 56.07 57.65 59.33 60.91 62.07 62.92 63.81 64.59 64.45
36.50 38.02 38.26 38.86 39.48 40.43 41.64 42.32 42.69 44.30 45.86 45.81 46.04 47.48 49.81 53.56 54.00 60.13 59.09 59.47 57.71 58.27 58.16 58.26 60.63 62.34 64.71 65.05 63.09 56.19 62.46 51.79 50.87 51.70 53.63 54.64 55.70 56.65 58.11 59.32 60.66 61.67 62.44
36.18 36.60 36.53 36.66 37.64 38.71 39.51 40.32 41.02 41.97 43.97 45.68 47.01 47.43 47.45 50.35 55.38 56.29 60.63 60.05 59.07 56.41 56.92 59.97 59.05 63.72 64.62 65.19 63.19 64.10 62.72 56.65 50.65 50.13 50.71 51.34 53.01 54.36 54.96 56.59 57.86 59.00 59.69
34.21 34.32 34.68 35.64 36.42 37.45 38.23 38.84 39.37 40.89 41.96 43.83 45.77 46.43 47.23 48.01 51.87 56.04 59.30 60.76 59.88 58.53 57.75 60.75 61.33 62.80 63.92 63.68 62.41 63.96 63.35 56.41 49.98 48.89 48.71 49.18 50.20 52.11 52.91 54.29 55.24 56.14 57.25
33.19 33.17 33.24 33.62 34.98 35.55 36.32 36.65 37.05 38.44 40.74 42.07 44.30 45.08 46.83 48.14 48.10 53.13 55.98 60.77 59.30 59.64 56.85 60.65 62.52 62.98 62.78 63.46 63.32 63.56 63.19 62.18 60.07 48.70 47.77 47.90 47.77 48.51 50.36 51.27 52.54 53.26 54.71
32.31 32.31 32.64 33.15 33.20 33.85 35.10 34.83 35.09 36.49 36.98 38.01 40.40 43.05 45.86 47.98 47.86 49.79 55.54 57.52 59.32 59.35 58.54 56.53 61.58 61.79 62.08 63.79 64.06 62.74 62.35 61.43 60.96 51.76 47.73 47.35 47.01 47.26 48.19 48.55 49.46 50.18 51.27
30.76 31.41 32.24 32.51 32.44 33.19 33.35 34.19 35.22 35.38 36.38 37.33 38.38 40.13 43.66 46.05 46.53 49.08 51.35 55.35 57.30 60.20 59.22 57.75 57.66 62.82 61.84 62.85 62.26 62.04 61.33 60.47 59.77 53.36 46.48 45.94 46.10 46.48 47.26 47.64 48.01 48.55 48.91
29.89 30.16 31.07 31.47 32.16 32.79 32.35 32.55 33.82 34.93 35.75 37.49 39.73 39.86 41.99 43.65 46.66 49.84 50.73 52.98 56.51 57.50 58.61 57.36 57.28 57.55 59.62 59.61 60.76 58.30 56.57 58.29 56.01 50.81 48.12 47.81 46.72 45.91 46.12 45.96 45.98 46.68 47.26
29.64 29.43 29.33 29.79 31.87 31.88 31.74 31.43 31.45 32.04 33.06 33.92 36.58 38.11 39.52 38.69 40.05 43.78 49.26 51.89 54.42 56.27 57.35 57.48 55.17 56.44 56.56 56.23 55.47 56.73 57.57 55.95 49.93 48.37 46.97 46.85 46.25 45.60 44.63 44.21 44.88 44.93 44.29
27.77 28.00 27.20 27.97 28.84 31.25 31.22 31.22 30.60 29.61 29.78 30.54 31.25 32.68 33.48 34.66 36.80 35.20 36.03 34.95 36.76 46.81 54.21 56.86 54.16 55.17 57.37 58.18 57.95 57.14 55.35 50.05 48.33 47.10 46.40 42.23 43.23 40.95 40.08 42.24 40.11 40.52 41.10
27.25 26.53 25.72 26.82 26.78 29.11 30.59 29.84 29.58 29.21 27.43 27.66 28.48 29.25 30.18 31.78 33.58 34.72 33.67 33.93 34.00 34.06 33.82 45.16 42.50 45.87 51.23 49.32 57.38 57.47 56.07 53.51 53.72 47.93 47.63 37.31 36.74 34.59 37.06 37.54 37.96 39.02 39.54
26.36 25.84 25.70 26.04 25.16 26.75 28.55 28.68 27.46 26.87 26.68 25.91 27.03 27.55 27.87 28.69 30.59 31.23 32.62 31.93 31.54 31.92 32.37 32.83 32.46 32.05 32.96 35.42 38.19 44.58 56.79 47.99 37.13 36.77 43.47 36.22 32.96 33.32 32.78 34.91 37.03 37.41 38.14
25.03 25.57 25.01 24.14 24.31 24.80 27.39 26.87 24.95 25.03 24.79 24.65 25.70 27.12 27.11 27.25 29.73 30.47 28.02 28.05 28.96 28.57 32.07 32.92 33.08 33.28 33.46 33.83 34.91 42.71 38.38 44.11 34.23 34.05 34.59 36.04 32.24 31.36 31.83 31.87 33.10 36.43 36.47
23.41 24.35 24.21 23.74 24.12 23.65 26.23 26.13 24.82 23.09 21.90 22.52 23.05 24.24 26.95 27.03 28.16 27.97 24.90 24.81 24.06 26.09 27.81 28.89 29.55 30.24 30.89 31.50 31.81 32.04 33.52 35.30 34.23 35.14 32.78 34.05 32.42 32.75 31.63 31.83 31.29 32.40 34.23

GFSMA_sfc_wetblb_132.txt.gz
Wetbulb
72.02 71.53 71.54 71.21 71.27 72.60 72.55 72.10 71.95 72.12 72.04 72.44 72.23 71.82 71.63 71.65 71.53 70.92 71.00 65.94 65.67 67.63 69.22 70.36 71.00 71.44 71.17 70.06 69.57 69.60 69.38 69.32 68.88 68.70 67.93 67.46 67.29 67.22 66.88 66.96 66.68 66.88 66.70
70.85 70.42 71.26 71.86 71.91 72.02 72.19 72.12 70.90 70.86 71.08 71.47 70.78 70.83 71.32 71.46 71.46 71.57 71.07 70.87 64.60 65.47 67.39 69.08 70.13 71.46 71.85 70.88 69.25 69.26 69.22 69.02 68.85 68.48 67.96 67.29 66.89 66.36 66.14 66.32 66.21 66.32 66.45
61.25 70.21 70.97 70.25 70.74 71.91 72.04 71.39 71.09 70.45 69.86 70.07 69.55 70.26 70.57 71.36 71.19 71.18 71.35 71.32 69.72 63.23 64.19 66.47 68.53 70.05 71.25 71.25 69.60 69.15 68.95 68.53 68.54 68.35 67.80 67.24 66.67 66.30 65.76 65.58 65.49 65.92 65.85
59.52 61.25 65.43 68.84 69.60 70.26 69.49 68.96 69.67 69.28 68.38 69.04 68.60 69.10 70.02 70.56 70.77 71.11 71.13 71.16 70.90 70.13 64.48 63.79 65.67 68.10 68.88 69.69 70.39 69.94 69.40 68.89 68.37 68.36 67.75 67.09 66.68 66.38 65.96 65.41 65.30 65.36 65.30
58.42 59.61 62.87 61.63 61.09 65.91 67.43 68.38 68.28 68.99 67.00 66.79 67.56 68.08 69.12 69.53 69.57 70.10 69.83 70.73 71.25 70.67 70.10 64.70 63.08 64.09 65.83 67.24 68.35 69.28 70.31 69.47 68.88 68.69 68.00 67.14 66.75 66.26 65.77 65.50 65.22 65.06 65.34
55.50 56.73 58.65 59.72 61.22 61.54 64.07 66.21 67.24 67.91 66.56 65.07 65.44 66.40 66.74 68.09 69.71 68.89 69.67 69.44 70.50 70.79 71.16 69.97 68.21 67.50 62.21 64.76 66.56 68.39 69.88 70.72 70.02 69.44 68.46 67.80 66.88 66.20 65.65 65.47 65.29 65.04 65.27
54.03 54.94 55.67 56.75 58.13 58.91 59.66 60.26 61.59 64.32 66.01 65.73 63.32 63.74 62.46 62.09 67.99 68.40 69.07 69.18 69.28 70.17 70.70 70.51 70.42 70.18 67.37 62.57 64.52 67.12 68.86 70.44 70.64 70.11 68.49 67.63 66.88 66.09 65.23 65.36 65.13 65.09 65.03
52.28 52.35 53.15 53.96 55.29 55.68 56.90 59.18 59.79 58.44 61.41 63.93 62.12 62.00 59.01 61.12 65.96 67.03 68.67 68.41 68.92 69.21 69.21 70.02 69.67 70.02 70.05 70.09 67.70 64.49 67.14 68.98 69.75 69.71 68.63 67.04 66.34 65.81 65.10 65.34 65.01 65.05 64.89
50.49 50.96 51.35 52.18 52.87 53.55 53.98 55.76 57.08 57.93 56.53 58.75 62.05 61.05 58.21 57.64 62.06 66.95 65.94 66.90 67.79 67.67 68.21 68.72 68.69 69.13 69.67 69.97 67.65 65.68 60.97 62.60 66.64 68.62 68.19 67.01 66.54 66.09 65.47 65.10 65.01 64.96 64.83
48.19 48.97 49.72 49.59 49.57 51.13 51.83 53.01 54.11 55.07 53.88 53.05 57.10 59.77 62.54 63.73 59.52 59.09 62.76 64.63 66.23 64.67 66.63 66.31 66.21 66.71 66.83 68.43 66.09 62.91 58.67 58.02 61.03 65.74 67.12 67.25 66.93 66.32 65.60 65.25 64.99 64.76 64.68
47.43 46.93 46.42 45.93 46.51 46.97 48.27 47.86 49.61 51.47 53.34 53.79 54.52 55.29 56.59 62.00 64.23 60.73 57.01 60.20 62.05 62.69 64.32 64.30 64.87 65.59 66.45 66.47 67.18 65.10 58.10 55.69 57.09 61.51 65.07 66.49 66.67 66.43 65.85 65.47 65.05 64.81 64.63
45.30 45.95 44.58 43.76 43.32 43.39 44.32 45.19 45.98 47.12 46.71 48.22 51.19 53.53 53.49 53.71 58.00 60.18 58.92 59.68 59.66 62.03 63.33 64.10 65.03 64.79 65.83 65.73 64.36 59.22 56.76 55.21 55.20 57.94 61.25 63.73 65.36 65.62 65.65 65.54 65.52 65.38 65.05
41.44 42.18 41.65 41.24 41.70 42.19 42.33 43.16 43.59 44.01 44.91 45.46 46.93 48.47 52.87 55.03 54.74 54.07 58.72 60.05 60.11 62.38 62.85 64.16 63.28 64.24 64.83 66.62 65.84 58.83 56.89 53.30 53.57 55.24 57.64 60.01 62.05 63.22 64.05 64.52 64.94 65.30 65.23
38.11 39.28 39.53 39.94 40.37 40.61 40.93 41.39 41.88 42.61 43.41 44.90 45.47 46.40 46.56 50.19 54.29 54.37 53.14 57.14 59.11 60.17 61.91 62.39 64.53 64.78 64.98 64.72 64.45 55.77 64.50 52.22 51.41 52.28 54.05 56.01 57.94 59.04 59.72 60.72 61.76 62.58 63.54
36.47 37.59 38.03 38.02 38.52 38.73 39.27 39.39 39.84 40.46 41.30 42.58 43.98 45.61 46.60 47.16 50.28 53.63 54.54 54.35 58.11 56.24 58.11 62.09 62.98 65.03 64.00 64.74 62.77 64.93 66.01 57.07 51.21 50.44 50.46 52.18 54.58 55.77 56.19 57.13 58.30 58.99 59.96
35.56 35.55 35.74 36.50 36.97 37.39 38.14 38.20 37.93 39.00 38.93 40.31 41.85 43.62 45.59 47.15 48.08 49.55 52.81 55.46 58.50 58.53 57.49 60.67 63.07 65.04 65.14 63.57 63.11 65.78 65.99 57.35 50.86 49.23 48.69 49.50 50.93 53.03 53.75 54.09 54.82 55.86 56.89
34.15 34.31 34.95 35.21 35.50 36.01 36.28 36.19 36.04 36.60 37.60 38.84 40.73 42.24 43.19 45.77 46.52 47.96 48.99 53.38 56.58 59.77 57.92 60.71 62.55 64.05 65.24 64.59 64.78 65.35 64.90 65.71 64.24 49.39 48.31 48.49 48.49 49.38 50.28 50.61 51.33 53.07 54.25
33.85 33.47 33.76 33.74 34.29 34.68 35.31 34.82 34.52 35.64 36.04 36.57 37.80 38.98 40.05 42.68 43.64 47.15 48.29 48.93 53.73 57.71 59.32 58.31 60.76 62.37 63.89 64.74 64.82 65.15 64.83 64.67 65.35 54.56 48.85 48.27 47.89 47.18 47.22 47.58 48.69 49.59 50.86
33.06 33.02 33.18 32.73 33.69 33.83 33.18 33.72 33.72 32.74 33.29 34.99 36.49 37.99 39.09 41.34 42.80 44.91 46.38 48.19 50.06 54.54 60.01 58.34 59.48 61.12 62.87 63.85 63.22 63.97 65.17 65.01 64.85 55.23 47.53 46.79 46.82 46.79 46.93 46.80 47.55 48.31 49.23
31.45 31.43 31.89 32.19 32.75 32.75 32.14 32.70 32.45 31.65 31.02 31.98 34.01 35.41 39.37 40.01 40.86 43.04 43.76 47.53 49.68 50.78 56.54 58.18 58.89 59.95 61.16 62.35 62.50 62.12 60.33 61.44 61.29 59.44 52.32 50.56 48.31 46.75 46.21 46.59 47.02 47.76 48.14
30.81 30.56 30.59 30.92 31.44 31.52 32.04 31.09 31.99 31.52 30.81 29.63 30.81 31.96 33.52 35.13 36.94 37.10 41.32 44.80 47.00 49.92 52.42 55.71 57.01 57.52 59.11 59.58 58.08 58.74 59.28 60.10 59.62 55.35 53.94 51.29 51.33 50.88 50.06 46.15 49.75 47.58 47.04
30.59 29.64 29.29 29.37 29.53 30.91 29.71 29.74 30.09 30.44 29.62 28.11 27.61 29.04 30.86 32.23 35.22 34.74 34.95 34.43 34.60 37.76 43.12 50.40 54.78 56.02 57.17 58.95 58.08 58.40 57.42 56.86 51.83 50.44 52.11 51.11 48.99 48.72 48.59 50.55 47.17 45.79 44.85
29.50 28.38 28.28 28.90 28.75 29.51 28.23 28.34 28.63 29.25 27.46 26.83 27.21 27.29 28.04 29.73 30.57 32.11 32.35 31.77 32.18 32.69 32.75 35.80 43.30 34.53 39.36 36.21 41.22 44.33 54.92 56.72 56.49 56.69 53.02 46.51 42.14 40.53 40.18 40.05 39.48 40.67 42.05
28.34 27.68 26.85 27.50 27.35 27.97 27.13 26.70 26.45 27.09 26.47 24.92 26.06 26.77 26.98 27.11 28.64 28.34 28.79 28.63 29.00 30.27 31.06 31.72 31.31 31.32 32.37 33.16 39.14 40.37 40.82 46.10 44.88 41.62 45.42 41.44 36.18 35.45 34.91 37.73 38.11 38.29 38.93
27.53 26.62 26.38 25.22 25.33 25.70 25.87 25.73 25.71 25.64 24.91 24.02 24.27 25.06 25.81 26.00 28.21 28.84 26.10 25.66 26.18 26.61 30.52 31.90 32.27 32.15 32.03 32.59 32.87 36.77 33.76 39.00 37.99 34.19 33.28 35.82 33.28 32.19 32.92 32.37 35.39 37.27 37.22
26.92 27.62 26.06 25.42 24.58 24.78 25.02 24.51 23.80 24.55 22.46 22.97 23.65 23.47 24.24 24.27 25.73 26.54 24.87 25.05 24.22 26.02 27.44 28.01 28.25 30.20 31.26 31.10 31.46 30.14 29.62 32.45 34.37 35.82 31.94 33.46 33.28 33.28 32.55 32.55 33.46 33.82 33.28

GFSMA_sfc_wetblb_138.txt.gz
Wetbulb
63.61 65.93 69.42 70.06 69.18 69.75 69.34 68.93 68.85 69.11 69.11 69.45 69.68 68.58 68.90 68.99 67.81 67.83 67.22 65.89 67.40 69.78 71.40 71.42 71.47 71.67 71.73 70.55 69.87 69.63 69.75 69.54 69.34 68.84 67.91 67.32 67.24 67.33 67.47 67.07 66.60 67.05 67.10
60.23 60.91 63.76 66.76 68.26 67.93 69.27 68.60 68.04 67.87 67.30 67.87 67.72 68.66 68.49 68.85 69.11 68.44 68.75 66.06 65.20 67.11 69.12 70.77 71.66 72.03 72.26 71.79 70.14 69.39 69.57 69.44 69.23 68.81 68.16 67.26 66.93 66.82 66.80 66.74 66.54 66.67 66.69
58.73 59.64 61.33 64.64 65.29 64.94 65.30 66.20 65.76 65.61 62.66 59.43 62.24 65.03 67.66 67.83 68.40 68.48 68.39 68.65 65.40 63.81 65.80 68.19 69.27 70.39 71.05 71.52 70.52 69.39 69.07 68.59 68.85 68.76 68.27 67.25 66.91 66.44 66.29 66.18 65.96 65.96 66.38
57.00 56.90 59.90 62.19 62.06 62.85 65.26 65.37 65.77 64.90 60.98 60.78 60.68 60.96 65.90 67.03 67.50 67.98 68.70 68.39 68.06 67.36 63.96 64.98 66.80 68.03 69.09 70.54 71.25 70.32 69.45 68.81 68.62 68.66 68.28 67.35 66.77 66.49 66.11 65.85 65.69 65.67 65.73
55.26 54.74 55.77 57.37 57.88 58.83 60.63 62.49 62.49 62.57 63.44 62.32 61.49 64.09 64.82 65.73 66.45 67.43 67.38 67.87 68.01 67.83 67.78 64.11 63.57 64.75 66.38 67.98 69.72 71.28 70.90 69.61 69.08 68.99 68.46 67.82 67.04 66.60 66.27 65.69 65.54 65.42 65.29
53.22 52.77 53.61 54.22 55.16 55.55 56.08 56.71 57.40 61.17 61.89 62.02 64.30 64.09 64.46 65.22 65.31 65.53 66.41 67.44 67.76 67.90 68.19 67.47 64.69 63.94 62.80 65.67 67.31 69.30 71.32 70.90 69.99 69.54 68.99 68.20 67.37 66.76 66.02 65.74 65.51 65.45 65.27
51.86 50.84 51.00 51.54 52.42 52.14 52.80 54.26 55.56 55.48 56.85 59.77 59.11 60.77 61.87 63.35 63.88 64.87 65.82 66.11 66.60 67.10 67.06 67.69 67.49 65.94 64.49 62.87 65.31 67.96 70.44 71.41 70.58 69.81 69.10 68.22 67.33 66.49 65.89 65.65 65.47 65.23 65.31
50.26 49.83 49.45 49.36 48.91 48.65 49.84 50.26 51.70 52.20 53.35 56.23 56.77 57.25 54.90 57.09 61.14 63.24 63.95 64.34 64.56 66.35 66.61 66.85 66.46 67.37 67.36 65.45 64.03 65.36 68.29 69.96 69.97 69.76 68.88 67.67 67.11 66.51 66.07 65.69 65.54 65.18 65.14
48.78 49.42 48.91 47.72 46.66 47.10 46.76 47.48 48.05 47.72 47.45 50.50 54.16 55.00 52.37 52.10 55.30 58.84 61.20 62.97 63.10 63.04 63.13 63.58 65.57 66.39 67.22 67.73 65.09 63.69 62.42 63.98 67.13 68.68 68.63 67.62 66.96 66.74 66.27 65.94 65.54 65.33 65.09
47.08 47.37 45.59 44.09 44.08 43.68 43.85 44.25 45.90 45.11 45.68 45.27 48.93 52.50 53.53 54.27 51.18 51.47 55.39 57.67 61.68 62.14 61.86 63.70 65.05 65.59 66.45 66.85 65.81 62.39 58.96 59.01 62.26 66.48 67.89 67.75 67.20 66.83 66.47 66.11 65.74 65.42 64.98
44.19 43.79 41.48 41.35 40.60 41.14 41.80 41.64 41.75 41.86 42.66 42.50 43.78 45.53 46.72 48.80 51.55 50.60 47.77 51.18 57.26 61.36 63.04 63.61 64.27 65.11 65.52 66.42 66.37 64.64 58.09 56.94 58.15 62.61 65.53 67.00 66.99 66.55 66.34 66.07 65.71 65.44 65.09
40.27 39.92 39.55 39.51 39.92 39.78 39.69 40.46 40.23 40.86 41.05 41.75 42.40 42.72 43.04 44.33 45.64 47.19 47.85 49.26 50.52 53.83 59.15 61.76 63.29 64.38 65.34 65.72 64.97 60.44 56.46 55.29 56.12 58.83 61.64 64.45 65.87 66.20 66.00 66.07 65.96 65.78 65.58
36.96 37.26 37.75 37.82 37.53 38.29 38.94 39.31 39.22 39.09 39.72 39.84 40.76 41.42 42.10 42.38 43.88 44.44 44.78 46.14 48.17 52.16 53.41 56.31 59.70 62.90 64.79 64.83 64.12 58.70 57.88 54.06 54.66 55.71 58.15 60.51 62.34 63.79 64.47 64.87 65.42 65.62 65.58
36.31 36.96 36.71 37.17 36.91 37.57 37.92 38.09 37.91 38.08 38.76 38.98 38.97 39.84 40.72 41.96 43.05 42.96 43.11 44.03 43.47 45.97 49.60 51.99 56.14 60.01 62.94 63.34 62.12 56.62 61.56 53.16 52.45 54.41 55.76 56.92 58.04 59.30 60.49 61.73 62.83 63.77 64.22
36.15 36.15 36.22 35.72 36.27 36.29 36.44 36.41 36.19 36.02 36.38 37.15 37.65 38.55 38.97 40.17 41.80 43.31 43.21 43.91 43.03 41.32 43.20 48.43 51.09 55.96 59.52 62.55 61.80 63.31 62.30 56.98 52.13 52.02 52.79 54.06 56.04 57.19 57.92 58.84 59.74 60.55 61.74
35.52 35.42 34.96 35.03 35.12 34.70 34.77 34.77 34.52 35.37 35.04 34.97 35.34 35.36 36.28 37.91 39.55 41.44 42.39 43.89 44.73 43.61 41.37 47.11 49.97 53.20 55.91 59.36 60.22 62.17 62.94 58.06 50.91 50.20 50.85 51.70 52.70 54.48 55.41 56.46 57.04 57.92 58.88
34.69 34.30 34.08 33.85 33.83 32.97 32.72 32.52 33.53 33.66 33.20 33.20 33.66 32.77 33.73 34.59 37.62 36.92 39.97 41.84 43.65 45.00 42.85 45.14 48.45 51.67 53.22 55.90 57.19 59.48 61.82 62.58 61.57 50.49 49.68 49.54 49.54 50.39 51.41 52.57 53.35 54.56 56.11
34.02 33.55 33.56 32.64 32.76 31.78 31.42 31.25 32.23 32.17 31.01 30.84 31.51 31.32 31.46 33.26 33.02 34.55 37.27 39.01 41.57 43.42 43.66 42.54 45.74 47.71 50.13 53.22 55.90 58.19 60.84 62.61 62.75 55.18 50.00 48.64 48.08 47.91 48.46 49.18 49.36 50.09 51.54
32.42 32.60 32.15 30.95 30.94 29.77 29.89 29.99 31.80 30.25 29.62 29.54 29.93 30.32 30.15 30.41 30.90 34.01 36.28 38.42 41.00 42.98 44.30 44.13 45.11 47.80 48.74 50.98 52.39 56.52 57.88 58.88 61.19 56.26 49.36 48.82 49.00 49.65 48.44 48.28 48.09 48.64 48.82
30.38 30.13 30.78 29.75 29.09 27.80 28.56 29.09 30.37 29.22 27.85 27.46 28.13 28.76 29.17 29.31 30.80 31.90 33.28 32.93 35.74 38.22 40.91 42.11 44.52 45.93 47.01 49.58 52.18 53.24 54.60 56.48 57.69 60.28 54.93 51.68 50.01 49.18 48.82 48.64 47.17 46.79 47.35
29.61 28.97 28.87 28.49 27.06 26.79 27.25 27.95 28.62 28.28 26.41 25.10 25.55 25.83 27.47 29.62 31.43 31.79 31.31 30.31 31.16 31.94 36.57 38.49 43.18 44.61 43.61 39.92 38.96 39.45 45.56 50.32 55.66 55.70 55.69 53.56 52.13 52.22 50.61 47.70 49.41 46.05 45.70
28.74 27.09 26.62 26.93 25.01 26.23 27.42 28.46 27.75 26.51 25.00 23.35 22.91 23.29 25.12 26.95 27.86 29.46 31.06 30.99 30.59 29.48 30.32 33.72 31.35 31.66 31.31 30.63 32.71 33.38 38.56 47.62 50.46 45.18 49.92 52.57 53.74 52.51 52.67 52.43 48.26 46.28 43.87
26.87 25.81 24.79 24.77 23.82 23.90 26.80 27.47 26.83 23.82 22.55 21.27 21.07 21.90 22.70 24.62 26.32 25.61 27.72 29.35 29.03 31.06 31.02 29.99 28.11 28.29 28.55 29.92 30.67 31.85 36.48 39.74 44.04 35.95 39.93 44.11 40.97 40.66 39.85 40.77 40.85 42.00 43.15
26.14 25.46 23.91 23.18 22.95 23.42 26.24 26.12 26.27 22.18 21.27 21.31 20.61 21.90 21.81 22.52 24.47 24.46 23.95 24.23 25.26 26.74 29.38 30.08 29.23 28.94 29.83 31.43 31.03 32.00 32.93 35.60 37.89 31.98 31.63 34.30 33.95 33.41 33.95 35.39 39.10 39.41 39.67
26.64 25.58 24.53 22.60 20.84 21.25 26.09 25.55 23.25 22.45 21.45 20.18 20.94 21.50 21.73 22.20 25.40 25.78 21.51 21.48 22.24 23.45 27.84 30.91 30.91 31.09 31.21 31.72 32.63 30.41 27.76 28.88 33.20 30.92 30.02 28.35 32.69 32.50 32.50 32.32 33.74 36.91 36.82
27.00 27.26 24.54 22.62 24.14 20.10 25.40 25.57 23.33 21.69 19.97 19.27 19.85 20.66 24.05 22.95 24.46 24.34 20.32 19.96 19.13 20.82 22.52 23.90 25.53 26.32 28.45 28.77 30.79 30.30 29.54 26.09 26.19 25.46 29.21 27.23 31.74 32.32 32.87 31.96 32.11 32.41 33.05

GFSMA_sfc_wetblb_141.txt.gz
Wetbulb
59.60 60.45 61.67 64.40 66.19 64.86 65.62 66.01 66.61 66.77 67.39 67.75 66.14 63.17 63.41 62.89 67.47 67.18 66.02 66.13 67.33 69.62 71.55 72.29 72.26 72.18 71.49 70.34 69.57 69.53 69.55 69.34 69.06 68.85 67.92 67.50 67.12 67.41 67.37 67.44 67.42 67.07 67.22
57.10 57.93 59.96 62.31 64.53 63.72 64.91 65.92 66.23 63.93 63.21 63.62 62.29 63.88 62.32 63.74 67.77 68.07 66.46 66.48 65.10 67.28 69.59 71.16 72.20 72.22 71.96 70.94 69.58 69.16 69.29 69.24 68.99 68.90 68.26 67.18 66.97 66.72 66.77 66.66 66.48 66.75 67.00
54.39 55.21 57.18 60.59 58.51 60.68 61.89 63.98 63.97 64.26 62.38 62.82 61.78 61.97 62.62 64.07 67.04 67.07 67.51 66.39 66.04 63.95 65.50 68.61 70.19 71.00 71.38 71.40 70.32 69.36 68.91 68.77 68.79 68.82 68.26 67.36 66.68 66.46 66.31 66.22 66.13 65.92 66.60
52.86 52.87 53.91 54.01 55.04 56.68 58.48 58.40 59.97 62.65 62.61 60.56 60.12 60.42 61.54 64.19 64.86 65.95 66.70 66.77 66.84 66.91 64.21 63.94 66.04 68.26 69.36 70.78 71.68 70.76 69.65 68.84 68.62 68.61 68.23 67.45 66.88 66.37 66.24 66.06 65.97 65.63 65.92
51.08 50.82 50.50 51.13 52.28 52.69 52.97 53.87 54.82 56.58 59.43 62.12 60.79 59.21 60.04 62.15 63.70 65.99 65.50 66.46 67.02 67.00 66.64 64.02 63.24 64.14 66.06 68.50 70.09 71.33 70.76 69.87 69.11 69.04 68.46 67.70 67.15 66.55 66.15 65.88 65.82 65.77 65.66
49.54 49.17 48.94 49.51 49.30 48.87 49.43 50.12 50.92 52.85 53.82 57.52 60.18 60.94 63.06 63.78 63.87 64.22 64.73 65.99 66.81 67.08 67.01 66.64 64.52 63.94 62.62 65.61 67.87 69.99 71.62 70.87 70.11 69.65 68.88 68.26 67.44 66.66 65.93 65.86 65.79 65.64 65.62
47.84 47.26 47.64 46.65 46.51 46.48 47.20 47.80 47.96 48.20 50.58 51.75 54.79 56.49 58.91 61.31 61.97 63.56 64.52 64.75 64.93 65.81 66.13 66.66 65.99 65.02 64.78 63.09 65.41 68.35 70.36 71.50 71.14 69.87 69.08 68.17 67.51 66.55 65.91 65.66 65.57 65.53 65.37
46.33 44.62 43.09 43.35 43.40 43.24 43.70 43.72 44.56 44.27 47.20 47.81 48.88 50.98 51.30 54.59 57.58 60.71 62.52 63.89 64.16 64.96 65.21 65.95 65.57 65.35 65.84 64.96 63.82 65.08 67.83 69.42 70.24 70.24 68.85 67.79 67.26 66.71 66.11 65.86 65.68 65.51 65.44
42.07 40.99 40.75 40.37 40.28 40.98 40.58 40.97 40.92 41.19 40.74 44.03 44.22 47.24 47.82 48.65 50.63 54.72 56.02 58.99 61.40 61.70 62.74 63.47 64.44 65.19 65.39 66.15 63.87 62.97 61.91 63.03 67.05 69.05 68.71 67.70 67.15 66.86 66.24 65.97 65.66 65.51 65.42
40.06 39.35 39.10 38.47 38.51 39.11 38.84 39.43 40.67 40.55 40.64 39.28 42.30 45.70 45.08 46.25 48.47 47.82 52.37 53.14 54.19 56.85 60.06 61.32 62.00 62.44 63.03 64.26 64.50 62.06 59.18 58.30 60.91 66.16 67.30 67.59 67.35 67.04 66.48 66.22 65.86 65.64 65.33
38.04 37.81 37.67 37.13 37.25 38.10 38.37 38.91 38.25 38.99 39.91 39.94 40.21 40.35 40.91 42.15 44.84 46.89 45.53 48.17 50.72 53.43 56.06 59.69 62.25 63.02 64.22 64.55 64.62 63.20 57.76 56.21 57.76 62.34 65.15 66.28 66.95 66.86 66.53 66.28 65.97 65.79 65.55
36.14 36.59 37.29 37.30 37.25 37.38 37.47 37.74 38.32 38.23 38.14 38.75 39.77 40.50 40.13 39.93 40.61 41.32 41.77 42.36 42.76 47.26 51.29 53.83 54.47 58.19 62.49 64.02 63.75 59.78 56.93 55.22 55.63 59.07 62.09 64.06 65.51 66.02 65.88 66.02 66.11 66.04 65.77
34.04 34.25 35.27 35.61 35.99 36.59 36.69 36.76 36.78 36.92 37.22 37.10 37.85 38.36 39.66 40.17 41.61 41.66 40.27 40.17 40.88 43.71 46.13 49.97 52.96 55.22 58.27 61.28 63.50 59.15 57.76 53.39 54.06 56.07 58.26 60.39 62.16 63.34 64.22 64.54 65.53 65.93 65.84
33.65 34.07 34.01 34.51 35.10 35.14 34.69 35.20 35.84 35.61 36.12 36.13 35.91 36.63 37.63 38.97 40.33 40.60 39.97 39.33 37.87 39.46 41.84 42.92 48.84 52.33 54.19 55.23 57.40 56.01 60.17 52.81 51.92 53.15 54.58 56.39 58.20 59.52 60.67 61.70 62.66 63.74 64.52
34.64 33.24 33.24 33.10 32.60 32.51 32.09 33.38 33.95 34.16 34.17 34.33 34.24 34.25 33.78 35.79 37.55 38.54 40.40 40.86 39.45 36.13 37.44 41.64 44.00 49.86 51.96 54.15 55.13 58.71 61.31 56.53 51.82 50.98 51.18 53.45 55.79 57.60 58.37 58.92 59.90 60.99 61.94
33.01 33.63 32.31 32.59 31.01 31.22 30.67 31.23 32.95 32.30 31.65 31.93 32.16 32.14 32.15 32.87 33.93 35.03 37.99 39.17 39.98 38.89 36.88 41.98 43.41 45.92 47.87 50.38 51.52 52.48 57.22 54.72 53.06 49.18 48.63 49.89 51.88 54.97 56.29 56.85 57.07 58.20 59.32
33.38 32.78 31.05 30.93 28.89 29.30 29.52 29.48 31.06 29.15 28.64 28.50 29.42 30.30 30.44 31.02 30.88 32.31 33.92 34.87 36.16 37.57 36.68 40.35 44.23 46.19 46.32 46.79 49.13 51.34 52.21 54.48 59.63 52.65 50.79 47.73 48.13 50.23 52.06 54.22 54.96 55.67 56.55
31.05 30.85 29.51 28.83 27.27 27.83 28.72 28.43 29.67 27.65 26.32 25.71 25.73 27.05 28.08 29.20 29.00 32.28 33.87 35.73 35.88 38.05 37.87 37.92 41.32 42.69 44.39 46.63 47.79 47.58 50.20 53.25 55.93 55.45 51.39 50.45 48.04 47.75 48.11 48.68 50.85 51.39 52.30
28.55 29.46 27.68 26.58 26.12 26.25 27.48 28.29 29.68 26.91 25.18 25.35 24.71 24.62 25.39 27.40 28.68 30.01 32.04 30.97 32.44 33.05 34.49 38.41 39.79 42.65 44.48 47.18 46.84 47.98 48.14 51.39 55.99 54.93 50.58 49.04 47.01 47.01 47.21 47.93 47.57 48.68 50.13
26.88 27.53 26.25 25.55 26.11 26.08 27.27 27.02 26.86 24.55 23.50 23.89 24.69 24.71 25.40 27.40 28.09 28.55 29.95 29.33 29.79 30.41 32.37 34.81 37.57 40.01 43.50 42.97 39.93 40.45 38.58 43.92 45.13 53.08 53.54 49.91 49.16 46.99 46.41 47.17 47.19 47.19 47.21
26.25 26.35 26.07 24.61 25.34 26.02 27.20 25.13 24.48 22.80 21.77 21.44 23.21 23.41 25.22 28.22 29.09 28.72 28.82 28.20 28.12 29.00 29.85 31.02 32.81 34.22 31.52 31.28 31.20 33.95 35.06 39.39 45.44 40.20 46.55 53.52 53.42 51.97 50.01 46.12 48.60 47.03 46.12
24.57 23.66 23.70 23.28 23.25 25.84 27.71 27.37 24.06 22.16 21.69 20.66 20.66 21.57 23.99 25.96 25.52 26.78 28.21 28.66 28.06 27.37 27.32 27.58 27.64 26.55 27.89 29.08 30.99 31.31 33.28 39.32 43.91 37.58 35.03 47.06 46.85 45.68 43.68 41.35 41.53 42.97 45.59
20.84 22.09 19.49 20.59 20.48 23.33 26.54 26.71 25.85 20.77 19.40 18.21 19.78 19.86 22.19 23.73 24.14 22.75 24.66 25.83 26.10 27.41 29.14 27.16 25.95 26.03 26.32 28.28 30.17 30.27 31.09 34.17 36.69 31.35 32.72 37.07 36.80 35.43 36.79 38.88 39.97 40.22 40.82
14.06 13.91 18.25 18.74 18.99 22.54 26.65 25.41 24.56 14.79 14.31 16.42 19.03 19.67 19.65 20.81 23.24 21.92 20.97 21.24 22.01 22.83 25.52 26.90 25.75 26.37 27.45 28.45 29.78 31.05 30.45 31.73 32.30 31.17 30.74 28.06 33.25 33.09 33.63 34.40 37.27 37.90 38.32
18.74 20.52 14.01 15.39 17.44 17.64 26.55 25.72 20.10 16.98 12.54 14.59 17.91 19.78 20.63 20.69 24.57 24.51 19.60 18.59 18.69 19.97 24.35 26.98 27.02 27.15 27.56 28.30 28.29 28.86 27.93 27.06 26.89 27.66 29.59 28.23 31.43 32.00 32.36 32.12 32.87 35.18 35.67
20.82 22.16 19.94 18.20 22.22 14.36 24.86 26.02 21.05 13.93 17.27 16.98 16.85 19.12 24.35 22.66 23.84 23.66 18.38 17.72 15.90 17.25 18.99 20.38 22.16 23.22 24.52 24.49 26.32 24.69 27.16 23.63 25.32 24.47 27.29 26.61 29.17 29.44 30.22 32.00 31.87 31.93 32.19